<?xml version="1.0" encoding="UTF-8" standalone="no" ?>
<gpx xmlns="http://www.topografix.com/GPX/1/1" xmlns:xsi="http://www.w3.org/2001/XMLSchema-instance" xsi:schemaLocation="http://www.topografix.com/GPX/1/1 http://www.topografix.com/GPX/1/1/gpx.xsd" version="1.1" creator="VisuGPX - https://www.visugpx.com">
  <metadata>
    <name>83-CD-Salernes</name>
    <desc><![CDATA[83-CD-Salernes : tombe mégalithique de la Lauve - St Barthélémy]]></desc>
  </metadata>
  <trk>
    <name><![CDATA[2013-02-03-salernes]]></name>
    <trkseg>
      <trkpt lat="43.56532" lon="6.22783">
        <ele>200.948029</ele>
        <time>2013-02-03T08:28:13Z</time>
      </trkpt>
      <trkpt lat="43.56539" lon="6.2279">
        <ele>199.456009</ele>
        <time>2013-02-03T08:29:46Z</time>
      </trkpt>
      <trkpt lat="43.56539" lon="6.22791">
        <ele>199.488449</ele>
        <time>2013-02-03T08:29:47Z</time>
      </trkpt>
      <trkpt lat="43.56529" lon="6.22804">
        <ele>198.699997</ele>
        <time>2013-02-03T08:32:50Z</time>
      </trkpt>
      <trkpt lat="43.56529" lon="6.22805">
        <ele>198.699997</ele>
        <time>2013-02-03T08:32:51Z</time>
      </trkpt>
      <trkpt lat="43.56532" lon="6.22816">
        <ele>199</ele>
        <time>2013-02-03T08:34:14Z</time>
      </trkpt>
      <trkpt lat="43.56543" lon="6.22834">
        <ele>199.699997</ele>
        <time>2013-02-03T08:34:31Z</time>
      </trkpt>
      <trkpt lat="43.56551" lon="6.22836">
        <ele>200.600006</ele>
        <time>2013-02-03T08:34:38Z</time>
      </trkpt>
      <trkpt lat="43.5656" lon="6.22836">
        <ele>202.100006</ele>
        <time>2013-02-03T08:34:47Z</time>
      </trkpt>
      <trkpt lat="43.56568" lon="6.22834">
        <ele>203</ele>
        <time>2013-02-03T08:34:55Z</time>
      </trkpt>
      <trkpt lat="43.56576" lon="6.22838">
        <ele>203.699997</ele>
        <time>2013-02-03T08:35:04Z</time>
      </trkpt>
      <trkpt lat="43.56583" lon="6.22843">
        <ele>204.800003</ele>
        <time>2013-02-03T08:35:13Z</time>
      </trkpt>
      <trkpt lat="43.5659" lon="6.22851">
        <ele>205.199997</ele>
        <time>2013-02-03T08:35:22Z</time>
      </trkpt>
      <trkpt lat="43.5659" lon="6.22852">
        <ele>205.199997</ele>
        <time>2013-02-03T08:35:23Z</time>
      </trkpt>
      <trkpt lat="43.56605" lon="6.22862">
        <ele>206</ele>
        <time>2013-02-03T08:35:48Z</time>
      </trkpt>
      <trkpt lat="43.56614" lon="6.22858">
        <ele>206.5</ele>
        <time>2013-02-03T08:35:56Z</time>
      </trkpt>
      <trkpt lat="43.56622" lon="6.22856">
        <ele>207.100006</ele>
        <time>2013-02-03T08:36:05Z</time>
      </trkpt>
      <trkpt lat="43.5663" lon="6.22859">
        <ele>208.100006</ele>
        <time>2013-02-03T08:36:13Z</time>
      </trkpt>
      <trkpt lat="43.56639" lon="6.22863">
        <ele>208.800003</ele>
        <time>2013-02-03T08:36:21Z</time>
      </trkpt>
      <trkpt lat="43.56646" lon="6.2287">
        <ele>210</ele>
        <time>2013-02-03T08:36:30Z</time>
      </trkpt>
      <trkpt lat="43.56647" lon="6.22871">
        <ele>210.100006</ele>
        <time>2013-02-03T08:36:31Z</time>
      </trkpt>
      <trkpt lat="43.56655" lon="6.22889">
        <ele>212.399994</ele>
        <time>2013-02-03T08:36:49Z</time>
      </trkpt>
      <trkpt lat="43.56658" lon="6.22901">
        <ele>213.600006</ele>
        <time>2013-02-03T08:36:58Z</time>
      </trkpt>
      <trkpt lat="43.56661" lon="6.22911">
        <ele>214.699997</ele>
        <time>2013-02-03T08:37:07Z</time>
      </trkpt>
      <trkpt lat="43.56667" lon="6.22921">
        <ele>214.800003</ele>
        <time>2013-02-03T08:37:14Z</time>
      </trkpt>
      <trkpt lat="43.56674" lon="6.22929">
        <ele>215.699997</ele>
        <time>2013-02-03T08:37:23Z</time>
      </trkpt>
      <trkpt lat="43.5668" lon="6.22936">
        <ele>216.100006</ele>
        <time>2013-02-03T08:37:29Z</time>
      </trkpt>
      <trkpt lat="43.56687" lon="6.22944">
        <ele>216.699997</ele>
        <time>2013-02-03T08:37:35Z</time>
      </trkpt>
      <trkpt lat="43.56688" lon="6.22944">
        <ele>216.600006</ele>
        <time>2013-02-03T08:37:36Z</time>
      </trkpt>
      <trkpt lat="43.56702" lon="6.22938">
        <ele>218.399994</ele>
        <time>2013-02-03T08:37:48Z</time>
      </trkpt>
      <trkpt lat="43.5671" lon="6.22933">
        <ele>219.800003</ele>
        <time>2013-02-03T08:37:55Z</time>
      </trkpt>
      <trkpt lat="43.56718" lon="6.22929">
        <ele>220.399994</ele>
        <time>2013-02-03T08:38:02Z</time>
      </trkpt>
      <trkpt lat="43.56726" lon="6.22923">
        <ele>221.699997</ele>
        <time>2013-02-03T08:38:09Z</time>
      </trkpt>
      <trkpt lat="43.56733" lon="6.22916">
        <ele>222.5</ele>
        <time>2013-02-03T08:38:17Z</time>
      </trkpt>
      <trkpt lat="43.56741" lon="6.22913">
        <ele>223.5</ele>
        <time>2013-02-03T08:38:28Z</time>
      </trkpt>
      <trkpt lat="43.56749" lon="6.22907">
        <ele>224.100006</ele>
        <time>2013-02-03T08:38:35Z</time>
      </trkpt>
      <trkpt lat="43.56756" lon="6.22902">
        <ele>225.600006</ele>
        <time>2013-02-03T08:38:44Z</time>
      </trkpt>
      <trkpt lat="43.56757" lon="6.22901">
        <ele>225.800003</ele>
        <time>2013-02-03T08:38:45Z</time>
      </trkpt>
      <trkpt lat="43.56773" lon="6.229">
        <ele>228.5</ele>
        <time>2013-02-03T08:39:09Z</time>
      </trkpt>
      <trkpt lat="43.56778" lon="6.22907">
        <ele>229.5</ele>
        <time>2013-02-03T08:39:16Z</time>
      </trkpt>
      <trkpt lat="43.56785" lon="6.22914">
        <ele>231</ele>
        <time>2013-02-03T08:39:25Z</time>
      </trkpt>
      <trkpt lat="43.56793" lon="6.2292">
        <ele>233.199997</ele>
        <time>2013-02-03T08:39:38Z</time>
      </trkpt>
      <trkpt lat="43.56799" lon="6.22929">
        <ele>233.600006</ele>
        <time>2013-02-03T08:39:43Z</time>
      </trkpt>
      <trkpt lat="43.56805" lon="6.22938">
        <ele>234.300003</ele>
        <time>2013-02-03T08:39:51Z</time>
      </trkpt>
      <trkpt lat="43.56806" lon="6.22938">
        <ele>234.399994</ele>
        <time>2013-02-03T08:39:52Z</time>
      </trkpt>
      <trkpt lat="43.56819" lon="6.22951">
        <ele>237</ele>
        <time>2013-02-03T08:40:07Z</time>
      </trkpt>
      <trkpt lat="43.56827" lon="6.22957">
        <ele>238.199997</ele>
        <time>2013-02-03T08:40:15Z</time>
      </trkpt>
      <trkpt lat="43.56834" lon="6.22964">
        <ele>239.300003</ele>
        <time>2013-02-03T08:40:22Z</time>
      </trkpt>
      <trkpt lat="43.5684" lon="6.22972">
        <ele>241.699997</ele>
        <time>2013-02-03T08:40:37Z</time>
      </trkpt>
      <trkpt lat="43.56847" lon="6.22978">
        <ele>242.5</ele>
        <time>2013-02-03T08:40:44Z</time>
      </trkpt>
      <trkpt lat="43.56856" lon="6.22983">
        <ele>242.899994</ele>
        <time>2013-02-03T08:40:51Z</time>
      </trkpt>
      <trkpt lat="43.56863" lon="6.22987">
        <ele>243.699997</ele>
        <time>2013-02-03T08:40:56Z</time>
      </trkpt>
      <trkpt lat="43.56864" lon="6.22988">
        <ele>243.800003</ele>
        <time>2013-02-03T08:40:57Z</time>
      </trkpt>
      <trkpt lat="43.5688" lon="6.2299">
        <ele>245.100006</ele>
        <time>2013-02-03T08:41:12Z</time>
      </trkpt>
      <trkpt lat="43.56887" lon="6.22996">
        <ele>246.100006</ele>
        <time>2013-02-03T08:41:21Z</time>
      </trkpt>
      <trkpt lat="43.56894" lon="6.23003">
        <ele>247.399994</ele>
        <time>2013-02-03T08:41:30Z</time>
      </trkpt>
      <trkpt lat="43.56901" lon="6.23011">
        <ele>248.399994</ele>
        <time>2013-02-03T08:41:41Z</time>
      </trkpt>
      <trkpt lat="43.56908" lon="6.23017">
        <ele>249.300003</ele>
        <time>2013-02-03T08:41:47Z</time>
      </trkpt>
      <trkpt lat="43.56915" lon="6.23023">
        <ele>249.699997</ele>
        <time>2013-02-03T08:41:53Z</time>
      </trkpt>
      <trkpt lat="43.56921" lon="6.23031">
        <ele>250</ele>
        <time>2013-02-03T08:41:59Z</time>
      </trkpt>
      <trkpt lat="43.56922" lon="6.23032">
        <ele>250.199997</ele>
        <time>2013-02-03T08:42:00Z</time>
      </trkpt>
      <trkpt lat="43.56938" lon="6.23036">
        <ele>250.800003</ele>
        <time>2013-02-03T08:43:08Z</time>
      </trkpt>
      <trkpt lat="43.56939" lon="6.23037">
        <ele>250.5</ele>
        <time>2013-02-03T08:43:09Z</time>
      </trkpt>
      <trkpt lat="43.56953" lon="6.23045">
        <ele>250.899994</ele>
        <time>2013-02-03T08:43:22Z</time>
      </trkpt>
      <trkpt lat="43.56959" lon="6.23052">
        <ele>251.100006</ele>
        <time>2013-02-03T08:43:28Z</time>
      </trkpt>
      <trkpt lat="43.56966" lon="6.2306">
        <ele>251.5</ele>
        <time>2013-02-03T08:43:35Z</time>
      </trkpt>
      <trkpt lat="43.56973" lon="6.23067">
        <ele>252.5</ele>
        <time>2013-02-03T08:43:43Z</time>
      </trkpt>
      <trkpt lat="43.5698" lon="6.23073">
        <ele>253.5</ele>
        <time>2013-02-03T08:43:50Z</time>
      </trkpt>
      <trkpt lat="43.56986" lon="6.23082">
        <ele>253.699997</ele>
        <time>2013-02-03T08:43:58Z</time>
      </trkpt>
      <trkpt lat="43.56993" lon="6.23087">
        <ele>253.899994</ele>
        <time>2013-02-03T08:44:06Z</time>
      </trkpt>
      <trkpt lat="43.57001" lon="6.23091">
        <ele>255.100006</ele>
        <time>2013-02-03T08:44:18Z</time>
      </trkpt>
      <trkpt lat="43.57002" lon="6.23092">
        <ele>255.100006</ele>
        <time>2013-02-03T08:44:19Z</time>
      </trkpt>
      <trkpt lat="43.57015" lon="6.23102">
        <ele>257.100006</ele>
        <time>2013-02-03T08:44:31Z</time>
      </trkpt>
      <trkpt lat="43.57023" lon="6.23101">
        <ele>259.100006</ele>
        <time>2013-02-03T08:44:42Z</time>
      </trkpt>
      <trkpt lat="43.57031" lon="6.23102">
        <ele>260.600006</ele>
        <time>2013-02-03T08:44:49Z</time>
      </trkpt>
      <trkpt lat="43.57039" lon="6.231">
        <ele>261.399994</ele>
        <time>2013-02-03T08:44:55Z</time>
      </trkpt>
      <trkpt lat="43.57048" lon="6.23097">
        <ele>263</ele>
        <time>2013-02-03T08:45:03Z</time>
      </trkpt>
      <trkpt lat="43.57056" lon="6.23093">
        <ele>264.399994</ele>
        <time>2013-02-03T08:45:12Z</time>
      </trkpt>
      <trkpt lat="43.57064" lon="6.23089">
        <ele>265.5</ele>
        <time>2013-02-03T08:45:20Z</time>
      </trkpt>
      <trkpt lat="43.57065" lon="6.23088">
        <ele>265.700012</ele>
        <time>2013-02-03T08:45:21Z</time>
      </trkpt>
      <trkpt lat="43.5708" lon="6.23085">
        <ele>267.700012</ele>
        <time>2013-02-03T08:45:36Z</time>
      </trkpt>
      <trkpt lat="43.57089" lon="6.23087">
        <ele>269.899994</ele>
        <time>2013-02-03T08:45:47Z</time>
      </trkpt>
      <trkpt lat="43.57097" lon="6.23086">
        <ele>270.899994</ele>
        <time>2013-02-03T08:45:57Z</time>
      </trkpt>
      <trkpt lat="43.57105" lon="6.23085">
        <ele>271.899994</ele>
        <time>2013-02-03T08:46:05Z</time>
      </trkpt>
      <trkpt lat="43.57113" lon="6.23082">
        <ele>272.799988</ele>
        <time>2013-02-03T08:46:12Z</time>
      </trkpt>
      <trkpt lat="43.57122" lon="6.23079">
        <ele>274</ele>
        <time>2013-02-03T08:46:20Z</time>
      </trkpt>
      <trkpt lat="43.57131" lon="6.23079">
        <ele>275.100006</ele>
        <time>2013-02-03T08:46:30Z</time>
      </trkpt>
      <trkpt lat="43.57132" lon="6.23079">
        <ele>275.200012</ele>
        <time>2013-02-03T08:46:31Z</time>
      </trkpt>
      <trkpt lat="43.57146" lon="6.23082">
        <ele>276.100006</ele>
        <time>2013-02-03T08:46:47Z</time>
      </trkpt>
      <trkpt lat="43.57155" lon="6.23086">
        <ele>276.299988</ele>
        <time>2013-02-03T08:46:55Z</time>
      </trkpt>
      <trkpt lat="43.57163" lon="6.23088">
        <ele>276.700012</ele>
        <time>2013-02-03T08:47:04Z</time>
      </trkpt>
      <trkpt lat="43.57172" lon="6.23092">
        <ele>278.100006</ele>
        <time>2013-02-03T08:47:13Z</time>
      </trkpt>
      <trkpt lat="43.57178" lon="6.23098">
        <ele>279.399994</ele>
        <time>2013-02-03T08:47:21Z</time>
      </trkpt>
      <trkpt lat="43.57185" lon="6.23106">
        <ele>280.700012</ele>
        <time>2013-02-03T08:47:30Z</time>
      </trkpt>
      <trkpt lat="43.57191" lon="6.23113">
        <ele>281.299988</ele>
        <time>2013-02-03T08:47:37Z</time>
      </trkpt>
      <trkpt lat="43.57191" lon="6.23115">
        <ele>281.299988</ele>
        <time>2013-02-03T08:47:38Z</time>
      </trkpt>
      <trkpt lat="43.57195" lon="6.23135">
        <ele>279.899994</ele>
        <time>2013-02-03T08:47:54Z</time>
      </trkpt>
      <trkpt lat="43.57197" lon="6.23146">
        <ele>280.600006</ele>
        <time>2013-02-03T08:48:00Z</time>
      </trkpt>
      <trkpt lat="43.57199" lon="6.23157">
        <ele>279.899994</ele>
        <time>2013-02-03T08:48:07Z</time>
      </trkpt>
      <trkpt lat="43.57204" lon="6.23167">
        <ele>279.200012</ele>
        <time>2013-02-03T08:48:18Z</time>
      </trkpt>
      <trkpt lat="43.5721" lon="6.23175">
        <ele>279.100006</ele>
        <time>2013-02-03T08:48:24Z</time>
      </trkpt>
      <trkpt lat="43.57216" lon="6.23184">
        <ele>278.5</ele>
        <time>2013-02-03T08:48:31Z</time>
      </trkpt>
      <trkpt lat="43.57221" lon="6.23192">
        <ele>279.100006</ele>
        <time>2013-02-03T08:48:36Z</time>
      </trkpt>
      <trkpt lat="43.57229" lon="6.23197">
        <ele>278.799988</ele>
        <time>2013-02-03T08:48:43Z</time>
      </trkpt>
      <trkpt lat="43.5723" lon="6.23198">
        <ele>279</ele>
        <time>2013-02-03T08:48:44Z</time>
      </trkpt>
      <trkpt lat="43.57246" lon="6.23203">
        <ele>280.5</ele>
        <time>2013-02-03T08:49:02Z</time>
      </trkpt>
      <trkpt lat="43.57254" lon="6.23209">
        <ele>281.299988</ele>
        <time>2013-02-03T08:49:08Z</time>
      </trkpt>
      <trkpt lat="43.57261" lon="6.23213">
        <ele>281.899994</ele>
        <time>2013-02-03T08:49:14Z</time>
      </trkpt>
      <trkpt lat="43.57268" lon="6.23218">
        <ele>282.200012</ele>
        <time>2013-02-03T08:49:22Z</time>
      </trkpt>
      <trkpt lat="43.57275" lon="6.23225">
        <ele>282.5</ele>
        <time>2013-02-03T08:50:01Z</time>
      </trkpt>
      <trkpt lat="43.57276" lon="6.23225">
        <ele>282.100006</ele>
        <time>2013-02-03T08:50:02Z</time>
      </trkpt>
      <trkpt lat="43.57275" lon="6.23248">
        <ele>284.600006</ele>
        <time>2013-02-03T08:50:33Z</time>
      </trkpt>
      <trkpt lat="43.57276" lon="6.2326">
        <ele>286.200012</ele>
        <time>2013-02-03T08:50:43Z</time>
      </trkpt>
      <trkpt lat="43.57283" lon="6.23268">
        <ele>287.200012</ele>
        <time>2013-02-03T08:50:51Z</time>
      </trkpt>
      <trkpt lat="43.5729" lon="6.23273">
        <ele>288.399994</ele>
        <time>2013-02-03T08:51:01Z</time>
      </trkpt>
      <trkpt lat="43.57299" lon="6.23277">
        <ele>291.399994</ele>
        <time>2013-02-03T08:51:14Z</time>
      </trkpt>
      <trkpt lat="43.57299" lon="6.23277">
        <ele>291.600006</ele>
        <time>2013-02-03T08:51:15Z</time>
      </trkpt>
      <trkpt lat="43.57316" lon="6.2328">
        <ele>297</ele>
        <time>2013-02-03T08:51:47Z</time>
      </trkpt>
      <trkpt lat="43.57324" lon="6.23286">
        <ele>298.799988</ele>
        <time>2013-02-03T08:51:57Z</time>
      </trkpt>
      <trkpt lat="43.57332" lon="6.23289">
        <ele>301.399994</ele>
        <time>2013-02-03T08:52:08Z</time>
      </trkpt>
      <trkpt lat="43.5734" lon="6.23288">
        <ele>303.299988</ele>
        <time>2013-02-03T08:52:22Z</time>
      </trkpt>
      <trkpt lat="43.57341" lon="6.23288">
        <ele>303.399994</ele>
        <time>2013-02-03T08:52:23Z</time>
      </trkpt>
      <trkpt lat="43.57357" lon="6.2329">
        <ele>308.600006</ele>
        <time>2013-02-03T08:52:54Z</time>
      </trkpt>
      <trkpt lat="43.57366" lon="6.23289">
        <ele>310.899994</ele>
        <time>2013-02-03T08:53:09Z</time>
      </trkpt>
      <trkpt lat="43.57374" lon="6.23286">
        <ele>313.299988</ele>
        <time>2013-02-03T08:53:21Z</time>
      </trkpt>
      <trkpt lat="43.57382" lon="6.23288">
        <ele>316.200012</ele>
        <time>2013-02-03T08:53:35Z</time>
      </trkpt>
      <trkpt lat="43.57383" lon="6.23288">
        <ele>316.299988</ele>
        <time>2013-02-03T08:53:36Z</time>
      </trkpt>
      <trkpt lat="43.57398" lon="6.23279">
        <ele>321.299988</ele>
        <time>2013-02-03T08:54:02Z</time>
      </trkpt>
      <trkpt lat="43.57407" lon="6.2328">
        <ele>324.200012</ele>
        <time>2013-02-03T08:54:16Z</time>
      </trkpt>
      <trkpt lat="43.57415" lon="6.23281">
        <ele>326</ele>
        <time>2013-02-03T08:54:29Z</time>
      </trkpt>
      <trkpt lat="43.57423" lon="6.23279">
        <ele>329</ele>
        <time>2013-02-03T08:54:45Z</time>
      </trkpt>
      <trkpt lat="43.57424" lon="6.23278">
        <ele>329.299988</ele>
        <time>2013-02-03T08:54:46Z</time>
      </trkpt>
      <trkpt lat="43.5744" lon="6.23276">
        <ele>333.100006</ele>
        <time>2013-02-03T08:55:14Z</time>
      </trkpt>
      <trkpt lat="43.57448" lon="6.2327">
        <ele>335</ele>
        <time>2013-02-03T08:55:28Z</time>
      </trkpt>
      <trkpt lat="43.57457" lon="6.23266">
        <ele>337.700012</ele>
        <time>2013-02-03T08:55:42Z</time>
      </trkpt>
      <trkpt lat="43.57465" lon="6.23263">
        <ele>339.200012</ele>
        <time>2013-02-03T08:55:57Z</time>
      </trkpt>
      <trkpt lat="43.57466" lon="6.23263">
        <ele>339.5</ele>
        <time>2013-02-03T08:55:58Z</time>
      </trkpt>
      <trkpt lat="43.57482" lon="6.23256">
        <ele>343.899994</ele>
        <time>2013-02-03T08:56:25Z</time>
      </trkpt>
      <trkpt lat="43.57489" lon="6.23249">
        <ele>345.299988</ele>
        <time>2013-02-03T08:56:37Z</time>
      </trkpt>
      <trkpt lat="43.57496" lon="6.23241">
        <ele>346</ele>
        <time>2013-02-03T08:56:50Z</time>
      </trkpt>
      <trkpt lat="43.57504" lon="6.23236">
        <ele>347.700012</ele>
        <time>2013-02-03T08:57:04Z</time>
      </trkpt>
      <trkpt lat="43.57504" lon="6.23236">
        <ele>348</ele>
        <time>2013-02-03T08:57:05Z</time>
      </trkpt>
      <trkpt lat="43.57519" lon="6.23226">
        <ele>351.899994</ele>
        <time>2013-02-03T08:57:29Z</time>
      </trkpt>
      <trkpt lat="43.57527" lon="6.23222">
        <ele>353.5</ele>
        <time>2013-02-03T08:57:41Z</time>
      </trkpt>
      <trkpt lat="43.57536" lon="6.23222">
        <ele>355.100006</ele>
        <time>2013-02-03T08:57:53Z</time>
      </trkpt>
      <trkpt lat="43.57544" lon="6.2322">
        <ele>355.899994</ele>
        <time>2013-02-03T08:58:04Z</time>
      </trkpt>
      <trkpt lat="43.57552" lon="6.23216">
        <ele>359.5</ele>
        <time>2013-02-03T09:02:27Z</time>
      </trkpt>
      <trkpt lat="43.57553" lon="6.23216">
        <ele>359.600006</ele>
        <time>2013-02-03T09:02:28Z</time>
      </trkpt>
      <trkpt lat="43.57566" lon="6.23202">
        <ele>360.5</ele>
        <time>2013-02-03T09:02:49Z</time>
      </trkpt>
      <trkpt lat="43.5757" lon="6.23191">
        <ele>361.200012</ele>
        <time>2013-02-03T09:02:58Z</time>
      </trkpt>
      <trkpt lat="43.57573" lon="6.2318">
        <ele>363.100006</ele>
        <time>2013-02-03T09:03:09Z</time>
      </trkpt>
      <trkpt lat="43.57574" lon="6.23168">
        <ele>364.399994</ele>
        <time>2013-02-03T09:03:20Z</time>
      </trkpt>
      <trkpt lat="43.57575" lon="6.23156">
        <ele>366.299988</ele>
        <time>2013-02-03T09:03:31Z</time>
      </trkpt>
      <trkpt lat="43.57575" lon="6.23155">
        <ele>366.5</ele>
        <time>2013-02-03T09:03:32Z</time>
      </trkpt>
      <trkpt lat="43.57581" lon="6.23134">
        <ele>369.100006</ele>
        <time>2013-02-03T09:03:53Z</time>
      </trkpt>
      <trkpt lat="43.57583" lon="6.23122">
        <ele>370.299988</ele>
        <time>2013-02-03T09:04:06Z</time>
      </trkpt>
      <trkpt lat="43.57587" lon="6.23112">
        <ele>372.200012</ele>
        <time>2013-02-03T09:04:20Z</time>
      </trkpt>
      <trkpt lat="43.5759" lon="6.231">
        <ele>373.5</ele>
        <time>2013-02-03T09:04:32Z</time>
      </trkpt>
      <trkpt lat="43.57594" lon="6.23089">
        <ele>376.399994</ele>
        <time>2013-02-03T09:04:46Z</time>
      </trkpt>
      <trkpt lat="43.57595" lon="6.23088">
        <ele>376.5</ele>
        <time>2013-02-03T09:04:47Z</time>
      </trkpt>
      <trkpt lat="43.57602" lon="6.23068">
        <ele>378.200012</ele>
        <time>2013-02-03T09:05:07Z</time>
      </trkpt>
      <trkpt lat="43.57605" lon="6.23057">
        <ele>379.5</ele>
        <time>2013-02-03T09:05:20Z</time>
      </trkpt>
      <trkpt lat="43.57609" lon="6.23046">
        <ele>381.600006</ele>
        <time>2013-02-03T09:05:32Z</time>
      </trkpt>
      <trkpt lat="43.57615" lon="6.23037">
        <ele>384.100006</ele>
        <time>2013-02-03T09:05:43Z</time>
      </trkpt>
      <trkpt lat="43.57621" lon="6.2303">
        <ele>385.600006</ele>
        <time>2013-02-03T09:05:52Z</time>
      </trkpt>
      <trkpt lat="43.57622" lon="6.2303">
        <ele>385.600006</ele>
        <time>2013-02-03T09:05:53Z</time>
      </trkpt>
      <trkpt lat="43.57635" lon="6.23018">
        <ele>386.799988</ele>
        <time>2013-02-03T09:06:11Z</time>
      </trkpt>
      <trkpt lat="43.57642" lon="6.23011">
        <ele>388.399994</ele>
        <time>2013-02-03T09:06:22Z</time>
      </trkpt>
      <trkpt lat="43.57648" lon="6.23003">
        <ele>389.399994</ele>
        <time>2013-02-03T09:06:32Z</time>
      </trkpt>
      <trkpt lat="43.57652" lon="6.22993">
        <ele>390.899994</ele>
        <time>2013-02-03T09:06:42Z</time>
      </trkpt>
      <trkpt lat="43.57656" lon="6.22984">
        <ele>391.899994</ele>
        <time>2013-02-03T09:06:53Z</time>
      </trkpt>
      <trkpt lat="43.57661" lon="6.22974">
        <ele>392.299988</ele>
        <time>2013-02-03T09:07:02Z</time>
      </trkpt>
      <trkpt lat="43.57662" lon="6.22973">
        <ele>392.5</ele>
        <time>2013-02-03T09:07:03Z</time>
      </trkpt>
      <trkpt lat="43.57674" lon="6.22958">
        <ele>395.399994</ele>
        <time>2013-02-03T09:07:23Z</time>
      </trkpt>
      <trkpt lat="43.57682" lon="6.22954">
        <ele>397.100006</ele>
        <time>2013-02-03T09:07:37Z</time>
      </trkpt>
      <trkpt lat="43.5769" lon="6.2295">
        <ele>399.899994</ele>
        <time>2013-02-03T09:07:49Z</time>
      </trkpt>
      <trkpt lat="43.57697" lon="6.22943">
        <ele>399</ele>
        <time>2013-02-03T09:07:59Z</time>
      </trkpt>
      <trkpt lat="43.57704" lon="6.22935">
        <ele>400.399994</ele>
        <time>2013-02-03T09:08:08Z</time>
      </trkpt>
      <trkpt lat="43.57704" lon="6.22935">
        <ele>400.299988</ele>
        <time>2013-02-03T09:08:09Z</time>
      </trkpt>
      <trkpt lat="43.57714" lon="6.22917">
        <ele>402.399994</ele>
        <time>2013-02-03T09:08:25Z</time>
      </trkpt>
      <trkpt lat="43.57719" lon="6.22908">
        <ele>402.899994</ele>
        <time>2013-02-03T09:08:33Z</time>
      </trkpt>
      <trkpt lat="43.57727" lon="6.22904">
        <ele>403.899994</ele>
        <time>2013-02-03T09:08:42Z</time>
      </trkpt>
      <trkpt lat="43.57735" lon="6.22901">
        <ele>404.899994</ele>
        <time>2013-02-03T09:08:52Z</time>
      </trkpt>
      <trkpt lat="43.57742" lon="6.22896">
        <ele>405.100006</ele>
        <time>2013-02-03T09:09:08Z</time>
      </trkpt>
      <trkpt lat="43.57743" lon="6.22894">
        <ele>405.299988</ele>
        <time>2013-02-03T09:09:09Z</time>
      </trkpt>
      <trkpt lat="43.57751" lon="6.2289">
        <ele>406.899994</ele>
        <time>2013-02-03T09:12:46Z</time>
      </trkpt>
      <trkpt lat="43.57759" lon="6.22871">
        <ele>404.5</ele>
        <time>2013-02-03T09:13:22Z</time>
      </trkpt>
      <trkpt lat="43.57762" lon="6.2286">
        <ele>405.299988</ele>
        <time>2013-02-03T09:13:35Z</time>
      </trkpt>
      <trkpt lat="43.57766" lon="6.22848">
        <ele>404.299988</ele>
        <time>2013-02-03T09:13:44Z</time>
      </trkpt>
      <trkpt lat="43.57771" lon="6.22839">
        <ele>404.200012</ele>
        <time>2013-02-03T09:13:51Z</time>
      </trkpt>
      <trkpt lat="43.57772" lon="6.22838">
        <ele>404.299988</ele>
        <time>2013-02-03T09:13:52Z</time>
      </trkpt>
      <trkpt lat="43.5778" lon="6.22819">
        <ele>405.399994</ele>
        <time>2013-02-03T09:14:08Z</time>
      </trkpt>
      <trkpt lat="43.57783" lon="6.22808">
        <ele>405</ele>
        <time>2013-02-03T09:14:15Z</time>
      </trkpt>
      <trkpt lat="43.57785" lon="6.22797">
        <ele>404.399994</ele>
        <time>2013-02-03T09:14:23Z</time>
      </trkpt>
      <trkpt lat="43.5779" lon="6.22788">
        <ele>405.399994</ele>
        <time>2013-02-03T09:14:30Z</time>
      </trkpt>
      <trkpt lat="43.57793" lon="6.22777">
        <ele>404.899994</ele>
        <time>2013-02-03T09:14:38Z</time>
      </trkpt>
      <trkpt lat="43.57797" lon="6.22767">
        <ele>404.5</ele>
        <time>2013-02-03T09:14:45Z</time>
      </trkpt>
      <trkpt lat="43.57802" lon="6.22757">
        <ele>404.700012</ele>
        <time>2013-02-03T09:14:54Z</time>
      </trkpt>
      <trkpt lat="43.57803" lon="6.22756">
        <ele>404.700012</ele>
        <time>2013-02-03T09:14:55Z</time>
      </trkpt>
      <trkpt lat="43.57816" lon="6.22743">
        <ele>405.100006</ele>
        <time>2013-02-03T09:15:08Z</time>
      </trkpt>
      <trkpt lat="43.57821" lon="6.22734">
        <ele>405.100006</ele>
        <time>2013-02-03T09:15:17Z</time>
      </trkpt>
      <trkpt lat="43.57826" lon="6.22725">
        <ele>404.899994</ele>
        <time>2013-02-03T09:15:24Z</time>
      </trkpt>
      <trkpt lat="43.5783" lon="6.22715">
        <ele>405.5</ele>
        <time>2013-02-03T09:15:31Z</time>
      </trkpt>
      <trkpt lat="43.57836" lon="6.22706">
        <ele>405.799988</ele>
        <time>2013-02-03T09:15:39Z</time>
      </trkpt>
      <trkpt lat="43.57841" lon="6.22697">
        <ele>406.100006</ele>
        <time>2013-02-03T09:15:46Z</time>
      </trkpt>
      <trkpt lat="43.57847" lon="6.2269">
        <ele>406</ele>
        <time>2013-02-03T09:15:53Z</time>
      </trkpt>
      <trkpt lat="43.57854" lon="6.22685">
        <ele>406.100006</ele>
        <time>2013-02-03T09:16:00Z</time>
      </trkpt>
      <trkpt lat="43.57856" lon="6.22684">
        <ele>406.200012</ele>
        <time>2013-02-03T09:16:01Z</time>
      </trkpt>
      <trkpt lat="43.5787" lon="6.22676">
        <ele>407</ele>
        <time>2013-02-03T09:16:17Z</time>
      </trkpt>
      <trkpt lat="43.57878" lon="6.2267">
        <ele>407.299988</ele>
        <time>2013-02-03T09:16:26Z</time>
      </trkpt>
      <trkpt lat="43.57885" lon="6.22667">
        <ele>407.5</ele>
        <time>2013-02-03T09:16:35Z</time>
      </trkpt>
      <trkpt lat="43.57894" lon="6.22665">
        <ele>407.399994</ele>
        <time>2013-02-03T09:16:44Z</time>
      </trkpt>
      <trkpt lat="43.57902" lon="6.22661">
        <ele>407.799988</ele>
        <time>2013-02-03T09:16:51Z</time>
      </trkpt>
      <trkpt lat="43.57909" lon="6.22657">
        <ele>407.600006</ele>
        <time>2013-02-03T09:16:58Z</time>
      </trkpt>
      <trkpt lat="43.57916" lon="6.22651">
        <ele>407.899994</ele>
        <time>2013-02-03T09:17:07Z</time>
      </trkpt>
      <trkpt lat="43.57917" lon="6.2265">
        <ele>407.899994</ele>
        <time>2013-02-03T09:17:08Z</time>
      </trkpt>
      <trkpt lat="43.5793" lon="6.22641">
        <ele>408.399994</ele>
        <time>2013-02-03T09:17:20Z</time>
      </trkpt>
      <trkpt lat="43.57938" lon="6.22641">
        <ele>409</ele>
        <time>2013-02-03T09:17:27Z</time>
      </trkpt>
      <trkpt lat="43.57947" lon="6.22642">
        <ele>410.100006</ele>
        <time>2013-02-03T09:17:34Z</time>
      </trkpt>
      <trkpt lat="43.57955" lon="6.22644">
        <ele>410.299988</ele>
        <time>2013-02-03T09:17:43Z</time>
      </trkpt>
      <trkpt lat="43.57963" lon="6.22645">
        <ele>410.700012</ele>
        <time>2013-02-03T09:17:51Z</time>
      </trkpt>
      <trkpt lat="43.57971" lon="6.22647">
        <ele>411.700012</ele>
        <time>2013-02-03T09:17:58Z</time>
      </trkpt>
      <trkpt lat="43.5798" lon="6.22649">
        <ele>411.399994</ele>
        <time>2013-02-03T09:18:06Z</time>
      </trkpt>
      <trkpt lat="43.57988" lon="6.22652">
        <ele>411.899994</ele>
        <time>2013-02-03T09:18:14Z</time>
      </trkpt>
      <trkpt lat="43.57989" lon="6.22652">
        <ele>411.799988</ele>
        <time>2013-02-03T09:18:15Z</time>
      </trkpt>
      <trkpt lat="43.58004" lon="6.22655">
        <ele>413.200012</ele>
        <time>2013-02-03T09:18:29Z</time>
      </trkpt>
      <trkpt lat="43.58013" lon="6.22655">
        <ele>413.399994</ele>
        <time>2013-02-03T09:18:36Z</time>
      </trkpt>
      <trkpt lat="43.58021" lon="6.22654">
        <ele>415</ele>
        <time>2013-02-03T09:18:44Z</time>
      </trkpt>
      <trkpt lat="43.58029" lon="6.22657">
        <ele>415.100006</ele>
        <time>2013-02-03T09:18:52Z</time>
      </trkpt>
      <trkpt lat="43.58037" lon="6.22661">
        <ele>414.5</ele>
        <time>2013-02-03T09:19:00Z</time>
      </trkpt>
      <trkpt lat="43.58046" lon="6.22658">
        <ele>414.200012</ele>
        <time>2013-02-03T09:22:49Z</time>
      </trkpt>
      <trkpt lat="43.58046" lon="6.22658">
        <ele>414.100006</ele>
        <time>2013-02-03T09:22:50Z</time>
      </trkpt>
      <trkpt lat="43.58054" lon="6.22665">
        <ele>412.399994</ele>
        <time>2013-02-03T09:24:52Z</time>
      </trkpt>
      <trkpt lat="43.58069" lon="6.22672">
        <ele>413.200012</ele>
        <time>2013-02-03T09:25:11Z</time>
      </trkpt>
      <trkpt lat="43.58077" lon="6.2267">
        <ele>413.899994</ele>
        <time>2013-02-03T09:25:20Z</time>
      </trkpt>
      <trkpt lat="43.58085" lon="6.22673">
        <ele>414.200012</ele>
        <time>2013-02-03T09:25:28Z</time>
      </trkpt>
      <trkpt lat="43.58094" lon="6.22676">
        <ele>414.700012</ele>
        <time>2013-02-03T09:25:37Z</time>
      </trkpt>
      <trkpt lat="43.58101" lon="6.22682">
        <ele>415.700012</ele>
        <time>2013-02-03T09:25:44Z</time>
      </trkpt>
      <trkpt lat="43.58109" lon="6.22686">
        <ele>416</ele>
        <time>2013-02-03T09:25:54Z</time>
      </trkpt>
      <trkpt lat="43.5811" lon="6.22687">
        <ele>416.200012</ele>
        <time>2013-02-03T09:25:55Z</time>
      </trkpt>
      <trkpt lat="43.58126" lon="6.22694">
        <ele>418.899994</ele>
        <time>2013-02-03T09:26:11Z</time>
      </trkpt>
      <trkpt lat="43.58134" lon="6.22693">
        <ele>419.899994</ele>
        <time>2013-02-03T09:26:17Z</time>
      </trkpt>
      <trkpt lat="43.58143" lon="6.22693">
        <ele>420.100006</ele>
        <time>2013-02-03T09:26:26Z</time>
      </trkpt>
      <trkpt lat="43.58151" lon="6.22696">
        <ele>421</ele>
        <time>2013-02-03T09:26:35Z</time>
      </trkpt>
      <trkpt lat="43.58158" lon="6.22704">
        <ele>421</ele>
        <time>2013-02-03T09:26:44Z</time>
      </trkpt>
      <trkpt lat="43.58165" lon="6.2271">
        <ele>422</ele>
        <time>2013-02-03T09:26:54Z</time>
      </trkpt>
      <trkpt lat="43.58172" lon="6.22715">
        <ele>422.299988</ele>
        <time>2013-02-03T09:27:03Z</time>
      </trkpt>
      <trkpt lat="43.58173" lon="6.22716">
        <ele>422.200012</ele>
        <time>2013-02-03T09:27:04Z</time>
      </trkpt>
      <trkpt lat="43.58189" lon="6.2272">
        <ele>422.700012</ele>
        <time>2013-02-03T09:27:19Z</time>
      </trkpt>
      <trkpt lat="43.58197" lon="6.22725">
        <ele>422.100006</ele>
        <time>2013-02-03T09:27:28Z</time>
      </trkpt>
      <trkpt lat="43.58205" lon="6.22729">
        <ele>422.299988</ele>
        <time>2013-02-03T09:27:34Z</time>
      </trkpt>
      <trkpt lat="43.58212" lon="6.22723">
        <ele>422.700012</ele>
        <time>2013-02-03T09:27:43Z</time>
      </trkpt>
      <trkpt lat="43.5822" lon="6.22723">
        <ele>422.399994</ele>
        <time>2013-02-03T09:27:48Z</time>
      </trkpt>
      <trkpt lat="43.58229" lon="6.2272">
        <ele>422.799988</ele>
        <time>2013-02-03T09:27:53Z</time>
      </trkpt>
      <trkpt lat="43.58236" lon="6.22719">
        <ele>423.100006</ele>
        <time>2013-02-03T09:27:58Z</time>
      </trkpt>
      <trkpt lat="43.58243" lon="6.22714">
        <ele>422.100006</ele>
        <time>2013-02-03T09:28:04Z</time>
      </trkpt>
      <trkpt lat="43.58244" lon="6.22714">
        <ele>422.100006</ele>
        <time>2013-02-03T09:28:05Z</time>
      </trkpt>
      <trkpt lat="43.58259" lon="6.22717">
        <ele>420.799988</ele>
        <time>2013-02-03T09:28:32Z</time>
      </trkpt>
      <trkpt lat="43.58267" lon="6.22717">
        <ele>420.700012</ele>
        <time>2013-02-03T09:28:40Z</time>
      </trkpt>
      <trkpt lat="43.58274" lon="6.2272">
        <ele>420.399994</ele>
        <time>2013-02-03T09:28:46Z</time>
      </trkpt>
      <trkpt lat="43.58281" lon="6.22724">
        <ele>419.899994</ele>
        <time>2013-02-03T09:28:53Z</time>
      </trkpt>
      <trkpt lat="43.58289" lon="6.22728">
        <ele>418.899994</ele>
        <time>2013-02-03T09:28:59Z</time>
      </trkpt>
      <trkpt lat="43.58297" lon="6.22728">
        <ele>418.100006</ele>
        <time>2013-02-03T09:29:05Z</time>
      </trkpt>
      <trkpt lat="43.58305" lon="6.22734">
        <ele>417</ele>
        <time>2013-02-03T09:29:13Z</time>
      </trkpt>
      <trkpt lat="43.58305" lon="6.22736">
        <ele>417.100006</ele>
        <time>2013-02-03T09:29:14Z</time>
      </trkpt>
      <trkpt lat="43.5832" lon="6.22741">
        <ele>413.5</ele>
        <time>2013-02-03T09:29:31Z</time>
      </trkpt>
      <trkpt lat="43.58328" lon="6.22745">
        <ele>410.700012</ele>
        <time>2013-02-03T09:29:43Z</time>
      </trkpt>
      <trkpt lat="43.58337" lon="6.22742">
        <ele>407.299988</ele>
        <time>2013-02-03T09:29:59Z</time>
      </trkpt>
      <trkpt lat="43.58343" lon="6.22751">
        <ele>406.5</ele>
        <time>2013-02-03T09:30:16Z</time>
      </trkpt>
      <trkpt lat="43.58343" lon="6.22751">
        <ele>406.5</ele>
        <time>2013-02-03T09:30:17Z</time>
      </trkpt>
      <trkpt lat="43.58336" lon="6.22773">
        <ele>404</ele>
        <time>2013-02-03T09:31:02Z</time>
      </trkpt>
      <trkpt lat="43.58331" lon="6.2278">
        <ele>402.899994</ele>
        <time>2013-02-03T09:31:08Z</time>
      </trkpt>
      <trkpt lat="43.58326" lon="6.22789">
        <ele>401.899994</ele>
        <time>2013-02-03T09:31:16Z</time>
      </trkpt>
      <trkpt lat="43.58319" lon="6.22796">
        <ele>399.100006</ele>
        <time>2013-02-03T09:31:28Z</time>
      </trkpt>
      <trkpt lat="43.58318" lon="6.22797">
        <ele>399.200012</ele>
        <time>2013-02-03T09:31:29Z</time>
      </trkpt>
      <trkpt lat="43.58305" lon="6.22808">
        <ele>397</ele>
        <time>2013-02-03T09:31:46Z</time>
      </trkpt>
      <trkpt lat="43.58298" lon="6.22815">
        <ele>396.600006</ele>
        <time>2013-02-03T09:31:53Z</time>
      </trkpt>
      <trkpt lat="43.5829" lon="6.2282">
        <ele>395.5</ele>
        <time>2013-02-03T09:32:01Z</time>
      </trkpt>
      <trkpt lat="43.58283" lon="6.22826">
        <ele>394.299988</ele>
        <time>2013-02-03T09:32:07Z</time>
      </trkpt>
      <trkpt lat="43.58275" lon="6.22829">
        <ele>392.899994</ele>
        <time>2013-02-03T09:32:15Z</time>
      </trkpt>
      <trkpt lat="43.58268" lon="6.22835">
        <ele>391.5</ele>
        <time>2013-02-03T09:32:22Z</time>
      </trkpt>
      <trkpt lat="43.58263" lon="6.22845">
        <ele>390.200012</ele>
        <time>2013-02-03T09:32:30Z</time>
      </trkpt>
      <trkpt lat="43.58262" lon="6.22845">
        <ele>390.200012</ele>
        <time>2013-02-03T09:32:31Z</time>
      </trkpt>
      <trkpt lat="43.58249" lon="6.22859">
        <ele>387</ele>
        <time>2013-02-03T09:32:49Z</time>
      </trkpt>
      <trkpt lat="43.58243" lon="6.22868">
        <ele>384.899994</ele>
        <time>2013-02-03T09:33:00Z</time>
      </trkpt>
      <trkpt lat="43.58238" lon="6.22877">
        <ele>381.899994</ele>
        <time>2013-02-03T09:33:14Z</time>
      </trkpt>
      <trkpt lat="43.58234" lon="6.22887">
        <ele>380.100006</ele>
        <time>2013-02-03T09:33:22Z</time>
      </trkpt>
      <trkpt lat="43.5823" lon="6.22899">
        <ele>379</ele>
        <time>2013-02-03T09:33:30Z</time>
      </trkpt>
      <trkpt lat="43.58224" lon="6.22907">
        <ele>376.5</ele>
        <time>2013-02-03T09:33:42Z</time>
      </trkpt>
      <trkpt lat="43.58223" lon="6.22909">
        <ele>376.299988</ele>
        <time>2013-02-03T09:33:43Z</time>
      </trkpt>
      <trkpt lat="43.58216" lon="6.22928">
        <ele>373.799988</ele>
        <time>2013-02-03T09:33:55Z</time>
      </trkpt>
      <trkpt lat="43.58211" lon="6.22938">
        <ele>371.799988</ele>
        <time>2013-02-03T09:34:03Z</time>
      </trkpt>
      <trkpt lat="43.58206" lon="6.22948">
        <ele>370.200012</ele>
        <time>2013-02-03T09:34:12Z</time>
      </trkpt>
      <trkpt lat="43.58204" lon="6.2296">
        <ele>369.5</ele>
        <time>2013-02-03T09:34:21Z</time>
      </trkpt>
      <trkpt lat="43.58201" lon="6.22971">
        <ele>367.100006</ele>
        <time>2013-02-03T09:34:32Z</time>
      </trkpt>
      <trkpt lat="43.58196" lon="6.22981">
        <ele>365.399994</ele>
        <time>2013-02-03T09:34:39Z</time>
      </trkpt>
      <trkpt lat="43.58194" lon="6.22992">
        <ele>363.5</ele>
        <time>2013-02-03T09:34:48Z</time>
      </trkpt>
      <trkpt lat="43.58194" lon="6.22994">
        <ele>363.5</ele>
        <time>2013-02-03T09:34:49Z</time>
      </trkpt>
      <trkpt lat="43.58186" lon="6.23013">
        <ele>360.600006</ele>
        <time>2013-02-03T09:35:02Z</time>
      </trkpt>
      <trkpt lat="43.58185" lon="6.23025">
        <ele>359.200012</ele>
        <time>2013-02-03T09:35:09Z</time>
      </trkpt>
      <trkpt lat="43.58185" lon="6.23037">
        <ele>357.299988</ele>
        <time>2013-02-03T09:35:16Z</time>
      </trkpt>
      <trkpt lat="43.58184" lon="6.23049">
        <ele>356.399994</ele>
        <time>2013-02-03T09:35:25Z</time>
      </trkpt>
      <trkpt lat="43.58184" lon="6.23061">
        <ele>354.700012</ele>
        <time>2013-02-03T09:35:33Z</time>
      </trkpt>
      <trkpt lat="43.58182" lon="6.23072">
        <ele>353.5</ele>
        <time>2013-02-03T09:35:40Z</time>
      </trkpt>
      <trkpt lat="43.5818" lon="6.23084">
        <ele>351.5</ele>
        <time>2013-02-03T09:35:51Z</time>
      </trkpt>
      <trkpt lat="43.58181" lon="6.23086">
        <ele>351.399994</ele>
        <time>2013-02-03T09:35:52Z</time>
      </trkpt>
      <trkpt lat="43.5818" lon="6.23107">
        <ele>348.899994</ele>
        <time>2013-02-03T09:36:08Z</time>
      </trkpt>
      <trkpt lat="43.5818" lon="6.2312">
        <ele>348.200012</ele>
        <time>2013-02-03T09:36:14Z</time>
      </trkpt>
      <trkpt lat="43.58182" lon="6.23132">
        <ele>346.600006</ele>
        <time>2013-02-03T09:36:20Z</time>
      </trkpt>
      <trkpt lat="43.58179" lon="6.23143">
        <ele>343.5</ele>
        <time>2013-02-03T09:36:34Z</time>
      </trkpt>
      <trkpt lat="43.58176" lon="6.23155">
        <ele>340.700012</ele>
        <time>2013-02-03T09:36:45Z</time>
      </trkpt>
      <trkpt lat="43.58175" lon="6.23166">
        <ele>339.299988</ele>
        <time>2013-02-03T09:36:53Z</time>
      </trkpt>
      <trkpt lat="43.58175" lon="6.23168">
        <ele>339</ele>
        <time>2013-02-03T09:36:54Z</time>
      </trkpt>
      <trkpt lat="43.58181" lon="6.23189">
        <ele>338.200012</ele>
        <time>2013-02-03T09:37:12Z</time>
      </trkpt>
      <trkpt lat="43.58189" lon="6.23187">
        <ele>337.200012</ele>
        <time>2013-02-03T09:37:23Z</time>
      </trkpt>
      <trkpt lat="43.58197" lon="6.23188">
        <ele>337.200012</ele>
        <time>2013-02-03T09:37:30Z</time>
      </trkpt>
      <trkpt lat="43.58205" lon="6.23192">
        <ele>337.200012</ele>
        <time>2013-02-03T09:37:35Z</time>
      </trkpt>
      <trkpt lat="43.58213" lon="6.23194">
        <ele>337.100006</ele>
        <time>2013-02-03T09:37:39Z</time>
      </trkpt>
      <trkpt lat="43.58222" lon="6.23195">
        <ele>337.100006</ele>
        <time>2013-02-03T09:37:46Z</time>
      </trkpt>
      <trkpt lat="43.5823" lon="6.23195">
        <ele>337.100006</ele>
        <time>2013-02-03T09:37:50Z</time>
      </trkpt>
      <trkpt lat="43.58238" lon="6.23194">
        <ele>337.299988</ele>
        <time>2013-02-03T09:37:55Z</time>
      </trkpt>
      <trkpt lat="43.5824" lon="6.23194">
        <ele>337.100006</ele>
        <time>2013-02-03T09:37:56Z</time>
      </trkpt>
      <trkpt lat="43.58255" lon="6.23196">
        <ele>337.200012</ele>
        <time>2013-02-03T09:38:06Z</time>
      </trkpt>
      <trkpt lat="43.58263" lon="6.23199">
        <ele>337</ele>
        <time>2013-02-03T09:38:12Z</time>
      </trkpt>
      <trkpt lat="43.58272" lon="6.23197">
        <ele>337</ele>
        <time>2013-02-03T09:38:18Z</time>
      </trkpt>
      <trkpt lat="43.5828" lon="6.232">
        <ele>337.5</ele>
        <time>2013-02-03T09:38:26Z</time>
      </trkpt>
      <trkpt lat="43.58288" lon="6.23202">
        <ele>337.299988</ele>
        <time>2013-02-03T09:38:32Z</time>
      </trkpt>
      <trkpt lat="43.58293" lon="6.2321">
        <ele>337.5</ele>
        <time>2013-02-03T09:38:38Z</time>
      </trkpt>
      <trkpt lat="43.583" lon="6.23219">
        <ele>336.799988</ele>
        <time>2013-02-03T09:38:45Z</time>
      </trkpt>
      <trkpt lat="43.58308" lon="6.23224">
        <ele>336.899994</ele>
        <time>2013-02-03T09:38:51Z</time>
      </trkpt>
      <trkpt lat="43.58317" lon="6.23224">
        <ele>336.700012</ele>
        <time>2013-02-03T09:38:59Z</time>
      </trkpt>
      <trkpt lat="43.58317" lon="6.23224">
        <ele>336.799988</ele>
        <time>2013-02-03T09:39:00Z</time>
      </trkpt>
      <trkpt lat="43.58332" lon="6.23227">
        <ele>335.899994</ele>
        <time>2013-02-03T09:39:12Z</time>
      </trkpt>
      <trkpt lat="43.58341" lon="6.23228">
        <ele>335.899994</ele>
        <time>2013-02-03T09:39:20Z</time>
      </trkpt>
      <trkpt lat="43.58347" lon="6.23237">
        <ele>336.399994</ele>
        <time>2013-02-03T09:39:32Z</time>
      </trkpt>
      <trkpt lat="43.58351" lon="6.23248">
        <ele>336.100006</ele>
        <time>2013-02-03T09:39:42Z</time>
      </trkpt>
      <trkpt lat="43.58351" lon="6.23258">
        <ele>336</ele>
        <time>2013-02-03T09:39:49Z</time>
      </trkpt>
      <trkpt lat="43.58359" lon="6.23262">
        <ele>335.799988</ele>
        <time>2013-02-03T09:39:59Z</time>
      </trkpt>
      <trkpt lat="43.58365" lon="6.23271">
        <ele>335.899994</ele>
        <time>2013-02-03T09:40:10Z</time>
      </trkpt>
      <trkpt lat="43.58366" lon="6.23271">
        <ele>335.899994</ele>
        <time>2013-02-03T09:40:11Z</time>
      </trkpt>
      <trkpt lat="43.58378" lon="6.23278">
        <ele>335.799988</ele>
        <time>2013-02-03T09:40:44Z</time>
      </trkpt>
      <trkpt lat="43.58373" lon="6.23287">
        <ele>336.799988</ele>
        <time>2013-02-03T09:41:50Z</time>
      </trkpt>
      <trkpt lat="43.58372" lon="6.23288">
        <ele>337</ele>
        <time>2013-02-03T09:41:51Z</time>
      </trkpt>
      <trkpt lat="43.5838" lon="6.23306">
        <ele>338.5</ele>
        <time>2013-02-03T09:42:18Z</time>
      </trkpt>
      <trkpt lat="43.58386" lon="6.23315">
        <ele>338.299988</ele>
        <time>2013-02-03T09:42:23Z</time>
      </trkpt>
      <trkpt lat="43.58394" lon="6.23317">
        <ele>338.299988</ele>
        <time>2013-02-03T09:42:31Z</time>
      </trkpt>
      <trkpt lat="43.58402" lon="6.23317">
        <ele>338.299988</ele>
        <time>2013-02-03T09:42:36Z</time>
      </trkpt>
      <trkpt lat="43.5841" lon="6.23319">
        <ele>337.899994</ele>
        <time>2013-02-03T09:42:41Z</time>
      </trkpt>
      <trkpt lat="43.58418" lon="6.23316">
        <ele>337.899994</ele>
        <time>2013-02-03T09:42:47Z</time>
      </trkpt>
      <trkpt lat="43.58426" lon="6.23311">
        <ele>337.700012</ele>
        <time>2013-02-03T09:42:54Z</time>
      </trkpt>
      <trkpt lat="43.58428" lon="6.23311">
        <ele>337.399994</ele>
        <time>2013-02-03T09:42:55Z</time>
      </trkpt>
      <trkpt lat="43.58443" lon="6.23307">
        <ele>339.200012</ele>
        <time>2013-02-03T09:43:06Z</time>
      </trkpt>
      <trkpt lat="43.58448" lon="6.23298">
        <ele>339.600006</ele>
        <time>2013-02-03T09:43:12Z</time>
      </trkpt>
      <trkpt lat="43.58452" lon="6.23287">
        <ele>339.700012</ele>
        <time>2013-02-03T09:43:16Z</time>
      </trkpt>
      <trkpt lat="43.5846" lon="6.23284">
        <ele>339.399994</ele>
        <time>2013-02-03T09:43:24Z</time>
      </trkpt>
      <trkpt lat="43.58468" lon="6.23278">
        <ele>339.100006</ele>
        <time>2013-02-03T09:43:49Z</time>
      </trkpt>
      <trkpt lat="43.58474" lon="6.23287">
        <ele>339.600006</ele>
        <time>2013-02-03T09:44:03Z</time>
      </trkpt>
      <trkpt lat="43.58474" lon="6.23288">
        <ele>339.700012</ele>
        <time>2013-02-03T09:44:04Z</time>
      </trkpt>
      <trkpt lat="43.58488" lon="6.23281">
        <ele>340.899994</ele>
        <time>2013-02-03T09:45:10Z</time>
      </trkpt>
      <trkpt lat="43.58489" lon="6.23281">
        <ele>340.700012</ele>
        <time>2013-02-03T09:45:11Z</time>
      </trkpt>
      <trkpt lat="43.58504" lon="6.23274">
        <ele>340.5</ele>
        <time>2013-02-03T09:45:31Z</time>
      </trkpt>
      <trkpt lat="43.58512" lon="6.23269">
        <ele>340.399994</ele>
        <time>2013-02-03T09:45:42Z</time>
      </trkpt>
      <trkpt lat="43.58508" lon="6.23258">
        <ele>341</ele>
        <time>2013-02-03T09:45:51Z</time>
      </trkpt>
      <trkpt lat="43.58501" lon="6.23251">
        <ele>340.700012</ele>
        <time>2013-02-03T09:46:12Z</time>
      </trkpt>
      <trkpt lat="43.58501" lon="6.2325">
        <ele>340.799988</ele>
        <time>2013-02-03T09:46:13Z</time>
      </trkpt>
      <trkpt lat="43.58498" lon="6.23227">
        <ele>341.299988</ele>
        <time>2013-02-03T09:47:08Z</time>
      </trkpt>
      <trkpt lat="43.58507" lon="6.23227">
        <ele>341.200012</ele>
        <time>2013-02-03T09:48:18Z</time>
      </trkpt>
      <trkpt lat="43.58507" lon="6.23225">
        <ele>341.100006</ele>
        <time>2013-02-03T09:48:19Z</time>
      </trkpt>
      <trkpt lat="43.58508" lon="6.23203">
        <ele>350.700012</ele>
        <time>2013-02-03T09:49:27Z</time>
      </trkpt>
      <trkpt lat="43.58507" lon="6.23202">
        <ele>350.399994</ele>
        <time>2013-02-03T09:49:28Z</time>
      </trkpt>
      <trkpt lat="43.58521" lon="6.23211">
        <ele>349.700012</ele>
        <time>2013-02-03T09:50:04Z</time>
      </trkpt>
      <trkpt lat="43.58528" lon="6.23219">
        <ele>349.700012</ele>
        <time>2013-02-03T09:50:25Z</time>
      </trkpt>
      <trkpt lat="43.58533" lon="6.2321">
        <ele>349.299988</ele>
        <time>2013-02-03T09:50:41Z</time>
      </trkpt>
      <trkpt lat="43.58533" lon="6.23209">
        <ele>349.399994</ele>
        <time>2013-02-03T09:50:42Z</time>
      </trkpt>
      <trkpt lat="43.58525" lon="6.23203">
        <ele>347.700012</ele>
        <time>2013-02-03T09:53:02Z</time>
      </trkpt>
      <trkpt lat="43.58518" lon="6.23196">
        <ele>347.299988</ele>
        <time>2013-02-03T09:55:13Z</time>
      </trkpt>
      <trkpt lat="43.58515" lon="6.23175">
        <ele>343.299988</ele>
        <time>2013-02-03T09:55:58Z</time>
      </trkpt>
      <trkpt lat="43.58507" lon="6.2318">
        <ele>340.899994</ele>
        <time>2013-02-03T09:56:14Z</time>
      </trkpt>
      <trkpt lat="43.58507" lon="6.23181">
        <ele>340.5</ele>
        <time>2013-02-03T09:56:15Z</time>
      </trkpt>
      <trkpt lat="43.58496" lon="6.23198">
        <ele>339.200012</ele>
        <time>2013-02-03T09:56:39Z</time>
      </trkpt>
      <trkpt lat="43.58495" lon="6.23209">
        <ele>339.5</ele>
        <time>2013-02-03T09:56:49Z</time>
      </trkpt>
      <trkpt lat="43.58498" lon="6.2322">
        <ele>339.100006</ele>
        <time>2013-02-03T09:56:57Z</time>
      </trkpt>
      <trkpt lat="43.58504" lon="6.23228">
        <ele>339</ele>
        <time>2013-02-03T09:57:03Z</time>
      </trkpt>
      <trkpt lat="43.58508" lon="6.23237">
        <ele>339</ele>
        <time>2013-02-03T09:57:13Z</time>
      </trkpt>
      <trkpt lat="43.58512" lon="6.23248">
        <ele>338.5</ele>
        <time>2013-02-03T09:57:20Z</time>
      </trkpt>
      <trkpt lat="43.58512" lon="6.23249">
        <ele>338.299988</ele>
        <time>2013-02-03T09:57:21Z</time>
      </trkpt>
      <trkpt lat="43.58523" lon="6.23266">
        <ele>338.700012</ele>
        <time>2013-02-03T09:57:29Z</time>
      </trkpt>
      <trkpt lat="43.58529" lon="6.23273">
        <ele>338.700012</ele>
        <time>2013-02-03T09:57:34Z</time>
      </trkpt>
      <trkpt lat="43.58536" lon="6.23278">
        <ele>338.5</ele>
        <time>2013-02-03T09:57:38Z</time>
      </trkpt>
      <trkpt lat="43.58544" lon="6.2328">
        <ele>338.600006</ele>
        <time>2013-02-03T09:57:44Z</time>
      </trkpt>
      <trkpt lat="43.58553" lon="6.23282">
        <ele>339</ele>
        <time>2013-02-03T09:57:51Z</time>
      </trkpt>
      <trkpt lat="43.58562" lon="6.23283">
        <ele>338.5</ele>
        <time>2013-02-03T09:58:04Z</time>
      </trkpt>
      <trkpt lat="43.5857" lon="6.23283">
        <ele>338.799988</ele>
        <time>2013-02-03T09:58:10Z</time>
      </trkpt>
      <trkpt lat="43.58576" lon="6.23274">
        <ele>337.600006</ele>
        <time>2013-02-03T09:58:20Z</time>
      </trkpt>
      <trkpt lat="43.58573" lon="6.23263">
        <ele>338.299988</ele>
        <time>2013-02-03T09:58:33Z</time>
      </trkpt>
      <trkpt lat="43.58573" lon="6.23262">
        <ele>338.299988</ele>
        <time>2013-02-03T09:58:34Z</time>
      </trkpt>
      <trkpt lat="43.58588" lon="6.23258">
        <ele>338.899994</ele>
        <time>2013-02-03T09:58:56Z</time>
      </trkpt>
      <trkpt lat="43.58597" lon="6.23261">
        <ele>338.700012</ele>
        <time>2013-02-03T09:59:15Z</time>
      </trkpt>
      <trkpt lat="43.58591" lon="6.23252">
        <ele>338.399994</ele>
        <time>2013-02-03T09:59:31Z</time>
      </trkpt>
      <trkpt lat="43.58592" lon="6.2324">
        <ele>338.899994</ele>
        <time>2013-02-03T09:59:47Z</time>
      </trkpt>
      <trkpt lat="43.58592" lon="6.23239">
        <ele>338.899994</ele>
        <time>2013-02-03T09:59:48Z</time>
      </trkpt>
      <trkpt lat="43.58608" lon="6.2324">
        <ele>338.799988</ele>
        <time>2013-02-03T10:00:07Z</time>
      </trkpt>
      <trkpt lat="43.58617" lon="6.23241">
        <ele>338.700012</ele>
        <time>2013-02-03T10:02:09Z</time>
      </trkpt>
      <trkpt lat="43.58617" lon="6.23241">
        <ele>338.600006</ele>
        <time>2013-02-03T10:02:10Z</time>
      </trkpt>
      <trkpt lat="43.58613" lon="6.23248">
        <ele>337.899994</ele>
        <time>2013-02-03T10:03:27Z</time>
      </trkpt>
      <trkpt lat="43.58614" lon="6.2325">
        <ele>337.899994</ele>
        <time>2013-02-03T10:03:28Z</time>
      </trkpt>
      <trkpt lat="43.58627" lon="6.2326">
        <ele>338.100006</ele>
        <time>2013-02-03T10:03:44Z</time>
      </trkpt>
      <trkpt lat="43.58635" lon="6.23255">
        <ele>338.100006</ele>
        <time>2013-02-03T10:03:52Z</time>
      </trkpt>
      <trkpt lat="43.58643" lon="6.23258">
        <ele>337.899994</ele>
        <time>2013-02-03T10:03:57Z</time>
      </trkpt>
      <trkpt lat="43.58651" lon="6.2326">
        <ele>337.899994</ele>
        <time>2013-02-03T10:04:02Z</time>
      </trkpt>
      <trkpt lat="43.58659" lon="6.23256">
        <ele>338.100006</ele>
        <time>2013-02-03T10:04:10Z</time>
      </trkpt>
      <trkpt lat="43.58666" lon="6.23254">
        <ele>338</ele>
        <time>2013-02-03T10:04:16Z</time>
      </trkpt>
      <trkpt lat="43.58675" lon="6.23254">
        <ele>338.200012</ele>
        <time>2013-02-03T10:04:20Z</time>
      </trkpt>
      <trkpt lat="43.58683" lon="6.23256">
        <ele>338.600006</ele>
        <time>2013-02-03T10:04:28Z</time>
      </trkpt>
      <trkpt lat="43.58684" lon="6.23255">
        <ele>338.700012</ele>
        <time>2013-02-03T10:04:29Z</time>
      </trkpt>
      <trkpt lat="43.58698" lon="6.23245">
        <ele>337.899994</ele>
        <time>2013-02-03T10:04:49Z</time>
      </trkpt>
      <trkpt lat="43.58705" lon="6.23238">
        <ele>337.899994</ele>
        <time>2013-02-03T10:04:54Z</time>
      </trkpt>
      <trkpt lat="43.58714" lon="6.23238">
        <ele>338.100006</ele>
        <time>2013-02-03T10:05:03Z</time>
      </trkpt>
      <trkpt lat="43.58722" lon="6.23239">
        <ele>337.799988</ele>
        <time>2013-02-03T10:05:13Z</time>
      </trkpt>
      <trkpt lat="43.5873" lon="6.23244">
        <ele>338.200012</ele>
        <time>2013-02-03T10:05:20Z</time>
      </trkpt>
      <trkpt lat="43.58738" lon="6.2325">
        <ele>338.799988</ele>
        <time>2013-02-03T10:05:27Z</time>
      </trkpt>
      <trkpt lat="43.58745" lon="6.23245">
        <ele>339.299988</ele>
        <time>2013-02-03T10:05:33Z</time>
      </trkpt>
      <trkpt lat="43.58746" lon="6.23245">
        <ele>339.100006</ele>
        <time>2013-02-03T10:05:34Z</time>
      </trkpt>
      <trkpt lat="43.58759" lon="6.23231">
        <ele>340.200012</ele>
        <time>2013-02-03T10:05:54Z</time>
      </trkpt>
      <trkpt lat="43.58767" lon="6.23237">
        <ele>339.899994</ele>
        <time>2013-02-03T10:05:58Z</time>
      </trkpt>
      <trkpt lat="43.58775" lon="6.23239">
        <ele>339.5</ele>
        <time>2013-02-03T10:06:03Z</time>
      </trkpt>
      <trkpt lat="43.58783" lon="6.23243">
        <ele>338.799988</ele>
        <time>2013-02-03T10:06:12Z</time>
      </trkpt>
      <trkpt lat="43.58783" lon="6.23255">
        <ele>341.100006</ele>
        <time>2013-02-03T10:06:39Z</time>
      </trkpt>
      <trkpt lat="43.58783" lon="6.23257">
        <ele>341.200012</ele>
        <time>2013-02-03T10:06:40Z</time>
      </trkpt>
      <trkpt lat="43.58784" lon="6.23277">
        <ele>341</ele>
        <time>2013-02-03T10:06:52Z</time>
      </trkpt>
      <trkpt lat="43.58785" lon="6.2329">
        <ele>341.5</ele>
        <time>2013-02-03T10:06:59Z</time>
      </trkpt>
      <trkpt lat="43.58786" lon="6.23302">
        <ele>341.299988</ele>
        <time>2013-02-03T10:07:12Z</time>
      </trkpt>
      <trkpt lat="43.58793" lon="6.23309">
        <ele>341.200012</ele>
        <time>2013-02-03T10:07:36Z</time>
      </trkpt>
      <trkpt lat="43.58785" lon="6.23316">
        <ele>341.799988</ele>
        <time>2013-02-03T10:07:59Z</time>
      </trkpt>
      <trkpt lat="43.58784" lon="6.23317">
        <ele>341.700012</ele>
        <time>2013-02-03T10:08:00Z</time>
      </trkpt>
      <trkpt lat="43.58773" lon="6.23333">
        <ele>341.799988</ele>
        <time>2013-02-03T10:08:24Z</time>
      </trkpt>
      <trkpt lat="43.58768" lon="6.2334">
        <ele>341.399994</ele>
        <time>2013-02-03T10:08:33Z</time>
      </trkpt>
      <trkpt lat="43.58761" lon="6.23346">
        <ele>341.200012</ele>
        <time>2013-02-03T10:08:39Z</time>
      </trkpt>
      <trkpt lat="43.58755" lon="6.23355">
        <ele>341.399994</ele>
        <time>2013-02-03T10:08:46Z</time>
      </trkpt>
      <trkpt lat="43.58754" lon="6.23365">
        <ele>341</ele>
        <time>2013-02-03T10:08:51Z</time>
      </trkpt>
      <trkpt lat="43.58756" lon="6.23376">
        <ele>341.399994</ele>
        <time>2013-02-03T10:08:55Z</time>
      </trkpt>
      <trkpt lat="43.58759" lon="6.23384">
        <ele>340.899994</ele>
        <time>2013-02-03T10:08:58Z</time>
      </trkpt>
      <trkpt lat="43.58761" lon="6.23395">
        <ele>340.899994</ele>
        <time>2013-02-03T10:09:02Z</time>
      </trkpt>
      <trkpt lat="43.58762" lon="6.23399">
        <ele>340.799988</ele>
        <time>2013-02-03T10:09:03Z</time>
      </trkpt>
      <trkpt lat="43.58766" lon="6.23417">
        <ele>341.399994</ele>
        <time>2013-02-03T10:09:12Z</time>
      </trkpt>
      <trkpt lat="43.58769" lon="6.23429">
        <ele>341.600006</ele>
        <time>2013-02-03T10:09:20Z</time>
      </trkpt>
      <trkpt lat="43.58774" lon="6.23438">
        <ele>341.700012</ele>
        <time>2013-02-03T10:09:34Z</time>
      </trkpt>
      <trkpt lat="43.58783" lon="6.23437">
        <ele>341.700012</ele>
        <time>2013-02-03T10:09:39Z</time>
      </trkpt>
      <trkpt lat="43.58791" lon="6.23438">
        <ele>341.200012</ele>
        <time>2013-02-03T10:09:46Z</time>
      </trkpt>
      <trkpt lat="43.58799" lon="6.23438">
        <ele>342</ele>
        <time>2013-02-03T10:09:52Z</time>
      </trkpt>
      <trkpt lat="43.58807" lon="6.23437">
        <ele>342.299988</ele>
        <time>2013-02-03T10:09:56Z</time>
      </trkpt>
      <trkpt lat="43.58816" lon="6.23439">
        <ele>341.600006</ele>
        <time>2013-02-03T10:10:00Z</time>
      </trkpt>
      <trkpt lat="43.58825" lon="6.23436">
        <ele>341.700012</ele>
        <time>2013-02-03T10:10:07Z</time>
      </trkpt>
      <trkpt lat="43.58826" lon="6.23435">
        <ele>341.600006</ele>
        <time>2013-02-03T10:10:08Z</time>
      </trkpt>
      <trkpt lat="43.58822" lon="6.23414">
        <ele>341.700012</ele>
        <time>2013-02-03T10:10:28Z</time>
      </trkpt>
      <trkpt lat="43.58815" lon="6.23403">
        <ele>341</ele>
        <time>2013-02-03T10:10:37Z</time>
      </trkpt>
      <trkpt lat="43.58824" lon="6.234">
        <ele>342.899994</ele>
        <time>2013-02-03T10:11:26Z</time>
      </trkpt>
      <trkpt lat="43.58825" lon="6.23401">
        <ele>342.799988</ele>
        <time>2013-02-03T10:11:27Z</time>
      </trkpt>
      <trkpt lat="43.58839" lon="6.2341">
        <ele>343.299988</ele>
        <time>2013-02-03T10:11:45Z</time>
      </trkpt>
      <trkpt lat="43.58847" lon="6.23404">
        <ele>343.799988</ele>
        <time>2013-02-03T10:11:55Z</time>
      </trkpt>
      <trkpt lat="43.58856" lon="6.23401">
        <ele>342</ele>
        <time>2013-02-03T10:12:15Z</time>
      </trkpt>
      <trkpt lat="43.58848" lon="6.23406">
        <ele>343.399994</ele>
        <time>2013-02-03T10:12:52Z</time>
      </trkpt>
      <trkpt lat="43.58847" lon="6.23407">
        <ele>343.5</ele>
        <time>2013-02-03T10:12:53Z</time>
      </trkpt>
      <trkpt lat="43.58831" lon="6.23422">
        <ele>342.299988</ele>
        <time>2013-02-03T10:13:10Z</time>
      </trkpt>
      <trkpt lat="43.58824" lon="6.2343">
        <ele>342.200012</ele>
        <time>2013-02-03T10:13:23Z</time>
      </trkpt>
      <trkpt lat="43.58828" lon="6.23439">
        <ele>343.200012</ele>
        <time>2013-02-03T10:13:30Z</time>
      </trkpt>
      <trkpt lat="43.58819" lon="6.23442">
        <ele>343.100006</ele>
        <time>2013-02-03T10:13:42Z</time>
      </trkpt>
      <trkpt lat="43.58812" lon="6.23442">
        <ele>342.600006</ele>
        <time>2013-02-03T10:13:46Z</time>
      </trkpt>
      <trkpt lat="43.58804" lon="6.23438">
        <ele>343.299988</ele>
        <time>2013-02-03T10:13:50Z</time>
      </trkpt>
      <trkpt lat="43.58796" lon="6.2344">
        <ele>343.899994</ele>
        <time>2013-02-03T10:13:56Z</time>
      </trkpt>
      <trkpt lat="43.58795" lon="6.23443">
        <ele>344</ele>
        <time>2013-02-03T10:13:57Z</time>
      </trkpt>
      <trkpt lat="43.58781" lon="6.23451">
        <ele>341.399994</ele>
        <time>2013-02-03T10:14:18Z</time>
      </trkpt>
      <trkpt lat="43.58772" lon="6.23451">
        <ele>349.700012</ele>
        <time>2013-02-03T10:15:37Z</time>
      </trkpt>
      <trkpt lat="43.58769" lon="6.23448">
        <ele>349.399994</ele>
        <time>2013-02-03T10:15:38Z</time>
      </trkpt>
      <trkpt lat="43.58782" lon="6.23463">
        <ele>350.299988</ele>
        <time>2013-02-03T10:16:28Z</time>
      </trkpt>
      <trkpt lat="43.58775" lon="6.2347">
        <ele>354.700012</ele>
        <time>2013-02-03T10:17:18Z</time>
      </trkpt>
      <trkpt lat="43.58776" lon="6.23471">
        <ele>354.899994</ele>
        <time>2013-02-03T10:17:19Z</time>
      </trkpt>
      <trkpt lat="43.58782" lon="6.23479">
        <ele>357</ele>
        <time>2013-02-03T10:18:50Z</time>
      </trkpt>
      <trkpt lat="43.58789" lon="6.23486">
        <ele>356.100006</ele>
        <time>2013-02-03T10:21:16Z</time>
      </trkpt>
      <trkpt lat="43.58773" lon="6.23477">
        <ele>362.799988</ele>
        <time>2013-02-03T10:22:11Z</time>
      </trkpt>
      <trkpt lat="43.58773" lon="6.23489">
        <ele>366.299988</ele>
        <time>2013-02-03T10:22:47Z</time>
      </trkpt>
      <trkpt lat="43.58773" lon="6.2349">
        <ele>366.5</ele>
        <time>2013-02-03T10:22:48Z</time>
      </trkpt>
      <trkpt lat="43.58759" lon="6.23498">
        <ele>368.899994</ele>
        <time>2013-02-03T10:23:26Z</time>
      </trkpt>
      <trkpt lat="43.5875" lon="6.235">
        <ele>369.600006</ele>
        <time>2013-02-03T10:23:39Z</time>
      </trkpt>
      <trkpt lat="43.58752" lon="6.23512">
        <ele>373.899994</ele>
        <time>2013-02-03T10:24:06Z</time>
      </trkpt>
      <trkpt lat="43.58752" lon="6.23512">
        <ele>374.200012</ele>
        <time>2013-02-03T10:24:07Z</time>
      </trkpt>
      <trkpt lat="43.58745" lon="6.23526">
        <ele>379.5</ele>
        <time>2013-02-03T10:25:07Z</time>
      </trkpt>
      <trkpt lat="43.58739" lon="6.23533">
        <ele>379.799988</ele>
        <time>2013-02-03T10:26:12Z</time>
      </trkpt>
      <trkpt lat="43.58737" lon="6.23532">
        <ele>379.700012</ele>
        <time>2013-02-03T10:26:13Z</time>
      </trkpt>
      <trkpt lat="43.58723" lon="6.23538">
        <ele>381.100006</ele>
        <time>2013-02-03T10:26:33Z</time>
      </trkpt>
      <trkpt lat="43.58717" lon="6.23546">
        <ele>383</ele>
        <time>2013-02-03T10:26:45Z</time>
      </trkpt>
      <trkpt lat="43.58715" lon="6.23556">
        <ele>384.200012</ele>
        <time>2013-02-03T10:26:56Z</time>
      </trkpt>
      <trkpt lat="43.58716" lon="6.23568">
        <ele>385.799988</ele>
        <time>2013-02-03T10:27:09Z</time>
      </trkpt>
      <trkpt lat="43.58716" lon="6.23579">
        <ele>388.299988</ele>
        <time>2013-02-03T10:27:25Z</time>
      </trkpt>
      <trkpt lat="43.58717" lon="6.2358">
        <ele>388.5</ele>
        <time>2013-02-03T10:27:26Z</time>
      </trkpt>
      <trkpt lat="43.58718" lon="6.23603">
        <ele>392</ele>
        <time>2013-02-03T10:27:44Z</time>
      </trkpt>
      <trkpt lat="43.5872" lon="6.23614">
        <ele>394.700012</ele>
        <time>2013-02-03T10:28:03Z</time>
      </trkpt>
      <trkpt lat="43.5872" lon="6.23626">
        <ele>396.5</ele>
        <time>2013-02-03T10:28:17Z</time>
      </trkpt>
      <trkpt lat="43.58719" lon="6.23638">
        <ele>398.100006</ele>
        <time>2013-02-03T10:28:29Z</time>
      </trkpt>
      <trkpt lat="43.58719" lon="6.23639">
        <ele>398.200012</ele>
        <time>2013-02-03T10:28:30Z</time>
      </trkpt>
      <trkpt lat="43.58722" lon="6.2366">
        <ele>402.200012</ele>
        <time>2013-02-03T10:28:55Z</time>
      </trkpt>
      <trkpt lat="43.58724" lon="6.2367">
        <ele>402.600006</ele>
        <time>2013-02-03T10:29:03Z</time>
      </trkpt>
      <trkpt lat="43.58725" lon="6.23683">
        <ele>403.700012</ele>
        <time>2013-02-03T10:29:11Z</time>
      </trkpt>
      <trkpt lat="43.58726" lon="6.23694">
        <ele>404.700012</ele>
        <time>2013-02-03T10:29:24Z</time>
      </trkpt>
      <trkpt lat="43.58731" lon="6.23703">
        <ele>406.5</ele>
        <time>2013-02-03T10:29:35Z</time>
      </trkpt>
      <trkpt lat="43.58732" lon="6.23704">
        <ele>406.600006</ele>
        <time>2013-02-03T10:29:36Z</time>
      </trkpt>
      <trkpt lat="43.58742" lon="6.2372">
        <ele>403.299988</ele>
        <time>2013-02-03T10:32:51Z</time>
      </trkpt>
      <trkpt lat="43.58743" lon="6.2372">
        <ele>403.299988</ele>
        <time>2013-02-03T10:32:52Z</time>
      </trkpt>
      <trkpt lat="43.58746" lon="6.23732">
        <ele>404.200012</ele>
        <time>2013-02-03T10:34:36Z</time>
      </trkpt>
      <trkpt lat="43.58744" lon="6.23754">
        <ele>406.200012</ele>
        <time>2013-02-03T10:35:03Z</time>
      </trkpt>
      <trkpt lat="43.58743" lon="6.23766">
        <ele>406.100006</ele>
        <time>2013-02-03T10:35:16Z</time>
      </trkpt>
      <trkpt lat="43.5874" lon="6.23778">
        <ele>406.899994</ele>
        <time>2013-02-03T10:35:24Z</time>
      </trkpt>
      <trkpt lat="43.5874" lon="6.23789">
        <ele>407.799988</ele>
        <time>2013-02-03T10:35:31Z</time>
      </trkpt>
      <trkpt lat="43.58738" lon="6.23801">
        <ele>409.200012</ele>
        <time>2013-02-03T10:35:40Z</time>
      </trkpt>
      <trkpt lat="43.58738" lon="6.23803">
        <ele>409.299988</ele>
        <time>2013-02-03T10:35:41Z</time>
      </trkpt>
      <trkpt lat="43.58732" lon="6.23823">
        <ele>409.600006</ele>
        <time>2013-02-03T10:35:57Z</time>
      </trkpt>
      <trkpt lat="43.58733" lon="6.23835">
        <ele>410</ele>
        <time>2013-02-03T10:36:04Z</time>
      </trkpt>
      <trkpt lat="43.58733" lon="6.23846">
        <ele>410.5</ele>
        <time>2013-02-03T10:36:13Z</time>
      </trkpt>
      <trkpt lat="43.58729" lon="6.23855">
        <ele>411.700012</ele>
        <time>2013-02-03T10:36:25Z</time>
      </trkpt>
      <trkpt lat="43.58724" lon="6.23865">
        <ele>411.799988</ele>
        <time>2013-02-03T10:36:32Z</time>
      </trkpt>
      <trkpt lat="43.58721" lon="6.23875">
        <ele>411.799988</ele>
        <time>2013-02-03T10:36:38Z</time>
      </trkpt>
      <trkpt lat="43.58723" lon="6.23887">
        <ele>412.100006</ele>
        <time>2013-02-03T10:36:44Z</time>
      </trkpt>
      <trkpt lat="43.58723" lon="6.23888">
        <ele>412.299988</ele>
        <time>2013-02-03T10:36:45Z</time>
      </trkpt>
      <trkpt lat="43.58731" lon="6.23906">
        <ele>412.5</ele>
        <time>2013-02-03T10:36:56Z</time>
      </trkpt>
      <trkpt lat="43.58734" lon="6.23917">
        <ele>412.399994</ele>
        <time>2013-02-03T10:37:04Z</time>
      </trkpt>
      <trkpt lat="43.58738" lon="6.23927">
        <ele>412.799988</ele>
        <time>2013-02-03T10:37:12Z</time>
      </trkpt>
      <trkpt lat="43.58743" lon="6.23936">
        <ele>413.100006</ele>
        <time>2013-02-03T10:37:18Z</time>
      </trkpt>
      <trkpt lat="43.58751" lon="6.23938">
        <ele>413.200012</ele>
        <time>2013-02-03T10:37:28Z</time>
      </trkpt>
      <trkpt lat="43.58757" lon="6.23947">
        <ele>413.100006</ele>
        <time>2013-02-03T10:37:37Z</time>
      </trkpt>
      <trkpt lat="43.58761" lon="6.23958">
        <ele>412.799988</ele>
        <time>2013-02-03T10:37:45Z</time>
      </trkpt>
      <trkpt lat="43.58764" lon="6.23969">
        <ele>411.600006</ele>
        <time>2013-02-03T10:37:52Z</time>
      </trkpt>
      <trkpt lat="43.58765" lon="6.23971">
        <ele>411.700012</ele>
        <time>2013-02-03T10:37:53Z</time>
      </trkpt>
      <trkpt lat="43.58774" lon="6.23987">
        <ele>411.200012</ele>
        <time>2013-02-03T10:38:05Z</time>
      </trkpt>
      <trkpt lat="43.5878" lon="6.23995">
        <ele>410.200012</ele>
        <time>2013-02-03T10:38:13Z</time>
      </trkpt>
      <trkpt lat="43.58784" lon="6.24006">
        <ele>408.5</ele>
        <time>2013-02-03T10:38:23Z</time>
      </trkpt>
      <trkpt lat="43.58787" lon="6.24017">
        <ele>408.299988</ele>
        <time>2013-02-03T10:38:30Z</time>
      </trkpt>
      <trkpt lat="43.58789" lon="6.24029">
        <ele>407.200012</ele>
        <time>2013-02-03T10:38:53Z</time>
      </trkpt>
      <trkpt lat="43.58789" lon="6.2403">
        <ele>407.600006</ele>
        <time>2013-02-03T10:38:54Z</time>
      </trkpt>
      <trkpt lat="43.58785" lon="6.24053">
        <ele>408.299988</ele>
        <time>2013-02-03T10:39:09Z</time>
      </trkpt>
      <trkpt lat="43.58783" lon="6.24063">
        <ele>407.799988</ele>
        <time>2013-02-03T10:39:18Z</time>
      </trkpt>
      <trkpt lat="43.58785" lon="6.24075">
        <ele>408.399994</ele>
        <time>2013-02-03T10:39:25Z</time>
      </trkpt>
      <trkpt lat="43.58784" lon="6.24088">
        <ele>408.799988</ele>
        <time>2013-02-03T10:39:30Z</time>
      </trkpt>
      <trkpt lat="43.58783" lon="6.241">
        <ele>407.899994</ele>
        <time>2013-02-03T10:39:42Z</time>
      </trkpt>
      <trkpt lat="43.58776" lon="6.24108">
        <ele>409.100006</ele>
        <time>2013-02-03T10:39:53Z</time>
      </trkpt>
      <trkpt lat="43.58771" lon="6.24118">
        <ele>410</ele>
        <time>2013-02-03T10:40:05Z</time>
      </trkpt>
      <trkpt lat="43.58771" lon="6.24119">
        <ele>409.899994</ele>
        <time>2013-02-03T10:40:06Z</time>
      </trkpt>
      <trkpt lat="43.58762" lon="6.24135">
        <ele>410.100006</ele>
        <time>2013-02-03T10:40:20Z</time>
      </trkpt>
      <trkpt lat="43.58758" lon="6.24146">
        <ele>409</ele>
        <time>2013-02-03T10:40:27Z</time>
      </trkpt>
      <trkpt lat="43.58753" lon="6.24155">
        <ele>407.899994</ele>
        <time>2013-02-03T10:40:34Z</time>
      </trkpt>
      <trkpt lat="43.58751" lon="6.24166">
        <ele>408.299988</ele>
        <time>2013-02-03T10:40:41Z</time>
      </trkpt>
      <trkpt lat="43.58748" lon="6.24177">
        <ele>407.5</ele>
        <time>2013-02-03T10:40:48Z</time>
      </trkpt>
      <trkpt lat="43.58743" lon="6.24186">
        <ele>407.399994</ele>
        <time>2013-02-03T10:40:55Z</time>
      </trkpt>
      <trkpt lat="43.5874" lon="6.24198">
        <ele>406.799988</ele>
        <time>2013-02-03T10:41:03Z</time>
      </trkpt>
      <trkpt lat="43.58736" lon="6.24208">
        <ele>406.399994</ele>
        <time>2013-02-03T10:41:10Z</time>
      </trkpt>
      <trkpt lat="43.58735" lon="6.24209">
        <ele>406.299988</ele>
        <time>2013-02-03T10:41:11Z</time>
      </trkpt>
      <trkpt lat="43.58725" lon="6.24225">
        <ele>405.200012</ele>
        <time>2013-02-03T10:41:25Z</time>
      </trkpt>
      <trkpt lat="43.58719" lon="6.24234">
        <ele>405.299988</ele>
        <time>2013-02-03T10:41:34Z</time>
      </trkpt>
      <trkpt lat="43.58717" lon="6.24246">
        <ele>406</ele>
        <time>2013-02-03T10:42:26Z</time>
      </trkpt>
      <trkpt lat="43.58718" lon="6.24247">
        <ele>405.799988</ele>
        <time>2013-02-03T10:42:27Z</time>
      </trkpt>
      <trkpt lat="43.5873" lon="6.2426">
        <ele>405.700012</ele>
        <time>2013-02-03T10:42:42Z</time>
      </trkpt>
      <trkpt lat="43.58735" lon="6.2427">
        <ele>405.799988</ele>
        <time>2013-02-03T10:42:51Z</time>
      </trkpt>
      <trkpt lat="43.58735" lon="6.24281">
        <ele>406.600006</ele>
        <time>2013-02-03T10:42:58Z</time>
      </trkpt>
      <trkpt lat="43.58739" lon="6.2429">
        <ele>406.299988</ele>
        <time>2013-02-03T10:43:04Z</time>
      </trkpt>
      <trkpt lat="43.58745" lon="6.24299">
        <ele>406.600006</ele>
        <time>2013-02-03T10:43:11Z</time>
      </trkpt>
      <trkpt lat="43.58751" lon="6.24307">
        <ele>406.299988</ele>
        <time>2013-02-03T10:43:18Z</time>
      </trkpt>
      <trkpt lat="43.58758" lon="6.24312">
        <ele>406.5</ele>
        <time>2013-02-03T10:43:25Z</time>
      </trkpt>
      <trkpt lat="43.58767" lon="6.24316">
        <ele>407.299988</ele>
        <time>2013-02-03T10:43:33Z</time>
      </trkpt>
      <trkpt lat="43.58768" lon="6.24316">
        <ele>407.299988</ele>
        <time>2013-02-03T10:43:34Z</time>
      </trkpt>
      <trkpt lat="43.5878" lon="6.2433">
        <ele>407.200012</ele>
        <time>2013-02-03T10:43:47Z</time>
      </trkpt>
      <trkpt lat="43.58787" lon="6.24336">
        <ele>407</ele>
        <time>2013-02-03T10:43:54Z</time>
      </trkpt>
      <trkpt lat="43.58794" lon="6.24343">
        <ele>407</ele>
        <time>2013-02-03T10:44:01Z</time>
      </trkpt>
      <trkpt lat="43.58799" lon="6.24352">
        <ele>406.899994</ele>
        <time>2013-02-03T10:44:08Z</time>
      </trkpt>
      <trkpt lat="43.58803" lon="6.24362">
        <ele>406.399994</ele>
        <time>2013-02-03T10:44:15Z</time>
      </trkpt>
      <trkpt lat="43.58807" lon="6.24372">
        <ele>405.600006</ele>
        <time>2013-02-03T10:44:22Z</time>
      </trkpt>
      <trkpt lat="43.58812" lon="6.24381">
        <ele>404.899994</ele>
        <time>2013-02-03T10:44:29Z</time>
      </trkpt>
      <trkpt lat="43.58816" lon="6.24392">
        <ele>404.299988</ele>
        <time>2013-02-03T10:44:36Z</time>
      </trkpt>
      <trkpt lat="43.58816" lon="6.24393">
        <ele>404.100006</ele>
        <time>2013-02-03T10:44:37Z</time>
      </trkpt>
      <trkpt lat="43.58831" lon="6.24395">
        <ele>404.399994</ele>
        <time>2013-02-03T10:44:57Z</time>
      </trkpt>
      <trkpt lat="43.58839" lon="6.24391">
        <ele>404.600006</ele>
        <time>2013-02-03T10:45:03Z</time>
      </trkpt>
      <trkpt lat="43.58847" lon="6.24387">
        <ele>403.5</ele>
        <time>2013-02-03T10:45:12Z</time>
      </trkpt>
      <trkpt lat="43.58855" lon="6.24385">
        <ele>402.5</ele>
        <time>2013-02-03T10:45:18Z</time>
      </trkpt>
      <trkpt lat="43.58861" lon="6.24378">
        <ele>401.200012</ele>
        <time>2013-02-03T10:45:28Z</time>
      </trkpt>
      <trkpt lat="43.58866" lon="6.24368">
        <ele>400.200012</ele>
        <time>2013-02-03T10:45:35Z</time>
      </trkpt>
      <trkpt lat="43.58866" lon="6.24356">
        <ele>399.600006</ele>
        <time>2013-02-03T10:45:44Z</time>
      </trkpt>
      <trkpt lat="43.58865" lon="6.24354">
        <ele>399.600006</ele>
        <time>2013-02-03T10:45:45Z</time>
      </trkpt>
      <trkpt lat="43.58866" lon="6.24332">
        <ele>397.100006</ele>
        <time>2013-02-03T10:45:59Z</time>
      </trkpt>
      <trkpt lat="43.58867" lon="6.2432">
        <ele>396.299988</ele>
        <time>2013-02-03T10:46:07Z</time>
      </trkpt>
      <trkpt lat="43.58874" lon="6.24313">
        <ele>395.600006</ele>
        <time>2013-02-03T10:46:14Z</time>
      </trkpt>
      <trkpt lat="43.58879" lon="6.24305">
        <ele>394</ele>
        <time>2013-02-03T10:46:22Z</time>
      </trkpt>
      <trkpt lat="43.58884" lon="6.24295">
        <ele>392.399994</ele>
        <time>2013-02-03T10:46:34Z</time>
      </trkpt>
      <trkpt lat="43.58887" lon="6.24283">
        <ele>391.299988</ele>
        <time>2013-02-03T10:46:44Z</time>
      </trkpt>
      <trkpt lat="43.58893" lon="6.24276">
        <ele>389.399994</ele>
        <time>2013-02-03T10:46:51Z</time>
      </trkpt>
      <trkpt lat="43.58894" lon="6.24275">
        <ele>389.299988</ele>
        <time>2013-02-03T10:46:52Z</time>
      </trkpt>
      <trkpt lat="43.58905" lon="6.2426">
        <ele>387.5</ele>
        <time>2013-02-03T10:47:57Z</time>
      </trkpt>
      <trkpt lat="43.58906" lon="6.24259">
        <ele>387.600006</ele>
        <time>2013-02-03T10:47:58Z</time>
      </trkpt>
      <trkpt lat="43.58921" lon="6.2425">
        <ele>384.299988</ele>
        <time>2013-02-03T10:48:14Z</time>
      </trkpt>
      <trkpt lat="43.58928" lon="6.24246">
        <ele>384.299988</ele>
        <time>2013-02-03T10:48:21Z</time>
      </trkpt>
      <trkpt lat="43.58936" lon="6.24244">
        <ele>383.200012</ele>
        <time>2013-02-03T10:48:28Z</time>
      </trkpt>
      <trkpt lat="43.58944" lon="6.24247">
        <ele>382.200012</ele>
        <time>2013-02-03T10:48:38Z</time>
      </trkpt>
      <trkpt lat="43.58951" lon="6.24253">
        <ele>380.799988</ele>
        <time>2013-02-03T10:48:48Z</time>
      </trkpt>
      <trkpt lat="43.5896" lon="6.24254">
        <ele>380.100006</ele>
        <time>2013-02-03T10:48:58Z</time>
      </trkpt>
      <trkpt lat="43.58962" lon="6.24254">
        <ele>380</ele>
        <time>2013-02-03T10:48:59Z</time>
      </trkpt>
      <trkpt lat="43.58974" lon="6.24241">
        <ele>378</ele>
        <time>2013-02-03T10:49:16Z</time>
      </trkpt>
      <trkpt lat="43.58982" lon="6.24235">
        <ele>377.700012</ele>
        <time>2013-02-03T10:49:24Z</time>
      </trkpt>
      <trkpt lat="43.58989" lon="6.24229">
        <ele>377.399994</ele>
        <time>2013-02-03T10:49:30Z</time>
      </trkpt>
      <trkpt lat="43.58995" lon="6.24237">
        <ele>377.700012</ele>
        <time>2013-02-03T10:49:47Z</time>
      </trkpt>
      <trkpt lat="43.59004" lon="6.2424">
        <ele>379</ele>
        <time>2013-02-03T10:50:11Z</time>
      </trkpt>
      <trkpt lat="43.59005" lon="6.2424">
        <ele>379.100006</ele>
        <time>2013-02-03T10:50:12Z</time>
      </trkpt>
      <trkpt lat="43.59018" lon="6.24253">
        <ele>381.399994</ele>
        <time>2013-02-03T10:50:35Z</time>
      </trkpt>
      <trkpt lat="43.59021" lon="6.24264">
        <ele>382.899994</ele>
        <time>2013-02-03T10:50:48Z</time>
      </trkpt>
      <trkpt lat="43.59028" lon="6.24272">
        <ele>382.100006</ele>
        <time>2013-02-03T10:50:58Z</time>
      </trkpt>
      <trkpt lat="43.59035" lon="6.24279">
        <ele>381.299988</ele>
        <time>2013-02-03T10:51:07Z</time>
      </trkpt>
      <trkpt lat="43.5904" lon="6.24288">
        <ele>381.600006</ele>
        <time>2013-02-03T10:51:14Z</time>
      </trkpt>
      <trkpt lat="43.59041" lon="6.24289">
        <ele>381.799988</ele>
        <time>2013-02-03T10:51:15Z</time>
      </trkpt>
      <trkpt lat="43.59053" lon="6.24302">
        <ele>380.700012</ele>
        <time>2013-02-03T10:51:31Z</time>
      </trkpt>
      <trkpt lat="43.5906" lon="6.2431">
        <ele>381.700012</ele>
        <time>2013-02-03T10:51:51Z</time>
      </trkpt>
      <trkpt lat="43.59067" lon="6.24305">
        <ele>381.799988</ele>
        <time>2013-02-03T10:52:21Z</time>
      </trkpt>
      <trkpt lat="43.59068" lon="6.24305">
        <ele>381.899994</ele>
        <time>2013-02-03T10:52:22Z</time>
      </trkpt>
      <trkpt lat="43.59064" lon="6.24329">
        <ele>382.700012</ele>
        <time>2013-02-03T10:52:48Z</time>
      </trkpt>
      <trkpt lat="43.59067" lon="6.2434">
        <ele>380.5</ele>
        <time>2013-02-03T10:52:57Z</time>
      </trkpt>
      <trkpt lat="43.59074" lon="6.24347">
        <ele>378</ele>
        <time>2013-02-03T10:53:25Z</time>
      </trkpt>
      <trkpt lat="43.59074" lon="6.24348">
        <ele>378.5</ele>
        <time>2013-02-03T10:53:26Z</time>
      </trkpt>
      <trkpt lat="43.5909" lon="6.24346">
        <ele>378.700012</ele>
        <time>2013-02-03T10:54:21Z</time>
      </trkpt>
      <trkpt lat="43.59097" lon="6.24352">
        <ele>378.399994</ele>
        <time>2013-02-03T10:54:33Z</time>
      </trkpt>
      <trkpt lat="43.59097" lon="6.24354">
        <ele>378.200012</ele>
        <time>2013-02-03T10:54:34Z</time>
      </trkpt>
      <trkpt lat="43.59112" lon="6.24361">
        <ele>378.100006</ele>
        <time>2013-02-03T10:55:07Z</time>
      </trkpt>
      <trkpt lat="43.5912" lon="6.24366">
        <ele>379.5</ele>
        <time>2013-02-03T10:55:30Z</time>
      </trkpt>
      <trkpt lat="43.59128" lon="6.24368">
        <ele>378.399994</ele>
        <time>2013-02-03T10:55:47Z</time>
      </trkpt>
      <trkpt lat="43.59129" lon="6.24369">
        <ele>378.799988</ele>
        <time>2013-02-03T10:55:48Z</time>
      </trkpt>
      <trkpt lat="43.59144" lon="6.24375">
        <ele>379.100006</ele>
        <time>2013-02-03T10:56:23Z</time>
      </trkpt>
      <trkpt lat="43.59152" lon="6.24375">
        <ele>378.899994</ele>
        <time>2013-02-03T10:56:41Z</time>
      </trkpt>
      <trkpt lat="43.5916" lon="6.24373">
        <ele>379.100006</ele>
        <time>2013-02-03T10:56:49Z</time>
      </trkpt>
      <trkpt lat="43.59161" lon="6.24373">
        <ele>379.399994</ele>
        <time>2013-02-03T10:56:50Z</time>
      </trkpt>
      <trkpt lat="43.59177" lon="6.24376">
        <ele>379.399994</ele>
        <time>2013-02-03T10:57:12Z</time>
      </trkpt>
      <trkpt lat="43.59184" lon="6.24382">
        <ele>378.899994</ele>
        <time>2013-02-03T10:57:23Z</time>
      </trkpt>
      <trkpt lat="43.59192" lon="6.24385">
        <ele>381.200012</ele>
        <time>2013-02-03T10:57:37Z</time>
      </trkpt>
      <trkpt lat="43.59198" lon="6.24392">
        <ele>380.5</ele>
        <time>2013-02-03T10:57:59Z</time>
      </trkpt>
      <trkpt lat="43.59199" lon="6.24392">
        <ele>380.600006</ele>
        <time>2013-02-03T10:58:00Z</time>
      </trkpt>
      <trkpt lat="43.59213" lon="6.24405">
        <ele>381.399994</ele>
        <time>2013-02-03T10:58:23Z</time>
      </trkpt>
      <trkpt lat="43.59221" lon="6.24409">
        <ele>381.5</ele>
        <time>2013-02-03T10:58:31Z</time>
      </trkpt>
      <trkpt lat="43.59227" lon="6.24418">
        <ele>382.5</ele>
        <time>2013-02-03T10:58:41Z</time>
      </trkpt>
      <trkpt lat="43.59231" lon="6.24407">
        <ele>384.5</ele>
        <time>2013-02-03T11:00:26Z</time>
      </trkpt>
      <trkpt lat="43.59232" lon="6.24406">
        <ele>384.700012</ele>
        <time>2013-02-03T11:00:27Z</time>
      </trkpt>
      <trkpt lat="43.5924" lon="6.24405">
        <ele>393.799988</ele>
        <time>2013-02-03T11:02:13Z</time>
      </trkpt>
      <trkpt lat="43.59254" lon="6.2439">
        <ele>401</ele>
        <time>2013-02-03T11:03:07Z</time>
      </trkpt>
      <trkpt lat="43.59262" lon="6.24385">
        <ele>403.700012</ele>
        <time>2013-02-03T11:03:33Z</time>
      </trkpt>
      <trkpt lat="43.59263" lon="6.24385">
        <ele>404</ele>
        <time>2013-02-03T11:03:34Z</time>
      </trkpt>
      <trkpt lat="43.59274" lon="6.24387">
        <ele>407.100006</ele>
        <time>2013-02-03T11:05:39Z</time>
      </trkpt>
      <trkpt lat="43.59275" lon="6.24388">
        <ele>407</ele>
        <time>2013-02-03T11:05:40Z</time>
      </trkpt>
      <trkpt lat="43.5929" lon="6.24381">
        <ele>408.799988</ele>
        <time>2013-02-03T11:06:09Z</time>
      </trkpt>
      <trkpt lat="43.59296" lon="6.24374">
        <ele>410.299988</ele>
        <time>2013-02-03T11:06:20Z</time>
      </trkpt>
      <trkpt lat="43.59305" lon="6.24373">
        <ele>412.200012</ele>
        <time>2013-02-03T11:06:36Z</time>
      </trkpt>
      <trkpt lat="43.59313" lon="6.24371">
        <ele>415.200012</ele>
        <time>2013-02-03T11:06:50Z</time>
      </trkpt>
      <trkpt lat="43.59314" lon="6.2437">
        <ele>415.299988</ele>
        <time>2013-02-03T11:06:51Z</time>
      </trkpt>
      <trkpt lat="43.59331" lon="6.24366">
        <ele>419.299988</ele>
        <time>2013-02-03T11:07:20Z</time>
      </trkpt>
      <trkpt lat="43.59339" lon="6.24365">
        <ele>421.200012</ele>
        <time>2013-02-03T11:07:34Z</time>
      </trkpt>
      <trkpt lat="43.59348" lon="6.24363">
        <ele>422.399994</ele>
        <time>2013-02-03T11:07:48Z</time>
      </trkpt>
      <trkpt lat="43.59351" lon="6.24351">
        <ele>424.799988</ele>
        <time>2013-02-03T11:08:18Z</time>
      </trkpt>
      <trkpt lat="43.5935" lon="6.2435">
        <ele>424.799988</ele>
        <time>2013-02-03T11:08:19Z</time>
      </trkpt>
      <trkpt lat="43.5936" lon="6.24331">
        <ele>428.100006</ele>
        <time>2013-02-03T11:08:55Z</time>
      </trkpt>
      <trkpt lat="43.59368" lon="6.2433">
        <ele>429.700012</ele>
        <time>2013-02-03T11:09:06Z</time>
      </trkpt>
      <trkpt lat="43.59376" lon="6.24324">
        <ele>430.700012</ele>
        <time>2013-02-03T11:09:17Z</time>
      </trkpt>
      <trkpt lat="43.59384" lon="6.24323">
        <ele>432.799988</ele>
        <time>2013-02-03T11:09:31Z</time>
      </trkpt>
      <trkpt lat="43.59385" lon="6.24323">
        <ele>432.700012</ele>
        <time>2013-02-03T11:09:32Z</time>
      </trkpt>
      <trkpt lat="43.594" lon="6.24315">
        <ele>434.899994</ele>
        <time>2013-02-03T11:09:59Z</time>
      </trkpt>
      <trkpt lat="43.59405" lon="6.24305">
        <ele>435.200012</ele>
        <time>2013-02-03T11:10:14Z</time>
      </trkpt>
      <trkpt lat="43.59405" lon="6.24293">
        <ele>434.899994</ele>
        <time>2013-02-03T11:10:33Z</time>
      </trkpt>
      <trkpt lat="43.59405" lon="6.24292">
        <ele>434.399994</ele>
        <time>2013-02-03T11:10:34Z</time>
      </trkpt>
      <trkpt lat="43.59415" lon="6.24274">
        <ele>435.299988</ele>
        <time>2013-02-03T11:11:01Z</time>
      </trkpt>
      <trkpt lat="43.59424" lon="6.24273">
        <ele>436</ele>
        <time>2013-02-03T11:11:14Z</time>
      </trkpt>
      <trkpt lat="43.59421" lon="6.24262">
        <ele>435.799988</ele>
        <time>2013-02-03T11:12:02Z</time>
      </trkpt>
      <trkpt lat="43.59421" lon="6.24261">
        <ele>435.799988</ele>
        <time>2013-02-03T11:12:03Z</time>
      </trkpt>
      <trkpt lat="43.59426" lon="6.24274">
        <ele>437.700012</ele>
        <time>2013-02-03T11:13:22Z</time>
      </trkpt>
      <trkpt lat="43.59433" lon="6.24292">
        <ele>438.399994</ele>
        <time>2013-02-03T11:13:34Z</time>
      </trkpt>
      <trkpt lat="43.5944" lon="6.24299">
        <ele>438.399994</ele>
        <time>2013-02-03T11:13:41Z</time>
      </trkpt>
      <trkpt lat="43.59445" lon="6.24309">
        <ele>439.100006</ele>
        <time>2013-02-03T11:13:51Z</time>
      </trkpt>
      <trkpt lat="43.5945" lon="6.2432">
        <ele>440.200012</ele>
        <time>2013-02-03T11:13:58Z</time>
      </trkpt>
      <trkpt lat="43.59454" lon="6.24329">
        <ele>440.5</ele>
        <time>2013-02-03T11:14:05Z</time>
      </trkpt>
      <trkpt lat="43.59461" lon="6.24336">
        <ele>440.700012</ele>
        <time>2013-02-03T11:14:13Z</time>
      </trkpt>
      <trkpt lat="43.59468" lon="6.24343">
        <ele>441.399994</ele>
        <time>2013-02-03T11:14:21Z</time>
      </trkpt>
      <trkpt lat="43.59475" lon="6.24349">
        <ele>441.299988</ele>
        <time>2013-02-03T11:14:29Z</time>
      </trkpt>
      <trkpt lat="43.59476" lon="6.2435">
        <ele>441.100006</ele>
        <time>2013-02-03T11:14:30Z</time>
      </trkpt>
      <trkpt lat="43.59488" lon="6.24364">
        <ele>441.100006</ele>
        <time>2013-02-03T11:14:43Z</time>
      </trkpt>
      <trkpt lat="43.59494" lon="6.24372">
        <ele>441.299988</ele>
        <time>2013-02-03T11:14:51Z</time>
      </trkpt>
      <trkpt lat="43.59501" lon="6.2438">
        <ele>441.399994</ele>
        <time>2013-02-03T11:14:59Z</time>
      </trkpt>
      <trkpt lat="43.59509" lon="6.24386">
        <ele>441.5</ele>
        <time>2013-02-03T11:15:06Z</time>
      </trkpt>
      <trkpt lat="43.59516" lon="6.24393">
        <ele>441.399994</ele>
        <time>2013-02-03T11:15:13Z</time>
      </trkpt>
      <trkpt lat="43.59522" lon="6.24402">
        <ele>441.5</ele>
        <time>2013-02-03T11:15:20Z</time>
      </trkpt>
      <trkpt lat="43.59527" lon="6.24411">
        <ele>441.100006</ele>
        <time>2013-02-03T11:15:27Z</time>
      </trkpt>
      <trkpt lat="43.59534" lon="6.24418">
        <ele>441.299988</ele>
        <time>2013-02-03T11:15:34Z</time>
      </trkpt>
      <trkpt lat="43.59535" lon="6.24418">
        <ele>441.299988</ele>
        <time>2013-02-03T11:15:35Z</time>
      </trkpt>
      <trkpt lat="43.59548" lon="6.24427">
        <ele>441.700012</ele>
        <time>2013-02-03T11:15:48Z</time>
      </trkpt>
      <trkpt lat="43.59556" lon="6.24434">
        <ele>442</ele>
        <time>2013-02-03T11:15:57Z</time>
      </trkpt>
      <trkpt lat="43.59562" lon="6.24441">
        <ele>441.399994</ele>
        <time>2013-02-03T11:16:04Z</time>
      </trkpt>
      <trkpt lat="43.5957" lon="6.24446">
        <ele>441.399994</ele>
        <time>2013-02-03T11:16:11Z</time>
      </trkpt>
      <trkpt lat="43.59578" lon="6.24449">
        <ele>441.700012</ele>
        <time>2013-02-03T11:16:18Z</time>
      </trkpt>
      <trkpt lat="43.59586" lon="6.24447">
        <ele>441.799988</ele>
        <time>2013-02-03T11:16:24Z</time>
      </trkpt>
      <trkpt lat="43.59594" lon="6.24449">
        <ele>442.100006</ele>
        <time>2013-02-03T11:16:34Z</time>
      </trkpt>
      <trkpt lat="43.59603" lon="6.24451">
        <ele>442.299988</ele>
        <time>2013-02-03T11:16:43Z</time>
      </trkpt>
      <trkpt lat="43.59604" lon="6.24452">
        <ele>442.299988</ele>
        <time>2013-02-03T11:16:44Z</time>
      </trkpt>
      <trkpt lat="43.59616" lon="6.24464">
        <ele>442.100006</ele>
        <time>2013-02-03T11:16:57Z</time>
      </trkpt>
      <trkpt lat="43.59624" lon="6.24466">
        <ele>442.100006</ele>
        <time>2013-02-03T11:17:06Z</time>
      </trkpt>
      <trkpt lat="43.59633" lon="6.24464">
        <ele>443</ele>
        <time>2013-02-03T11:17:37Z</time>
      </trkpt>
      <trkpt lat="43.59639" lon="6.24456">
        <ele>443.5</ele>
        <time>2013-02-03T11:21:17Z</time>
      </trkpt>
      <trkpt lat="43.5964" lon="6.24455">
        <ele>443.5</ele>
        <time>2013-02-03T11:21:18Z</time>
      </trkpt>
      <trkpt lat="43.59632" lon="6.24463">
        <ele>451.799988</ele>
        <time>2013-02-03T11:28:40Z</time>
      </trkpt>
      <trkpt lat="43.59636" lon="6.24474">
        <ele>454.899994</ele>
        <time>2013-02-03T11:57:17Z</time>
      </trkpt>
      <trkpt lat="43.59637" lon="6.24461">
        <ele>454.600006</ele>
        <time>2013-02-03T11:59:10Z</time>
      </trkpt>
      <trkpt lat="43.59628" lon="6.24461">
        <ele>453.899994</ele>
        <time>2013-02-03T12:07:04Z</time>
      </trkpt>
      <trkpt lat="43.59629" lon="6.24447">
        <ele>455</ele>
        <time>2013-02-03T12:13:55Z</time>
      </trkpt>
      <trkpt lat="43.59638" lon="6.24429">
        <ele>454.299988</ele>
        <time>2013-02-03T12:14:12Z</time>
      </trkpt>
      <trkpt lat="43.59644" lon="6.24419">
        <ele>454.299988</ele>
        <time>2013-02-03T12:14:22Z</time>
      </trkpt>
      <trkpt lat="43.59649" lon="6.2441">
        <ele>453.799988</ele>
        <time>2013-02-03T12:14:33Z</time>
      </trkpt>
      <trkpt lat="43.59654" lon="6.24403">
        <ele>453.799988</ele>
        <time>2013-02-03T12:14:40Z</time>
      </trkpt>
      <trkpt lat="43.59661" lon="6.24397">
        <ele>453.200012</ele>
        <time>2013-02-03T12:14:48Z</time>
      </trkpt>
      <trkpt lat="43.59668" lon="6.24392">
        <ele>453.5</ele>
        <time>2013-02-03T12:14:55Z</time>
      </trkpt>
      <trkpt lat="43.59676" lon="6.24386">
        <ele>452.700012</ele>
        <time>2013-02-03T12:15:03Z</time>
      </trkpt>
      <trkpt lat="43.59677" lon="6.24385">
        <ele>452.399994</ele>
        <time>2013-02-03T12:15:04Z</time>
      </trkpt>
      <trkpt lat="43.59685" lon="6.24369">
        <ele>451</ele>
        <time>2013-02-03T12:15:16Z</time>
      </trkpt>
      <trkpt lat="43.5969" lon="6.24361">
        <ele>451.299988</ele>
        <time>2013-02-03T12:15:22Z</time>
      </trkpt>
      <trkpt lat="43.59696" lon="6.24353">
        <ele>450.600006</ele>
        <time>2013-02-03T12:15:27Z</time>
      </trkpt>
      <trkpt lat="43.597" lon="6.24343">
        <ele>449.600006</ele>
        <time>2013-02-03T12:15:36Z</time>
      </trkpt>
      <trkpt lat="43.59706" lon="6.24336">
        <ele>448.5</ele>
        <time>2013-02-03T12:15:44Z</time>
      </trkpt>
      <trkpt lat="43.59712" lon="6.24327">
        <ele>449.299988</ele>
        <time>2013-02-03T12:15:51Z</time>
      </trkpt>
      <trkpt lat="43.59719" lon="6.24319">
        <ele>449.299988</ele>
        <time>2013-02-03T12:15:59Z</time>
      </trkpt>
      <trkpt lat="43.59725" lon="6.24313">
        <ele>449.100006</ele>
        <time>2013-02-03T12:16:04Z</time>
      </trkpt>
      <trkpt lat="43.59726" lon="6.24311">
        <ele>448.799988</ele>
        <time>2013-02-03T12:16:05Z</time>
      </trkpt>
      <trkpt lat="43.5974" lon="6.24301">
        <ele>448.299988</ele>
        <time>2013-02-03T12:16:18Z</time>
      </trkpt>
      <trkpt lat="43.59747" lon="6.24296">
        <ele>448.399994</ele>
        <time>2013-02-03T12:16:25Z</time>
      </trkpt>
      <trkpt lat="43.59752" lon="6.24289">
        <ele>448.5</ele>
        <time>2013-02-03T12:16:34Z</time>
      </trkpt>
      <trkpt lat="43.59758" lon="6.24283">
        <ele>447.399994</ele>
        <time>2013-02-03T12:16:42Z</time>
      </trkpt>
      <trkpt lat="43.59764" lon="6.24274">
        <ele>446.5</ele>
        <time>2013-02-03T12:16:50Z</time>
      </trkpt>
      <trkpt lat="43.5977" lon="6.24267">
        <ele>446.100006</ele>
        <time>2013-02-03T12:16:57Z</time>
      </trkpt>
      <trkpt lat="43.59776" lon="6.24259">
        <ele>446.200012</ele>
        <time>2013-02-03T12:17:05Z</time>
      </trkpt>
      <trkpt lat="43.59779" lon="6.24249">
        <ele>445.899994</ele>
        <time>2013-02-03T12:17:11Z</time>
      </trkpt>
      <trkpt lat="43.5978" lon="6.24247">
        <ele>445.399994</ele>
        <time>2013-02-03T12:17:12Z</time>
      </trkpt>
      <trkpt lat="43.5979" lon="6.24231">
        <ele>443.100006</ele>
        <time>2013-02-03T12:17:33Z</time>
      </trkpt>
      <trkpt lat="43.59793" lon="6.24219">
        <ele>442.899994</ele>
        <time>2013-02-03T12:17:41Z</time>
      </trkpt>
      <trkpt lat="43.598" lon="6.24211">
        <ele>441.100006</ele>
        <time>2013-02-03T12:17:51Z</time>
      </trkpt>
      <trkpt lat="43.59805" lon="6.24202">
        <ele>440.600006</ele>
        <time>2013-02-03T12:17:58Z</time>
      </trkpt>
      <trkpt lat="43.59807" lon="6.24192">
        <ele>439.5</ele>
        <time>2013-02-03T12:18:05Z</time>
      </trkpt>
      <trkpt lat="43.59813" lon="6.24183">
        <ele>438.600006</ele>
        <time>2013-02-03T12:18:12Z</time>
      </trkpt>
      <trkpt lat="43.59814" lon="6.24183">
        <ele>438.299988</ele>
        <time>2013-02-03T12:18:13Z</time>
      </trkpt>
      <trkpt lat="43.59823" lon="6.24164">
        <ele>437</ele>
        <time>2013-02-03T12:18:28Z</time>
      </trkpt>
      <trkpt lat="43.5983" lon="6.24156">
        <ele>436.700012</ele>
        <time>2013-02-03T12:18:41Z</time>
      </trkpt>
      <trkpt lat="43.59837" lon="6.24151">
        <ele>435.799988</ele>
        <time>2013-02-03T12:18:51Z</time>
      </trkpt>
      <trkpt lat="43.59844" lon="6.24145">
        <ele>436.299988</ele>
        <time>2013-02-03T12:18:59Z</time>
      </trkpt>
      <trkpt lat="43.59851" lon="6.24137">
        <ele>436.299988</ele>
        <time>2013-02-03T12:19:06Z</time>
      </trkpt>
      <trkpt lat="43.59859" lon="6.24134">
        <ele>438.100006</ele>
        <time>2013-02-03T12:19:24Z</time>
      </trkpt>
      <trkpt lat="43.5986" lon="6.24136">
        <ele>437.799988</ele>
        <time>2013-02-03T12:19:25Z</time>
      </trkpt>
      <trkpt lat="43.59872" lon="6.24147">
        <ele>436.100006</ele>
        <time>2013-02-03T12:19:39Z</time>
      </trkpt>
      <trkpt lat="43.59879" lon="6.24153">
        <ele>435.399994</ele>
        <time>2013-02-03T12:19:46Z</time>
      </trkpt>
      <trkpt lat="43.59886" lon="6.24156">
        <ele>435.600006</ele>
        <time>2013-02-03T12:19:51Z</time>
      </trkpt>
      <trkpt lat="43.59895" lon="6.24161">
        <ele>435.399994</ele>
        <time>2013-02-03T12:19:58Z</time>
      </trkpt>
      <trkpt lat="43.59903" lon="6.24163">
        <ele>434</ele>
        <time>2013-02-03T12:20:04Z</time>
      </trkpt>
      <trkpt lat="43.59911" lon="6.24163">
        <ele>433.600006</ele>
        <time>2013-02-03T12:20:11Z</time>
      </trkpt>
      <trkpt lat="43.59919" lon="6.24159">
        <ele>433.700012</ele>
        <time>2013-02-03T12:20:18Z</time>
      </trkpt>
      <trkpt lat="43.59927" lon="6.24159">
        <ele>434</ele>
        <time>2013-02-03T12:20:25Z</time>
      </trkpt>
      <trkpt lat="43.59936" lon="6.24157">
        <ele>432.299988</ele>
        <time>2013-02-03T12:20:33Z</time>
      </trkpt>
      <trkpt lat="43.59937" lon="6.24157">
        <ele>432</ele>
        <time>2013-02-03T12:20:34Z</time>
      </trkpt>
      <trkpt lat="43.59952" lon="6.24161">
        <ele>431.5</ele>
        <time>2013-02-03T12:20:50Z</time>
      </trkpt>
      <trkpt lat="43.5996" lon="6.24164">
        <ele>431.299988</ele>
        <time>2013-02-03T12:20:59Z</time>
      </trkpt>
      <trkpt lat="43.59966" lon="6.24172">
        <ele>431.600006</ele>
        <time>2013-02-03T12:21:08Z</time>
      </trkpt>
      <trkpt lat="43.59975" lon="6.24174">
        <ele>430.700012</ele>
        <time>2013-02-03T12:21:16Z</time>
      </trkpt>
      <trkpt lat="43.59968" lon="6.2418">
        <ele>429.299988</ele>
        <time>2013-02-03T12:21:49Z</time>
      </trkpt>
      <trkpt lat="43.59967" lon="6.24182">
        <ele>429.200012</ele>
        <time>2013-02-03T12:21:50Z</time>
      </trkpt>
      <trkpt lat="43.59971" lon="6.24202">
        <ele>429.600006</ele>
        <time>2013-02-03T12:22:01Z</time>
      </trkpt>
      <trkpt lat="43.59975" lon="6.24213">
        <ele>430.299988</ele>
        <time>2013-02-03T12:22:08Z</time>
      </trkpt>
      <trkpt lat="43.59981" lon="6.2422">
        <ele>429.100006</ele>
        <time>2013-02-03T12:22:15Z</time>
      </trkpt>
      <trkpt lat="43.59989" lon="6.24226">
        <ele>429.299988</ele>
        <time>2013-02-03T12:22:23Z</time>
      </trkpt>
      <trkpt lat="43.59995" lon="6.24234">
        <ele>429.200012</ele>
        <time>2013-02-03T12:22:30Z</time>
      </trkpt>
      <trkpt lat="43.60004" lon="6.24236">
        <ele>427.700012</ele>
        <time>2013-02-03T12:22:40Z</time>
      </trkpt>
      <trkpt lat="43.60013" lon="6.24233">
        <ele>426.600006</ele>
        <time>2013-02-03T12:22:46Z</time>
      </trkpt>
      <trkpt lat="43.6002" lon="6.24237">
        <ele>426.899994</ele>
        <time>2013-02-03T12:22:54Z</time>
      </trkpt>
      <trkpt lat="43.60021" lon="6.24238">
        <ele>427.399994</ele>
        <time>2013-02-03T12:22:55Z</time>
      </trkpt>
      <trkpt lat="43.60033" lon="6.24226">
        <ele>427.200012</ele>
        <time>2013-02-03T12:23:42Z</time>
      </trkpt>
      <trkpt lat="43.6004" lon="6.2423">
        <ele>427.799988</ele>
        <time>2013-02-03T12:23:49Z</time>
      </trkpt>
      <trkpt lat="43.60046" lon="6.2424">
        <ele>428.5</ele>
        <time>2013-02-03T12:23:57Z</time>
      </trkpt>
      <trkpt lat="43.60047" lon="6.24241">
        <ele>428.600006</ele>
        <time>2013-02-03T12:23:58Z</time>
      </trkpt>
      <trkpt lat="43.60054" lon="6.2426">
        <ele>428</ele>
        <time>2013-02-03T12:24:10Z</time>
      </trkpt>
      <trkpt lat="43.60062" lon="6.24264">
        <ele>427.899994</ele>
        <time>2013-02-03T12:24:17Z</time>
      </trkpt>
      <trkpt lat="43.60069" lon="6.24266">
        <ele>427.899994</ele>
        <time>2013-02-03T12:24:24Z</time>
      </trkpt>
      <trkpt lat="43.60078" lon="6.24265">
        <ele>428.700012</ele>
        <time>2013-02-03T12:24:31Z</time>
      </trkpt>
      <trkpt lat="43.60086" lon="6.24265">
        <ele>429.799988</ele>
        <time>2013-02-03T12:24:40Z</time>
      </trkpt>
      <trkpt lat="43.60094" lon="6.24258">
        <ele>430.700012</ele>
        <time>2013-02-03T12:24:51Z</time>
      </trkpt>
      <trkpt lat="43.60101" lon="6.2425">
        <ele>431.399994</ele>
        <time>2013-02-03T12:24:59Z</time>
      </trkpt>
      <trkpt lat="43.60101" lon="6.24249">
        <ele>431.299988</ele>
        <time>2013-02-03T12:25:00Z</time>
      </trkpt>
      <trkpt lat="43.60113" lon="6.24236">
        <ele>432.700012</ele>
        <time>2013-02-03T12:25:13Z</time>
      </trkpt>
      <trkpt lat="43.6012" lon="6.2423">
        <ele>433.200012</ele>
        <time>2013-02-03T12:25:20Z</time>
      </trkpt>
      <trkpt lat="43.60126" lon="6.24223">
        <ele>433.100006</ele>
        <time>2013-02-03T12:25:26Z</time>
      </trkpt>
      <trkpt lat="43.60129" lon="6.24211">
        <ele>434.299988</ele>
        <time>2013-02-03T12:25:34Z</time>
      </trkpt>
      <trkpt lat="43.60133" lon="6.24201">
        <ele>433.399994</ele>
        <time>2013-02-03T12:25:43Z</time>
      </trkpt>
      <trkpt lat="43.60141" lon="6.24199">
        <ele>434.700012</ele>
        <time>2013-02-03T12:26:04Z</time>
      </trkpt>
      <trkpt lat="43.60142" lon="6.24198">
        <ele>434.700012</ele>
        <time>2013-02-03T12:26:05Z</time>
      </trkpt>
      <trkpt lat="43.60153" lon="6.24183">
        <ele>433.700012</ele>
        <time>2013-02-03T12:26:19Z</time>
      </trkpt>
      <trkpt lat="43.60158" lon="6.24175">
        <ele>432.600006</ele>
        <time>2013-02-03T12:26:26Z</time>
      </trkpt>
      <trkpt lat="43.60165" lon="6.24168">
        <ele>433.600006</ele>
        <time>2013-02-03T12:26:32Z</time>
      </trkpt>
      <trkpt lat="43.60171" lon="6.24163">
        <ele>433.5</ele>
        <time>2013-02-03T12:26:37Z</time>
      </trkpt>
      <trkpt lat="43.60177" lon="6.24154">
        <ele>432.299988</ele>
        <time>2013-02-03T12:26:44Z</time>
      </trkpt>
      <trkpt lat="43.60183" lon="6.24146">
        <ele>431.700012</ele>
        <time>2013-02-03T12:26:50Z</time>
      </trkpt>
      <trkpt lat="43.60189" lon="6.24138">
        <ele>431.700012</ele>
        <time>2013-02-03T12:26:58Z</time>
      </trkpt>
      <trkpt lat="43.60195" lon="6.2413">
        <ele>431.700012</ele>
        <time>2013-02-03T12:27:05Z</time>
      </trkpt>
      <trkpt lat="43.60196" lon="6.24129">
        <ele>432.299988</ele>
        <time>2013-02-03T12:27:06Z</time>
      </trkpt>
      <trkpt lat="43.60207" lon="6.24113">
        <ele>431.799988</ele>
        <time>2013-02-03T12:27:24Z</time>
      </trkpt>
      <trkpt lat="43.60214" lon="6.24106">
        <ele>433.200012</ele>
        <time>2013-02-03T12:27:34Z</time>
      </trkpt>
      <trkpt lat="43.6022" lon="6.24099">
        <ele>432</ele>
        <time>2013-02-03T12:27:44Z</time>
      </trkpt>
      <trkpt lat="43.60225" lon="6.24089">
        <ele>432.799988</ele>
        <time>2013-02-03T12:28:04Z</time>
      </trkpt>
      <trkpt lat="43.6023" lon="6.24079">
        <ele>433.100006</ele>
        <time>2013-02-03T12:28:12Z</time>
      </trkpt>
      <trkpt lat="43.6023" lon="6.24078">
        <ele>433.200012</ele>
        <time>2013-02-03T12:28:13Z</time>
      </trkpt>
      <trkpt lat="43.60238" lon="6.24058">
        <ele>433.399994</ele>
        <time>2013-02-03T12:28:27Z</time>
      </trkpt>
      <trkpt lat="43.60243" lon="6.24049">
        <ele>433.600006</ele>
        <time>2013-02-03T12:28:32Z</time>
      </trkpt>
      <trkpt lat="43.60247" lon="6.24039">
        <ele>434.200012</ele>
        <time>2013-02-03T12:28:39Z</time>
      </trkpt>
      <trkpt lat="43.60255" lon="6.24032">
        <ele>435.200012</ele>
        <time>2013-02-03T12:28:46Z</time>
      </trkpt>
      <trkpt lat="43.6026" lon="6.24024">
        <ele>435.899994</ele>
        <time>2013-02-03T12:28:53Z</time>
      </trkpt>
      <trkpt lat="43.60265" lon="6.24014">
        <ele>436.200012</ele>
        <time>2013-02-03T12:29:01Z</time>
      </trkpt>
      <trkpt lat="43.60269" lon="6.24004">
        <ele>437.100006</ele>
        <time>2013-02-03T12:29:09Z</time>
      </trkpt>
      <trkpt lat="43.60274" lon="6.23994">
        <ele>437.700012</ele>
        <time>2013-02-03T12:29:19Z</time>
      </trkpt>
      <trkpt lat="43.60274" lon="6.23993">
        <ele>437.600006</ele>
        <time>2013-02-03T12:29:20Z</time>
      </trkpt>
      <trkpt lat="43.60285" lon="6.23976">
        <ele>438.5</ele>
        <time>2013-02-03T12:29:36Z</time>
      </trkpt>
      <trkpt lat="43.60291" lon="6.23968">
        <ele>438.5</ele>
        <time>2013-02-03T12:29:45Z</time>
      </trkpt>
      <trkpt lat="43.60297" lon="6.2396">
        <ele>438.5</ele>
        <time>2013-02-03T12:29:55Z</time>
      </trkpt>
      <trkpt lat="43.60304" lon="6.23952">
        <ele>438.299988</ele>
        <time>2013-02-03T12:30:04Z</time>
      </trkpt>
      <trkpt lat="43.6031" lon="6.23944">
        <ele>438.299988</ele>
        <time>2013-02-03T12:30:12Z</time>
      </trkpt>
      <trkpt lat="43.60316" lon="6.23934">
        <ele>438.200012</ele>
        <time>2013-02-03T12:30:20Z</time>
      </trkpt>
      <trkpt lat="43.6032" lon="6.23924">
        <ele>437.200012</ele>
        <time>2013-02-03T12:30:30Z</time>
      </trkpt>
      <trkpt lat="43.60321" lon="6.23923">
        <ele>436.899994</ele>
        <time>2013-02-03T12:30:31Z</time>
      </trkpt>
      <trkpt lat="43.60334" lon="6.23908">
        <ele>435.899994</ele>
        <time>2013-02-03T12:30:44Z</time>
      </trkpt>
      <trkpt lat="43.60339" lon="6.23898">
        <ele>435.299988</ele>
        <time>2013-02-03T12:30:53Z</time>
      </trkpt>
      <trkpt lat="43.60345" lon="6.2389">
        <ele>436</ele>
        <time>2013-02-03T12:31:02Z</time>
      </trkpt>
      <trkpt lat="43.60353" lon="6.23886">
        <ele>436.5</ele>
        <time>2013-02-03T12:31:11Z</time>
      </trkpt>
      <trkpt lat="43.60361" lon="6.23884">
        <ele>437.399994</ele>
        <time>2013-02-03T12:31:18Z</time>
      </trkpt>
      <trkpt lat="43.60368" lon="6.23883">
        <ele>436.899994</ele>
        <time>2013-02-03T12:31:24Z</time>
      </trkpt>
      <trkpt lat="43.60377" lon="6.23885">
        <ele>437.600006</ele>
        <time>2013-02-03T12:31:32Z</time>
      </trkpt>
      <trkpt lat="43.60377" lon="6.23885">
        <ele>437.600006</ele>
        <time>2013-02-03T12:31:33Z</time>
      </trkpt>
      <trkpt lat="43.60394" lon="6.23885">
        <ele>438.899994</ele>
        <time>2013-02-03T12:31:58Z</time>
      </trkpt>
      <trkpt lat="43.60402" lon="6.23889">
        <ele>439.899994</ele>
        <time>2013-02-03T12:32:06Z</time>
      </trkpt>
      <trkpt lat="43.60407" lon="6.23899">
        <ele>441.100006</ele>
        <time>2013-02-03T12:32:17Z</time>
      </trkpt>
      <trkpt lat="43.60411" lon="6.2391">
        <ele>441.700012</ele>
        <time>2013-02-03T12:32:28Z</time>
      </trkpt>
      <trkpt lat="43.60416" lon="6.2392">
        <ele>441.600006</ele>
        <time>2013-02-03T12:32:36Z</time>
      </trkpt>
      <trkpt lat="43.60416" lon="6.23921">
        <ele>441.5</ele>
        <time>2013-02-03T12:32:37Z</time>
      </trkpt>
      <trkpt lat="43.60427" lon="6.23936">
        <ele>442.399994</ele>
        <time>2013-02-03T12:32:52Z</time>
      </trkpt>
      <trkpt lat="43.60434" lon="6.23942">
        <ele>442.399994</ele>
        <time>2013-02-03T12:32:59Z</time>
      </trkpt>
      <trkpt lat="43.60442" lon="6.23946">
        <ele>442.399994</ele>
        <time>2013-02-03T12:33:07Z</time>
      </trkpt>
      <trkpt lat="43.60451" lon="6.2395">
        <ele>443.299988</ele>
        <time>2013-02-03T12:33:15Z</time>
      </trkpt>
      <trkpt lat="43.60459" lon="6.2395">
        <ele>443.299988</ele>
        <time>2013-02-03T12:33:23Z</time>
      </trkpt>
      <trkpt lat="43.60467" lon="6.23951">
        <ele>443.799988</ele>
        <time>2013-02-03T12:33:33Z</time>
      </trkpt>
      <trkpt lat="43.60475" lon="6.23953">
        <ele>443.5</ele>
        <time>2013-02-03T12:33:42Z</time>
      </trkpt>
      <trkpt lat="43.60476" lon="6.23954">
        <ele>443.5</ele>
        <time>2013-02-03T12:33:43Z</time>
      </trkpt>
      <trkpt lat="43.60492" lon="6.23959">
        <ele>444.299988</ele>
        <time>2013-02-03T12:34:00Z</time>
      </trkpt>
      <trkpt lat="43.605" lon="6.23961">
        <ele>444.899994</ele>
        <time>2013-02-03T12:34:10Z</time>
      </trkpt>
      <trkpt lat="43.60506" lon="6.23967">
        <ele>445.399994</ele>
        <time>2013-02-03T12:34:24Z</time>
      </trkpt>
      <trkpt lat="43.60514" lon="6.23972">
        <ele>445.700012</ele>
        <time>2013-02-03T12:34:33Z</time>
      </trkpt>
      <trkpt lat="43.60522" lon="6.23977">
        <ele>445.100006</ele>
        <time>2013-02-03T12:34:43Z</time>
      </trkpt>
      <trkpt lat="43.60523" lon="6.23978">
        <ele>445.100006</ele>
        <time>2013-02-03T12:34:44Z</time>
      </trkpt>
      <trkpt lat="43.60532" lon="6.23995">
        <ele>445.899994</ele>
        <time>2013-02-03T12:34:58Z</time>
      </trkpt>
      <trkpt lat="43.60536" lon="6.24005">
        <ele>445.700012</ele>
        <time>2013-02-03T12:35:05Z</time>
      </trkpt>
      <trkpt lat="43.60532" lon="6.24016">
        <ele>444.600006</ele>
        <time>2013-02-03T12:35:20Z</time>
      </trkpt>
      <trkpt lat="43.60535" lon="6.24026">
        <ele>444.899994</ele>
        <time>2013-02-03T12:35:27Z</time>
      </trkpt>
      <trkpt lat="43.60538" lon="6.24037">
        <ele>445.600006</ele>
        <time>2013-02-03T12:35:36Z</time>
      </trkpt>
      <trkpt lat="43.60546" lon="6.24033">
        <ele>446</ele>
        <time>2013-02-03T12:35:47Z</time>
      </trkpt>
      <trkpt lat="43.60547" lon="6.24033">
        <ele>446</ele>
        <time>2013-02-03T12:35:48Z</time>
      </trkpt>
      <trkpt lat="43.6056" lon="6.2404">
        <ele>448.600006</ele>
        <time>2013-02-03T12:37:23Z</time>
      </trkpt>
      <trkpt lat="43.6056" lon="6.24041">
        <ele>448.399994</ele>
        <time>2013-02-03T12:37:24Z</time>
      </trkpt>
      <trkpt lat="43.60565" lon="6.24061">
        <ele>448.399994</ele>
        <time>2013-02-03T12:37:39Z</time>
      </trkpt>
      <trkpt lat="43.60571" lon="6.24069">
        <ele>449.200012</ele>
        <time>2013-02-03T12:37:47Z</time>
      </trkpt>
      <trkpt lat="43.60577" lon="6.24077">
        <ele>448.899994</ele>
        <time>2013-02-03T12:37:55Z</time>
      </trkpt>
      <trkpt lat="43.60582" lon="6.24086">
        <ele>449.299988</ele>
        <time>2013-02-03T12:38:02Z</time>
      </trkpt>
      <trkpt lat="43.60588" lon="6.24094">
        <ele>449.700012</ele>
        <time>2013-02-03T12:38:11Z</time>
      </trkpt>
      <trkpt lat="43.60595" lon="6.24102">
        <ele>450.700012</ele>
        <time>2013-02-03T12:38:21Z</time>
      </trkpt>
      <trkpt lat="43.60601" lon="6.24111">
        <ele>451.600006</ele>
        <time>2013-02-03T12:38:31Z</time>
      </trkpt>
      <trkpt lat="43.60602" lon="6.24112">
        <ele>451.899994</ele>
        <time>2013-02-03T12:38:32Z</time>
      </trkpt>
      <trkpt lat="43.60609" lon="6.24133">
        <ele>452.299988</ele>
        <time>2013-02-03T12:38:49Z</time>
      </trkpt>
      <trkpt lat="43.60612" lon="6.24144">
        <ele>453.399994</ele>
        <time>2013-02-03T12:39:00Z</time>
      </trkpt>
      <trkpt lat="43.60617" lon="6.24154">
        <ele>453.299988</ele>
        <time>2013-02-03T12:39:12Z</time>
      </trkpt>
      <trkpt lat="43.60624" lon="6.24161">
        <ele>455.5</ele>
        <time>2013-02-03T12:39:28Z</time>
      </trkpt>
      <trkpt lat="43.6063" lon="6.24168">
        <ele>457.299988</ele>
        <time>2013-02-03T12:39:41Z</time>
      </trkpt>
      <trkpt lat="43.60631" lon="6.24168">
        <ele>457.399994</ele>
        <time>2013-02-03T12:39:42Z</time>
      </trkpt>
      <trkpt lat="43.60646" lon="6.24174">
        <ele>457.700012</ele>
        <time>2013-02-03T12:39:57Z</time>
      </trkpt>
      <trkpt lat="43.6065" lon="6.24184">
        <ele>456.399994</ele>
        <time>2013-02-03T12:40:07Z</time>
      </trkpt>
      <trkpt lat="43.60655" lon="6.24194">
        <ele>457.899994</ele>
        <time>2013-02-03T12:40:18Z</time>
      </trkpt>
      <trkpt lat="43.60661" lon="6.24203">
        <ele>458.700012</ele>
        <time>2013-02-03T12:40:27Z</time>
      </trkpt>
      <trkpt lat="43.60666" lon="6.24212">
        <ele>458.200012</ele>
        <time>2013-02-03T12:40:36Z</time>
      </trkpt>
      <trkpt lat="43.6067" lon="6.24221">
        <ele>459</ele>
        <time>2013-02-03T12:40:44Z</time>
      </trkpt>
      <trkpt lat="43.60671" lon="6.24223">
        <ele>459</ele>
        <time>2013-02-03T12:40:45Z</time>
      </trkpt>
      <trkpt lat="43.60675" lon="6.24243">
        <ele>458.399994</ele>
        <time>2013-02-03T12:40:58Z</time>
      </trkpt>
      <trkpt lat="43.60675" lon="6.24255">
        <ele>458.399994</ele>
        <time>2013-02-03T12:41:06Z</time>
      </trkpt>
      <trkpt lat="43.60673" lon="6.24266">
        <ele>459.100006</ele>
        <time>2013-02-03T12:41:15Z</time>
      </trkpt>
      <trkpt lat="43.60673" lon="6.24278">
        <ele>458.5</ele>
        <time>2013-02-03T12:41:23Z</time>
      </trkpt>
      <trkpt lat="43.60674" lon="6.2429">
        <ele>459.299988</ele>
        <time>2013-02-03T12:41:33Z</time>
      </trkpt>
      <trkpt lat="43.60677" lon="6.243">
        <ele>460</ele>
        <time>2013-02-03T12:41:40Z</time>
      </trkpt>
      <trkpt lat="43.60682" lon="6.2431">
        <ele>460</ele>
        <time>2013-02-03T12:41:49Z</time>
      </trkpt>
      <trkpt lat="43.60683" lon="6.24312">
        <ele>459.899994</ele>
        <time>2013-02-03T12:41:50Z</time>
      </trkpt>
      <trkpt lat="43.60696" lon="6.24323">
        <ele>459.899994</ele>
        <time>2013-02-03T12:42:03Z</time>
      </trkpt>
      <trkpt lat="43.60704" lon="6.24328">
        <ele>460</ele>
        <time>2013-02-03T12:42:10Z</time>
      </trkpt>
      <trkpt lat="43.60712" lon="6.24333">
        <ele>461.299988</ele>
        <time>2013-02-03T12:43:41Z</time>
      </trkpt>
      <trkpt lat="43.60713" lon="6.24334">
        <ele>461.600006</ele>
        <time>2013-02-03T12:43:42Z</time>
      </trkpt>
      <trkpt lat="43.60723" lon="6.2435">
        <ele>459.399994</ele>
        <time>2013-02-03T12:43:59Z</time>
      </trkpt>
      <trkpt lat="43.60726" lon="6.24361">
        <ele>460.700012</ele>
        <time>2013-02-03T12:44:09Z</time>
      </trkpt>
      <trkpt lat="43.60729" lon="6.24373">
        <ele>461.299988</ele>
        <time>2013-02-03T12:44:20Z</time>
      </trkpt>
      <trkpt lat="43.60737" lon="6.24375">
        <ele>462.200012</ele>
        <time>2013-02-03T12:44:27Z</time>
      </trkpt>
      <trkpt lat="43.60745" lon="6.2438">
        <ele>463.399994</ele>
        <time>2013-02-03T12:44:37Z</time>
      </trkpt>
      <trkpt lat="43.60753" lon="6.24384">
        <ele>462.899994</ele>
        <time>2013-02-03T12:44:45Z</time>
      </trkpt>
      <trkpt lat="43.60755" lon="6.24385">
        <ele>462.799988</ele>
        <time>2013-02-03T12:44:46Z</time>
      </trkpt>
      <trkpt lat="43.60768" lon="6.24398">
        <ele>465.200012</ele>
        <time>2013-02-03T12:45:03Z</time>
      </trkpt>
      <trkpt lat="43.60774" lon="6.24405">
        <ele>464.799988</ele>
        <time>2013-02-03T12:45:11Z</time>
      </trkpt>
      <trkpt lat="43.6078" lon="6.24413">
        <ele>465.299988</ele>
        <time>2013-02-03T12:45:17Z</time>
      </trkpt>
      <trkpt lat="43.60788" lon="6.24418">
        <ele>466.299988</ele>
        <time>2013-02-03T12:45:26Z</time>
      </trkpt>
      <trkpt lat="43.60795" lon="6.24426">
        <ele>466.799988</ele>
        <time>2013-02-03T12:45:35Z</time>
      </trkpt>
      <trkpt lat="43.60801" lon="6.24434">
        <ele>466.700012</ele>
        <time>2013-02-03T12:45:44Z</time>
      </trkpt>
      <trkpt lat="43.60807" lon="6.24443">
        <ele>467.399994</ele>
        <time>2013-02-03T12:45:52Z</time>
      </trkpt>
      <trkpt lat="43.60807" lon="6.24445">
        <ele>467.5</ele>
        <time>2013-02-03T12:45:53Z</time>
      </trkpt>
      <trkpt lat="43.60817" lon="6.24461">
        <ele>467.299988</ele>
        <time>2013-02-03T12:46:09Z</time>
      </trkpt>
      <trkpt lat="43.60822" lon="6.24469">
        <ele>467.200012</ele>
        <time>2013-02-03T12:46:18Z</time>
      </trkpt>
      <trkpt lat="43.60828" lon="6.24477">
        <ele>467.299988</ele>
        <time>2013-02-03T12:46:26Z</time>
      </trkpt>
      <trkpt lat="43.60832" lon="6.24488">
        <ele>468.700012</ele>
        <time>2013-02-03T12:46:35Z</time>
      </trkpt>
      <trkpt lat="43.60834" lon="6.24499">
        <ele>469.399994</ele>
        <time>2013-02-03T12:46:45Z</time>
      </trkpt>
      <trkpt lat="43.60838" lon="6.24509">
        <ele>470.899994</ele>
        <time>2013-02-03T12:46:53Z</time>
      </trkpt>
      <trkpt lat="43.60839" lon="6.2451">
        <ele>471.100006</ele>
        <time>2013-02-03T12:46:54Z</time>
      </trkpt>
      <trkpt lat="43.60847" lon="6.24529">
        <ele>472.399994</ele>
        <time>2013-02-03T12:47:12Z</time>
      </trkpt>
      <trkpt lat="43.60854" lon="6.24535">
        <ele>473.5</ele>
        <time>2013-02-03T12:47:23Z</time>
      </trkpt>
      <trkpt lat="43.60862" lon="6.24541">
        <ele>475.299988</ele>
        <time>2013-02-03T12:47:33Z</time>
      </trkpt>
      <trkpt lat="43.60868" lon="6.24548">
        <ele>476.799988</ele>
        <time>2013-02-03T12:47:42Z</time>
      </trkpt>
      <trkpt lat="43.60875" lon="6.24555">
        <ele>478.600006</ele>
        <time>2013-02-03T12:47:52Z</time>
      </trkpt>
      <trkpt lat="43.60879" lon="6.24565">
        <ele>478.799988</ele>
        <time>2013-02-03T12:48:03Z</time>
      </trkpt>
      <trkpt lat="43.60879" lon="6.24567">
        <ele>478.899994</ele>
        <time>2013-02-03T12:48:04Z</time>
      </trkpt>
      <trkpt lat="43.60883" lon="6.24588">
        <ele>482.100006</ele>
        <time>2013-02-03T12:48:22Z</time>
      </trkpt>
      <trkpt lat="43.60884" lon="6.24599">
        <ele>482.299988</ele>
        <time>2013-02-03T12:48:31Z</time>
      </trkpt>
      <trkpt lat="43.60886" lon="6.24611">
        <ele>481.799988</ele>
        <time>2013-02-03T12:48:41Z</time>
      </trkpt>
      <trkpt lat="43.60888" lon="6.24623">
        <ele>481.700012</ele>
        <time>2013-02-03T12:50:33Z</time>
      </trkpt>
      <trkpt lat="43.60888" lon="6.24623">
        <ele>481.799988</ele>
        <time>2013-02-03T12:50:34Z</time>
      </trkpt>
      <trkpt lat="43.60885" lon="6.24635">
        <ele>481.100006</ele>
        <time>2013-02-03T12:51:50Z</time>
      </trkpt>
      <trkpt lat="43.60888" lon="6.24656">
        <ele>482.5</ele>
        <time>2013-02-03T12:52:04Z</time>
      </trkpt>
      <trkpt lat="43.60891" lon="6.24667">
        <ele>482.799988</ele>
        <time>2013-02-03T12:52:11Z</time>
      </trkpt>
      <trkpt lat="43.60893" lon="6.24679">
        <ele>484.399994</ele>
        <time>2013-02-03T12:52:19Z</time>
      </trkpt>
      <trkpt lat="43.60895" lon="6.24689">
        <ele>484.100006</ele>
        <time>2013-02-03T12:52:26Z</time>
      </trkpt>
      <trkpt lat="43.60897" lon="6.247">
        <ele>484.799988</ele>
        <time>2013-02-03T12:52:33Z</time>
      </trkpt>
      <trkpt lat="43.609" lon="6.2471">
        <ele>484.799988</ele>
        <time>2013-02-03T12:52:40Z</time>
      </trkpt>
      <trkpt lat="43.60902" lon="6.24721">
        <ele>485.5</ele>
        <time>2013-02-03T12:52:47Z</time>
      </trkpt>
      <trkpt lat="43.60902" lon="6.24733">
        <ele>486.399994</ele>
        <time>2013-02-03T12:52:56Z</time>
      </trkpt>
      <trkpt lat="43.60902" lon="6.24734">
        <ele>486.5</ele>
        <time>2013-02-03T12:52:57Z</time>
      </trkpt>
      <trkpt lat="43.60901" lon="6.24757">
        <ele>488.700012</ele>
        <time>2013-02-03T12:53:14Z</time>
      </trkpt>
      <trkpt lat="43.60902" lon="6.24768">
        <ele>489.700012</ele>
        <time>2013-02-03T12:53:22Z</time>
      </trkpt>
      <trkpt lat="43.60902" lon="6.2478">
        <ele>490.100006</ele>
        <time>2013-02-03T12:53:30Z</time>
      </trkpt>
      <trkpt lat="43.60904" lon="6.24792">
        <ele>491</ele>
        <time>2013-02-03T12:53:38Z</time>
      </trkpt>
      <trkpt lat="43.60906" lon="6.24803">
        <ele>491.399994</ele>
        <time>2013-02-03T12:53:46Z</time>
      </trkpt>
      <trkpt lat="43.60907" lon="6.24814">
        <ele>492</ele>
        <time>2013-02-03T12:53:55Z</time>
      </trkpt>
      <trkpt lat="43.60907" lon="6.24825">
        <ele>492.200012</ele>
        <time>2013-02-03T12:54:02Z</time>
      </trkpt>
      <trkpt lat="43.60907" lon="6.24827">
        <ele>492.299988</ele>
        <time>2013-02-03T12:54:03Z</time>
      </trkpt>
      <trkpt lat="43.60906" lon="6.24848">
        <ele>493.399994</ele>
        <time>2013-02-03T12:54:18Z</time>
      </trkpt>
      <trkpt lat="43.60905" lon="6.2486">
        <ele>493</ele>
        <time>2013-02-03T12:54:27Z</time>
      </trkpt>
      <trkpt lat="43.60902" lon="6.24872">
        <ele>493.899994</ele>
        <time>2013-02-03T12:54:35Z</time>
      </trkpt>
      <trkpt lat="43.60898" lon="6.24882">
        <ele>495.200012</ele>
        <time>2013-02-03T12:54:43Z</time>
      </trkpt>
      <trkpt lat="43.60891" lon="6.2489">
        <ele>495.5</ele>
        <time>2013-02-03T12:54:52Z</time>
      </trkpt>
      <trkpt lat="43.60884" lon="6.24898">
        <ele>496.899994</ele>
        <time>2013-02-03T12:55:01Z</time>
      </trkpt>
      <trkpt lat="43.60878" lon="6.24906">
        <ele>497</ele>
        <time>2013-02-03T12:55:10Z</time>
      </trkpt>
      <trkpt lat="43.60878" lon="6.24907">
        <ele>497.200012</ele>
        <time>2013-02-03T12:55:11Z</time>
      </trkpt>
      <trkpt lat="43.6087" lon="6.24926">
        <ele>499.399994</ele>
        <time>2013-02-03T12:55:27Z</time>
      </trkpt>
      <trkpt lat="43.60866" lon="6.24936">
        <ele>499.399994</ele>
        <time>2013-02-03T12:55:35Z</time>
      </trkpt>
      <trkpt lat="43.60863" lon="6.24948">
        <ele>499.200012</ele>
        <time>2013-02-03T12:55:43Z</time>
      </trkpt>
      <trkpt lat="43.60859" lon="6.24958">
        <ele>498.5</ele>
        <time>2013-02-03T12:55:50Z</time>
      </trkpt>
      <trkpt lat="43.60855" lon="6.24969">
        <ele>498.5</ele>
        <time>2013-02-03T12:55:57Z</time>
      </trkpt>
      <trkpt lat="43.60852" lon="6.24981">
        <ele>497.600006</ele>
        <time>2013-02-03T12:56:05Z</time>
      </trkpt>
      <trkpt lat="43.60848" lon="6.24991">
        <ele>497</ele>
        <time>2013-02-03T12:56:13Z</time>
      </trkpt>
      <trkpt lat="43.60847" lon="6.24993">
        <ele>496.899994</ele>
        <time>2013-02-03T12:56:14Z</time>
      </trkpt>
      <trkpt lat="43.6084" lon="6.25012">
        <ele>496.100006</ele>
        <time>2013-02-03T12:56:28Z</time>
      </trkpt>
      <trkpt lat="43.60835" lon="6.25023">
        <ele>495.299988</ele>
        <time>2013-02-03T12:56:36Z</time>
      </trkpt>
      <trkpt lat="43.60831" lon="6.25033">
        <ele>494.899994</ele>
        <time>2013-02-03T12:56:44Z</time>
      </trkpt>
      <trkpt lat="43.60826" lon="6.25042">
        <ele>495.399994</ele>
        <time>2013-02-03T12:56:53Z</time>
      </trkpt>
      <trkpt lat="43.6082" lon="6.2505">
        <ele>495.100006</ele>
        <time>2013-02-03T12:57:00Z</time>
      </trkpt>
      <trkpt lat="43.60813" lon="6.25056">
        <ele>495.100006</ele>
        <time>2013-02-03T12:57:07Z</time>
      </trkpt>
      <trkpt lat="43.60806" lon="6.25061">
        <ele>495.899994</ele>
        <time>2013-02-03T12:57:14Z</time>
      </trkpt>
      <trkpt lat="43.60805" lon="6.25062">
        <ele>495.799988</ele>
        <time>2013-02-03T12:57:15Z</time>
      </trkpt>
      <trkpt lat="43.60789" lon="6.25069">
        <ele>496.100006</ele>
        <time>2013-02-03T12:57:29Z</time>
      </trkpt>
      <trkpt lat="43.60783" lon="6.25077">
        <ele>496</ele>
        <time>2013-02-03T12:57:37Z</time>
      </trkpt>
      <trkpt lat="43.60777" lon="6.25086">
        <ele>495.899994</ele>
        <time>2013-02-03T12:57:45Z</time>
      </trkpt>
      <trkpt lat="43.60769" lon="6.25092">
        <ele>496.799988</ele>
        <time>2013-02-03T12:57:53Z</time>
      </trkpt>
      <trkpt lat="43.60762" lon="6.25098">
        <ele>497.799988</ele>
        <time>2013-02-03T12:58:00Z</time>
      </trkpt>
      <trkpt lat="43.60757" lon="6.25108">
        <ele>498.100006</ele>
        <time>2013-02-03T12:58:08Z</time>
      </trkpt>
      <trkpt lat="43.60751" lon="6.25115">
        <ele>498.399994</ele>
        <time>2013-02-03T12:58:21Z</time>
      </trkpt>
      <trkpt lat="43.6075" lon="6.25117">
        <ele>498.600006</ele>
        <time>2013-02-03T12:58:22Z</time>
      </trkpt>
      <trkpt lat="43.60741" lon="6.25132">
        <ele>499.799988</ele>
        <time>2013-02-03T12:58:37Z</time>
      </trkpt>
      <trkpt lat="43.60736" lon="6.25143">
        <ele>500.299988</ele>
        <time>2013-02-03T12:58:48Z</time>
      </trkpt>
      <trkpt lat="43.60731" lon="6.25152">
        <ele>500.700012</ele>
        <time>2013-02-03T12:58:58Z</time>
      </trkpt>
      <trkpt lat="43.60725" lon="6.25161">
        <ele>502.299988</ele>
        <time>2013-02-03T12:59:08Z</time>
      </trkpt>
      <trkpt lat="43.60721" lon="6.25171">
        <ele>502.399994</ele>
        <time>2013-02-03T12:59:16Z</time>
      </trkpt>
      <trkpt lat="43.60715" lon="6.2518">
        <ele>503.700012</ele>
        <time>2013-02-03T12:59:25Z</time>
      </trkpt>
      <trkpt lat="43.60715" lon="6.25182">
        <ele>503.600006</ele>
        <time>2013-02-03T12:59:26Z</time>
      </trkpt>
      <trkpt lat="43.60705" lon="6.25199">
        <ele>505.200012</ele>
        <time>2013-02-03T12:59:42Z</time>
      </trkpt>
      <trkpt lat="43.60698" lon="6.25206">
        <ele>505.399994</ele>
        <time>2013-02-03T13:01:59Z</time>
      </trkpt>
      <trkpt lat="43.60697" lon="6.25206">
        <ele>505.600006</ele>
        <time>2013-02-03T13:02:00Z</time>
      </trkpt>
      <trkpt lat="43.60683" lon="6.25217">
        <ele>506.899994</ele>
        <time>2013-02-03T13:02:15Z</time>
      </trkpt>
      <trkpt lat="43.60679" lon="6.25227">
        <ele>507.799988</ele>
        <time>2013-02-03T13:02:23Z</time>
      </trkpt>
      <trkpt lat="43.60672" lon="6.25235">
        <ele>508.899994</ele>
        <time>2013-02-03T13:02:33Z</time>
      </trkpt>
      <trkpt lat="43.60667" lon="6.25245">
        <ele>509.200012</ele>
        <time>2013-02-03T13:02:43Z</time>
      </trkpt>
      <trkpt lat="43.6066" lon="6.25252">
        <ele>511.200012</ele>
        <time>2013-02-03T13:02:53Z</time>
      </trkpt>
      <trkpt lat="43.60653" lon="6.25259">
        <ele>512.400024</ele>
        <time>2013-02-03T13:03:04Z</time>
      </trkpt>
      <trkpt lat="43.60652" lon="6.2526">
        <ele>512.200012</ele>
        <time>2013-02-03T13:03:05Z</time>
      </trkpt>
      <trkpt lat="43.60642" lon="6.25246">
        <ele>513.799988</ele>
        <time>2013-02-03T13:03:29Z</time>
      </trkpt>
      <trkpt lat="43.60639" lon="6.25235">
        <ele>514.5</ele>
        <time>2013-02-03T13:03:39Z</time>
      </trkpt>
      <trkpt lat="43.60632" lon="6.25228">
        <ele>514.5</ele>
        <time>2013-02-03T13:03:49Z</time>
      </trkpt>
      <trkpt lat="43.60624" lon="6.25224">
        <ele>515.599976</ele>
        <time>2013-02-03T13:04:00Z</time>
      </trkpt>
      <trkpt lat="43.60616" lon="6.25222">
        <ele>516.099976</ele>
        <time>2013-02-03T13:04:11Z</time>
      </trkpt>
      <trkpt lat="43.60615" lon="6.25221">
        <ele>516.099976</ele>
        <time>2013-02-03T13:04:12Z</time>
      </trkpt>
      <trkpt lat="43.60601" lon="6.25209">
        <ele>517.5</ele>
        <time>2013-02-03T13:04:29Z</time>
      </trkpt>
      <trkpt lat="43.60594" lon="6.25204">
        <ele>518.5</ele>
        <time>2013-02-03T13:04:40Z</time>
      </trkpt>
      <trkpt lat="43.60585" lon="6.25203">
        <ele>518.900024</ele>
        <time>2013-02-03T13:05:30Z</time>
      </trkpt>
      <trkpt lat="43.60585" lon="6.25203">
        <ele>518.900024</ele>
        <time>2013-02-03T13:05:31Z</time>
      </trkpt>
      <trkpt lat="43.60581" lon="6.25192">
        <ele>520.200012</ele>
        <time>2013-02-03T13:07:03Z</time>
      </trkpt>
      <trkpt lat="43.60574" lon="6.25172">
        <ele>518.700012</ele>
        <time>2013-02-03T13:07:23Z</time>
      </trkpt>
      <trkpt lat="43.6057" lon="6.25162">
        <ele>519.099976</ele>
        <time>2013-02-03T13:07:31Z</time>
      </trkpt>
      <trkpt lat="43.60565" lon="6.25153">
        <ele>518.5</ele>
        <time>2013-02-03T13:07:39Z</time>
      </trkpt>
      <trkpt lat="43.60559" lon="6.25145">
        <ele>519.299988</ele>
        <time>2013-02-03T13:07:48Z</time>
      </trkpt>
      <trkpt lat="43.60553" lon="6.25136">
        <ele>519.400024</ele>
        <time>2013-02-03T13:07:56Z</time>
      </trkpt>
      <trkpt lat="43.60548" lon="6.25128">
        <ele>519</ele>
        <time>2013-02-03T13:08:04Z</time>
      </trkpt>
      <trkpt lat="43.60547" lon="6.25126">
        <ele>519</ele>
        <time>2013-02-03T13:08:05Z</time>
      </trkpt>
      <trkpt lat="43.60538" lon="6.25109">
        <ele>518.5</ele>
        <time>2013-02-03T13:08:20Z</time>
      </trkpt>
      <trkpt lat="43.60533" lon="6.25099">
        <ele>518.099976</ele>
        <time>2013-02-03T13:08:28Z</time>
      </trkpt>
      <trkpt lat="43.60529" lon="6.25089">
        <ele>517.599976</ele>
        <time>2013-02-03T13:08:35Z</time>
      </trkpt>
      <trkpt lat="43.60522" lon="6.25082">
        <ele>517.400024</ele>
        <time>2013-02-03T13:08:44Z</time>
      </trkpt>
      <trkpt lat="43.60514" lon="6.25077">
        <ele>518</ele>
        <time>2013-02-03T13:08:51Z</time>
      </trkpt>
      <trkpt lat="43.60508" lon="6.25069">
        <ele>517.799988</ele>
        <time>2013-02-03T13:08:59Z</time>
      </trkpt>
      <trkpt lat="43.60502" lon="6.2506">
        <ele>518.5</ele>
        <time>2013-02-03T13:09:07Z</time>
      </trkpt>
      <trkpt lat="43.60501" lon="6.25059">
        <ele>518.400024</ele>
        <time>2013-02-03T13:09:08Z</time>
      </trkpt>
      <trkpt lat="43.60486" lon="6.2505">
        <ele>518.700012</ele>
        <time>2013-02-03T13:09:23Z</time>
      </trkpt>
      <trkpt lat="43.60477" lon="6.25049">
        <ele>518.599976</ele>
        <time>2013-02-03T13:09:33Z</time>
      </trkpt>
      <trkpt lat="43.6047" lon="6.25046">
        <ele>518.200012</ele>
        <time>2013-02-03T13:09:41Z</time>
      </trkpt>
      <trkpt lat="43.60463" lon="6.25039">
        <ele>518.099976</ele>
        <time>2013-02-03T13:09:47Z</time>
      </trkpt>
      <trkpt lat="43.60457" lon="6.25032">
        <ele>517.700012</ele>
        <time>2013-02-03T13:09:54Z</time>
      </trkpt>
      <trkpt lat="43.60453" lon="6.25021">
        <ele>517</ele>
        <time>2013-02-03T13:10:03Z</time>
      </trkpt>
      <trkpt lat="43.60447" lon="6.25013">
        <ele>516.799988</ele>
        <time>2013-02-03T13:10:09Z</time>
      </trkpt>
      <trkpt lat="43.60447" lon="6.25012">
        <ele>516.900024</ele>
        <time>2013-02-03T13:10:10Z</time>
      </trkpt>
      <trkpt lat="43.60442" lon="6.24993">
        <ele>516</ele>
        <time>2013-02-03T13:10:26Z</time>
      </trkpt>
      <trkpt lat="43.60438" lon="6.24983">
        <ele>516.299988</ele>
        <time>2013-02-03T13:10:33Z</time>
      </trkpt>
      <trkpt lat="43.60434" lon="6.24973">
        <ele>515.700012</ele>
        <time>2013-02-03T13:10:40Z</time>
      </trkpt>
      <trkpt lat="43.60431" lon="6.24962">
        <ele>515</ele>
        <time>2013-02-03T13:10:47Z</time>
      </trkpt>
      <trkpt lat="43.60428" lon="6.24951">
        <ele>514.599976</ele>
        <time>2013-02-03T13:10:55Z</time>
      </trkpt>
      <trkpt lat="43.60424" lon="6.24941">
        <ele>514.299988</ele>
        <time>2013-02-03T13:11:01Z</time>
      </trkpt>
      <trkpt lat="43.60421" lon="6.24929">
        <ele>513.599976</ele>
        <time>2013-02-03T13:11:09Z</time>
      </trkpt>
      <trkpt lat="43.60417" lon="6.24919">
        <ele>513.299988</ele>
        <time>2013-02-03T13:11:18Z</time>
      </trkpt>
      <trkpt lat="43.60416" lon="6.24918">
        <ele>513.299988</ele>
        <time>2013-02-03T13:11:19Z</time>
      </trkpt>
      <trkpt lat="43.60405" lon="6.24904">
        <ele>513.099976</ele>
        <time>2013-02-03T13:11:32Z</time>
      </trkpt>
      <trkpt lat="43.604" lon="6.24894">
        <ele>510.700012</ele>
        <time>2013-02-03T13:11:41Z</time>
      </trkpt>
      <trkpt lat="43.60392" lon="6.24889">
        <ele>509.299988</ele>
        <time>2013-02-03T13:11:51Z</time>
      </trkpt>
      <trkpt lat="43.60385" lon="6.24883">
        <ele>508.200012</ele>
        <time>2013-02-03T13:12:00Z</time>
      </trkpt>
      <trkpt lat="43.60379" lon="6.24875">
        <ele>506.899994</ele>
        <time>2013-02-03T13:12:08Z</time>
      </trkpt>
      <trkpt lat="43.60372" lon="6.2487">
        <ele>506.299988</ele>
        <time>2013-02-03T13:12:14Z</time>
      </trkpt>
      <trkpt lat="43.60364" lon="6.24866">
        <ele>504.899994</ele>
        <time>2013-02-03T13:12:24Z</time>
      </trkpt>
      <trkpt lat="43.60363" lon="6.24865">
        <ele>505.100006</ele>
        <time>2013-02-03T13:12:25Z</time>
      </trkpt>
      <trkpt lat="43.60347" lon="6.24863">
        <ele>502.600006</ele>
        <time>2013-02-03T13:12:47Z</time>
      </trkpt>
      <trkpt lat="43.60339" lon="6.24863">
        <ele>501.5</ele>
        <time>2013-02-03T13:12:54Z</time>
      </trkpt>
      <trkpt lat="43.60331" lon="6.24863">
        <ele>501.200012</ele>
        <time>2013-02-03T13:13:01Z</time>
      </trkpt>
      <trkpt lat="43.60324" lon="6.24857">
        <ele>498.700012</ele>
        <time>2013-02-03T13:13:19Z</time>
      </trkpt>
      <trkpt lat="43.60316" lon="6.24851">
        <ele>496.399994</ele>
        <time>2013-02-03T13:13:30Z</time>
      </trkpt>
      <trkpt lat="43.60314" lon="6.2485">
        <ele>496.299988</ele>
        <time>2013-02-03T13:13:31Z</time>
      </trkpt>
      <trkpt lat="43.60306" lon="6.24834">
        <ele>494.799988</ele>
        <time>2013-02-03T13:13:52Z</time>
      </trkpt>
      <trkpt lat="43.60302" lon="6.24823">
        <ele>494.100006</ele>
        <time>2013-02-03T13:14:04Z</time>
      </trkpt>
      <trkpt lat="43.60298" lon="6.24814">
        <ele>493.799988</ele>
        <time>2013-02-03T13:14:11Z</time>
      </trkpt>
      <trkpt lat="43.60296" lon="6.24803">
        <ele>492</ele>
        <time>2013-02-03T13:14:23Z</time>
      </trkpt>
      <trkpt lat="43.60293" lon="6.24792">
        <ele>491.5</ele>
        <time>2013-02-03T13:14:31Z</time>
      </trkpt>
      <trkpt lat="43.60293" lon="6.2479">
        <ele>491.5</ele>
        <time>2013-02-03T13:14:32Z</time>
      </trkpt>
      <trkpt lat="43.60284" lon="6.24773">
        <ele>491.200012</ele>
        <time>2013-02-03T13:14:47Z</time>
      </trkpt>
      <trkpt lat="43.60279" lon="6.24764">
        <ele>491.200012</ele>
        <time>2013-02-03T13:14:55Z</time>
      </trkpt>
      <trkpt lat="43.60274" lon="6.24754">
        <ele>491.700012</ele>
        <time>2013-02-03T13:15:07Z</time>
      </trkpt>
      <trkpt lat="43.60272" lon="6.24742">
        <ele>489.799988</ele>
        <time>2013-02-03T13:15:20Z</time>
      </trkpt>
      <trkpt lat="43.60273" lon="6.2473">
        <ele>489.600006</ele>
        <time>2013-02-03T13:15:31Z</time>
      </trkpt>
      <trkpt lat="43.60274" lon="6.24718">
        <ele>486.700012</ele>
        <time>2013-02-03T13:15:48Z</time>
      </trkpt>
      <trkpt lat="43.60274" lon="6.24717">
        <ele>486.700012</ele>
        <time>2013-02-03T13:15:49Z</time>
      </trkpt>
      <trkpt lat="43.60275" lon="6.24696">
        <ele>482.600006</ele>
        <time>2013-02-03T13:16:12Z</time>
      </trkpt>
      <trkpt lat="43.6028" lon="6.24686">
        <ele>480.200012</ele>
        <time>2013-02-03T13:16:28Z</time>
      </trkpt>
      <trkpt lat="43.60285" lon="6.24677">
        <ele>478.399994</ele>
        <time>2013-02-03T13:16:38Z</time>
      </trkpt>
      <trkpt lat="43.60289" lon="6.24666">
        <ele>477.5</ele>
        <time>2013-02-03T13:16:48Z</time>
      </trkpt>
      <trkpt lat="43.60281" lon="6.24663">
        <ele>476.200012</ele>
        <time>2013-02-03T13:17:00Z</time>
      </trkpt>
      <trkpt lat="43.60279" lon="6.24663">
        <ele>476.399994</ele>
        <time>2013-02-03T13:17:01Z</time>
      </trkpt>
      <trkpt lat="43.60271" lon="6.24648">
        <ele>474.100006</ele>
        <time>2013-02-03T13:17:20Z</time>
      </trkpt>
      <trkpt lat="43.60278" lon="6.24642">
        <ele>472.799988</ele>
        <time>2013-02-03T13:17:28Z</time>
      </trkpt>
      <trkpt lat="43.60285" lon="6.24635">
        <ele>471.399994</ele>
        <time>2013-02-03T13:17:37Z</time>
      </trkpt>
      <trkpt lat="43.60287" lon="6.24623">
        <ele>470</ele>
        <time>2013-02-03T13:17:45Z</time>
      </trkpt>
      <trkpt lat="43.60289" lon="6.24611">
        <ele>468.100006</ele>
        <time>2013-02-03T13:17:58Z</time>
      </trkpt>
      <trkpt lat="43.60283" lon="6.24602">
        <ele>467.100006</ele>
        <time>2013-02-03T13:18:04Z</time>
      </trkpt>
      <trkpt lat="43.60282" lon="6.24602">
        <ele>467</ele>
        <time>2013-02-03T13:18:05Z</time>
      </trkpt>
      <trkpt lat="43.60268" lon="6.2459">
        <ele>464.5</ele>
        <time>2013-02-03T13:18:21Z</time>
      </trkpt>
      <trkpt lat="43.6026" lon="6.24586">
        <ele>464.200012</ele>
        <time>2013-02-03T13:18:27Z</time>
      </trkpt>
      <trkpt lat="43.60253" lon="6.24594">
        <ele>464.799988</ele>
        <time>2013-02-03T13:19:54Z</time>
      </trkpt>
      <trkpt lat="43.60253" lon="6.24595">
        <ele>465</ele>
        <time>2013-02-03T13:19:55Z</time>
      </trkpt>
      <trkpt lat="43.60247" lon="6.24585">
        <ele>463.5</ele>
        <time>2013-02-03T13:22:21Z</time>
      </trkpt>
      <trkpt lat="43.60232" lon="6.24587">
        <ele>461.200012</ele>
        <time>2013-02-03T13:22:46Z</time>
      </trkpt>
      <trkpt lat="43.60223" lon="6.24588">
        <ele>459.899994</ele>
        <time>2013-02-03T13:22:58Z</time>
      </trkpt>
      <trkpt lat="43.60216" lon="6.24586">
        <ele>458.399994</ele>
        <time>2013-02-03T13:23:07Z</time>
      </trkpt>
      <trkpt lat="43.60207" lon="6.24584">
        <ele>457.200012</ele>
        <time>2013-02-03T13:23:18Z</time>
      </trkpt>
      <trkpt lat="43.60202" lon="6.24592">
        <ele>456</ele>
        <time>2013-02-03T13:23:28Z</time>
      </trkpt>
      <trkpt lat="43.60201" lon="6.24593">
        <ele>455.899994</ele>
        <time>2013-02-03T13:23:29Z</time>
      </trkpt>
      <trkpt lat="43.60189" lon="6.24606">
        <ele>453.399994</ele>
        <time>2013-02-03T13:23:46Z</time>
      </trkpt>
      <trkpt lat="43.6018" lon="6.24609">
        <ele>452.700012</ele>
        <time>2013-02-03T13:23:54Z</time>
      </trkpt>
      <trkpt lat="43.60173" lon="6.24614">
        <ele>452.600006</ele>
        <time>2013-02-03T13:24:00Z</time>
      </trkpt>
      <trkpt lat="43.60165" lon="6.2462">
        <ele>452.100006</ele>
        <time>2013-02-03T13:24:10Z</time>
      </trkpt>
      <trkpt lat="43.60156" lon="6.24619">
        <ele>450.899994</ele>
        <time>2013-02-03T13:24:23Z</time>
      </trkpt>
      <trkpt lat="43.60149" lon="6.24617">
        <ele>450.299988</ele>
        <time>2013-02-03T13:24:32Z</time>
      </trkpt>
      <trkpt lat="43.60147" lon="6.24616">
        <ele>450</ele>
        <time>2013-02-03T13:24:33Z</time>
      </trkpt>
      <trkpt lat="43.60133" lon="6.24612">
        <ele>448.200012</ele>
        <time>2013-02-03T13:24:48Z</time>
      </trkpt>
      <trkpt lat="43.60125" lon="6.24608">
        <ele>447.600006</ele>
        <time>2013-02-03T13:24:55Z</time>
      </trkpt>
      <trkpt lat="43.60117" lon="6.24606">
        <ele>446.899994</ele>
        <time>2013-02-03T13:25:06Z</time>
      </trkpt>
      <trkpt lat="43.60109" lon="6.24604">
        <ele>446.299988</ele>
        <time>2013-02-03T13:25:13Z</time>
      </trkpt>
      <trkpt lat="43.601" lon="6.24601">
        <ele>445.100006</ele>
        <time>2013-02-03T13:25:22Z</time>
      </trkpt>
      <trkpt lat="43.60092" lon="6.24599">
        <ele>443.5</ele>
        <time>2013-02-03T13:25:56Z</time>
      </trkpt>
      <trkpt lat="43.60091" lon="6.24598">
        <ele>443.299988</ele>
        <time>2013-02-03T13:25:57Z</time>
      </trkpt>
      <trkpt lat="43.60078" lon="6.24587">
        <ele>441.299988</ele>
        <time>2013-02-03T13:26:41Z</time>
      </trkpt>
      <trkpt lat="43.60071" lon="6.24581">
        <ele>440.600006</ele>
        <time>2013-02-03T13:26:50Z</time>
      </trkpt>
      <trkpt lat="43.60063" lon="6.24576">
        <ele>440</ele>
        <time>2013-02-03T13:26:58Z</time>
      </trkpt>
      <trkpt lat="43.60063" lon="6.24575">
        <ele>440.100006</ele>
        <time>2013-02-03T13:26:59Z</time>
      </trkpt>
      <trkpt lat="43.60049" lon="6.24563">
        <ele>438.700012</ele>
        <time>2013-02-03T13:27:12Z</time>
      </trkpt>
      <trkpt lat="43.60042" lon="6.24558">
        <ele>438.899994</ele>
        <time>2013-02-03T13:27:20Z</time>
      </trkpt>
      <trkpt lat="43.60035" lon="6.24551">
        <ele>436.5</ele>
        <time>2013-02-03T13:27:28Z</time>
      </trkpt>
      <trkpt lat="43.6003" lon="6.24543">
        <ele>437</ele>
        <time>2013-02-03T13:27:35Z</time>
      </trkpt>
      <trkpt lat="43.60024" lon="6.24535">
        <ele>436.600006</ele>
        <time>2013-02-03T13:27:41Z</time>
      </trkpt>
      <trkpt lat="43.60017" lon="6.24529">
        <ele>436.399994</ele>
        <time>2013-02-03T13:27:48Z</time>
      </trkpt>
      <trkpt lat="43.60009" lon="6.24523">
        <ele>434.700012</ele>
        <time>2013-02-03T13:27:58Z</time>
      </trkpt>
      <trkpt lat="43.60003" lon="6.24515">
        <ele>434.399994</ele>
        <time>2013-02-03T13:28:06Z</time>
      </trkpt>
      <trkpt lat="43.60001" lon="6.24513">
        <ele>434.600006</ele>
        <time>2013-02-03T13:28:07Z</time>
      </trkpt>
      <trkpt lat="43.59989" lon="6.24501">
        <ele>435.200012</ele>
        <time>2013-02-03T13:28:24Z</time>
      </trkpt>
      <trkpt lat="43.59982" lon="6.24493">
        <ele>435.200012</ele>
        <time>2013-02-03T13:28:32Z</time>
      </trkpt>
      <trkpt lat="43.59975" lon="6.24486">
        <ele>435</ele>
        <time>2013-02-03T13:28:40Z</time>
      </trkpt>
      <trkpt lat="43.59969" lon="6.24479">
        <ele>436.100006</ele>
        <time>2013-02-03T13:28:47Z</time>
      </trkpt>
      <trkpt lat="43.59964" lon="6.24471">
        <ele>436.100006</ele>
        <time>2013-02-03T13:28:52Z</time>
      </trkpt>
      <trkpt lat="43.59958" lon="6.24463">
        <ele>436.200012</ele>
        <time>2013-02-03T13:29:04Z</time>
      </trkpt>
      <trkpt lat="43.59952" lon="6.24456">
        <ele>435.299988</ele>
        <time>2013-02-03T13:29:12Z</time>
      </trkpt>
      <trkpt lat="43.59951" lon="6.24455">
        <ele>435.299988</ele>
        <time>2013-02-03T13:29:13Z</time>
      </trkpt>
      <trkpt lat="43.5994" lon="6.2444">
        <ele>435.200012</ele>
        <time>2013-02-03T13:29:26Z</time>
      </trkpt>
      <trkpt lat="43.59934" lon="6.24432">
        <ele>435.399994</ele>
        <time>2013-02-03T13:29:34Z</time>
      </trkpt>
      <trkpt lat="43.59926" lon="6.24428">
        <ele>434.299988</ele>
        <time>2013-02-03T13:30:33Z</time>
      </trkpt>
      <trkpt lat="43.59925" lon="6.24427">
        <ele>433.899994</ele>
        <time>2013-02-03T13:30:34Z</time>
      </trkpt>
      <trkpt lat="43.59912" lon="6.24434">
        <ele>436.100006</ele>
        <time>2013-02-03T13:30:49Z</time>
      </trkpt>
      <trkpt lat="43.59908" lon="6.24444">
        <ele>436.399994</ele>
        <time>2013-02-03T13:30:57Z</time>
      </trkpt>
      <trkpt lat="43.59903" lon="6.24453">
        <ele>437.399994</ele>
        <time>2013-02-03T13:31:03Z</time>
      </trkpt>
      <trkpt lat="43.59897" lon="6.24462">
        <ele>437.200012</ele>
        <time>2013-02-03T13:31:10Z</time>
      </trkpt>
      <trkpt lat="43.59891" lon="6.24469">
        <ele>438</ele>
        <time>2013-02-03T13:31:17Z</time>
      </trkpt>
      <trkpt lat="43.59885" lon="6.24479">
        <ele>438.5</ele>
        <time>2013-02-03T13:31:25Z</time>
      </trkpt>
      <trkpt lat="43.5988" lon="6.24489">
        <ele>438.399994</ele>
        <time>2013-02-03T13:31:32Z</time>
      </trkpt>
      <trkpt lat="43.59874" lon="6.24497">
        <ele>438.5</ele>
        <time>2013-02-03T13:31:41Z</time>
      </trkpt>
      <trkpt lat="43.59874" lon="6.24498">
        <ele>438.299988</ele>
        <time>2013-02-03T13:31:42Z</time>
      </trkpt>
      <trkpt lat="43.59867" lon="6.24517">
        <ele>438.299988</ele>
        <time>2013-02-03T13:31:57Z</time>
      </trkpt>
      <trkpt lat="43.59863" lon="6.24527">
        <ele>438.100006</ele>
        <time>2013-02-03T13:32:06Z</time>
      </trkpt>
      <trkpt lat="43.59858" lon="6.24535">
        <ele>438.299988</ele>
        <time>2013-02-03T13:32:13Z</time>
      </trkpt>
      <trkpt lat="43.59856" lon="6.24546">
        <ele>438.399994</ele>
        <time>2013-02-03T13:32:19Z</time>
      </trkpt>
      <trkpt lat="43.59853" lon="6.24558">
        <ele>438.5</ele>
        <time>2013-02-03T13:32:26Z</time>
      </trkpt>
      <trkpt lat="43.59849" lon="6.24567">
        <ele>438.600006</ele>
        <time>2013-02-03T13:32:32Z</time>
      </trkpt>
      <trkpt lat="43.59845" lon="6.24577">
        <ele>438.399994</ele>
        <time>2013-02-03T13:32:41Z</time>
      </trkpt>
      <trkpt lat="43.59839" lon="6.24586">
        <ele>439.100006</ele>
        <time>2013-02-03T13:32:50Z</time>
      </trkpt>
      <trkpt lat="43.59839" lon="6.24587">
        <ele>438.799988</ele>
        <time>2013-02-03T13:32:51Z</time>
      </trkpt>
      <trkpt lat="43.59832" lon="6.24606">
        <ele>439.100006</ele>
        <time>2013-02-03T13:33:06Z</time>
      </trkpt>
      <trkpt lat="43.59827" lon="6.24616">
        <ele>439.700012</ele>
        <time>2013-02-03T13:33:13Z</time>
      </trkpt>
      <trkpt lat="43.59822" lon="6.24626">
        <ele>439.600006</ele>
        <time>2013-02-03T13:33:21Z</time>
      </trkpt>
      <trkpt lat="43.59819" lon="6.24637">
        <ele>438.899994</ele>
        <time>2013-02-03T13:33:31Z</time>
      </trkpt>
      <trkpt lat="43.59816" lon="6.24646">
        <ele>438.899994</ele>
        <time>2013-02-03T13:33:37Z</time>
      </trkpt>
      <trkpt lat="43.59813" lon="6.24656">
        <ele>438.5</ele>
        <time>2013-02-03T13:33:43Z</time>
      </trkpt>
      <trkpt lat="43.59808" lon="6.24664">
        <ele>438.299988</ele>
        <time>2013-02-03T13:33:49Z</time>
      </trkpt>
      <trkpt lat="43.59804" lon="6.24674">
        <ele>438</ele>
        <time>2013-02-03T13:33:56Z</time>
      </trkpt>
      <trkpt lat="43.59804" lon="6.24675">
        <ele>438.100006</ele>
        <time>2013-02-03T13:33:57Z</time>
      </trkpt>
      <trkpt lat="43.59797" lon="6.24696">
        <ele>437.799988</ele>
        <time>2013-02-03T13:34:13Z</time>
      </trkpt>
      <trkpt lat="43.59793" lon="6.24706">
        <ele>437.399994</ele>
        <time>2013-02-03T13:34:21Z</time>
      </trkpt>
      <trkpt lat="43.5979" lon="6.24718">
        <ele>436.899994</ele>
        <time>2013-02-03T13:34:28Z</time>
      </trkpt>
      <trkpt lat="43.59786" lon="6.24728">
        <ele>437</ele>
        <time>2013-02-03T13:34:36Z</time>
      </trkpt>
      <trkpt lat="43.59784" lon="6.24737">
        <ele>436.100006</ele>
        <time>2013-02-03T13:34:42Z</time>
      </trkpt>
      <trkpt lat="43.5978" lon="6.24747">
        <ele>436.200012</ele>
        <time>2013-02-03T13:34:48Z</time>
      </trkpt>
      <trkpt lat="43.59775" lon="6.24756">
        <ele>436.399994</ele>
        <time>2013-02-03T13:34:55Z</time>
      </trkpt>
      <trkpt lat="43.59772" lon="6.24768">
        <ele>436.399994</ele>
        <time>2013-02-03T13:35:03Z</time>
      </trkpt>
      <trkpt lat="43.59772" lon="6.24769">
        <ele>436.299988</ele>
        <time>2013-02-03T13:35:04Z</time>
      </trkpt>
      <trkpt lat="43.59771" lon="6.24792">
        <ele>436</ele>
        <time>2013-02-03T13:35:18Z</time>
      </trkpt>
      <trkpt lat="43.59765" lon="6.24798">
        <ele>435</ele>
        <time>2013-02-03T13:35:30Z</time>
      </trkpt>
      <trkpt lat="43.59759" lon="6.24806">
        <ele>436</ele>
        <time>2013-02-03T13:35:38Z</time>
      </trkpt>
      <trkpt lat="43.59756" lon="6.24817">
        <ele>435.899994</ele>
        <time>2013-02-03T13:35:45Z</time>
      </trkpt>
      <trkpt lat="43.59764" lon="6.24814">
        <ele>436</ele>
        <time>2013-02-03T13:36:04Z</time>
      </trkpt>
      <trkpt lat="43.59765" lon="6.24814">
        <ele>436</ele>
        <time>2013-02-03T13:36:05Z</time>
      </trkpt>
      <trkpt lat="43.59764" lon="6.24826">
        <ele>436</ele>
        <time>2013-02-03T13:37:28Z</time>
      </trkpt>
      <trkpt lat="43.59755" lon="6.24843">
        <ele>436</ele>
        <time>2013-02-03T13:37:42Z</time>
      </trkpt>
      <trkpt lat="43.59752" lon="6.24853">
        <ele>436.5</ele>
        <time>2013-02-03T13:37:50Z</time>
      </trkpt>
      <trkpt lat="43.5975" lon="6.24865">
        <ele>436.700012</ele>
        <time>2013-02-03T13:37:56Z</time>
      </trkpt>
      <trkpt lat="43.59747" lon="6.24876">
        <ele>437.200012</ele>
        <time>2013-02-03T13:38:04Z</time>
      </trkpt>
      <trkpt lat="43.59742" lon="6.24886">
        <ele>437</ele>
        <time>2013-02-03T13:38:12Z</time>
      </trkpt>
      <trkpt lat="43.5974" lon="6.24898">
        <ele>436.799988</ele>
        <time>2013-02-03T13:38:20Z</time>
      </trkpt>
      <trkpt lat="43.59732" lon="6.249">
        <ele>437.5</ele>
        <time>2013-02-03T13:39:08Z</time>
      </trkpt>
      <trkpt lat="43.59731" lon="6.249">
        <ele>437.5</ele>
        <time>2013-02-03T13:39:09Z</time>
      </trkpt>
      <trkpt lat="43.59729" lon="6.24912">
        <ele>436.700012</ele>
        <time>2013-02-03T13:40:51Z</time>
      </trkpt>
      <trkpt lat="43.59727" lon="6.24934">
        <ele>437.799988</ele>
        <time>2013-02-03T13:41:46Z</time>
      </trkpt>
      <trkpt lat="43.59723" lon="6.24944">
        <ele>438.100006</ele>
        <time>2013-02-03T13:41:55Z</time>
      </trkpt>
      <trkpt lat="43.59724" lon="6.24946">
        <ele>438.200012</ele>
        <time>2013-02-03T13:41:56Z</time>
      </trkpt>
      <trkpt lat="43.59716" lon="6.24964">
        <ele>438.200012</ele>
        <time>2013-02-03T13:42:11Z</time>
      </trkpt>
      <trkpt lat="43.59717" lon="6.24974">
        <ele>438.600006</ele>
        <time>2013-02-03T13:42:16Z</time>
      </trkpt>
      <trkpt lat="43.59716" lon="6.24986">
        <ele>437.899994</ele>
        <time>2013-02-03T13:42:37Z</time>
      </trkpt>
      <trkpt lat="43.59717" lon="6.24997">
        <ele>438.700012</ele>
        <time>2013-02-03T13:42:45Z</time>
      </trkpt>
      <trkpt lat="43.59719" lon="6.25009">
        <ele>439.299988</ele>
        <time>2013-02-03T13:42:55Z</time>
      </trkpt>
      <trkpt lat="43.59715" lon="6.2502">
        <ele>440.899994</ele>
        <time>2013-02-03T13:43:08Z</time>
      </trkpt>
      <trkpt lat="43.59715" lon="6.2502">
        <ele>441</ele>
        <time>2013-02-03T13:43:09Z</time>
      </trkpt>
      <trkpt lat="43.5971" lon="6.25043">
        <ele>443.799988</ele>
        <time>2013-02-03T13:43:30Z</time>
      </trkpt>
      <trkpt lat="43.59707" lon="6.25055">
        <ele>444.799988</ele>
        <time>2013-02-03T13:43:41Z</time>
      </trkpt>
      <trkpt lat="43.59704" lon="6.25065">
        <ele>444.700012</ele>
        <time>2013-02-03T13:43:49Z</time>
      </trkpt>
      <trkpt lat="43.59703" lon="6.25077">
        <ele>445.5</ele>
        <time>2013-02-03T13:43:59Z</time>
      </trkpt>
      <trkpt lat="43.59697" lon="6.25085">
        <ele>445.100006</ele>
        <time>2013-02-03T13:44:11Z</time>
      </trkpt>
      <trkpt lat="43.59696" lon="6.25087">
        <ele>445.100006</ele>
        <time>2013-02-03T13:44:12Z</time>
      </trkpt>
      <trkpt lat="43.59689" lon="6.25105">
        <ele>444.700012</ele>
        <time>2013-02-03T13:44:28Z</time>
      </trkpt>
      <trkpt lat="43.59684" lon="6.25114">
        <ele>445.700012</ele>
        <time>2013-02-03T13:44:39Z</time>
      </trkpt>
      <trkpt lat="43.59679" lon="6.25123">
        <ele>445.299988</ele>
        <time>2013-02-03T13:44:45Z</time>
      </trkpt>
      <trkpt lat="43.59674" lon="6.2513">
        <ele>444.700012</ele>
        <time>2013-02-03T13:44:51Z</time>
      </trkpt>
      <trkpt lat="43.59671" lon="6.25141">
        <ele>444.799988</ele>
        <time>2013-02-03T13:44:58Z</time>
      </trkpt>
      <trkpt lat="43.59669" lon="6.25152">
        <ele>444.100006</ele>
        <time>2013-02-03T13:45:05Z</time>
      </trkpt>
      <trkpt lat="43.59666" lon="6.25161">
        <ele>444</ele>
        <time>2013-02-03T13:45:10Z</time>
      </trkpt>
      <trkpt lat="43.59661" lon="6.2517">
        <ele>443.700012</ele>
        <time>2013-02-03T13:45:16Z</time>
      </trkpt>
      <trkpt lat="43.59661" lon="6.25171">
        <ele>443.899994</ele>
        <time>2013-02-03T13:45:17Z</time>
      </trkpt>
      <trkpt lat="43.59659" lon="6.25194">
        <ele>444.5</ele>
        <time>2013-02-03T13:45:33Z</time>
      </trkpt>
      <trkpt lat="43.59655" lon="6.25205">
        <ele>444.600006</ele>
        <time>2013-02-03T13:45:43Z</time>
      </trkpt>
      <trkpt lat="43.59653" lon="6.25216">
        <ele>445.100006</ele>
        <time>2013-02-03T13:45:51Z</time>
      </trkpt>
      <trkpt lat="43.59658" lon="6.25226">
        <ele>444.799988</ele>
        <time>2013-02-03T13:46:10Z</time>
      </trkpt>
      <trkpt lat="43.59654" lon="6.25237">
        <ele>445</ele>
        <time>2013-02-03T13:46:42Z</time>
      </trkpt>
      <trkpt lat="43.59653" lon="6.25237">
        <ele>444.799988</ele>
        <time>2013-02-03T13:46:43Z</time>
      </trkpt>
      <trkpt lat="43.59642" lon="6.25251">
        <ele>444</ele>
        <time>2013-02-03T13:46:55Z</time>
      </trkpt>
      <trkpt lat="43.59636" lon="6.2526">
        <ele>443.100006</ele>
        <time>2013-02-03T13:47:03Z</time>
      </trkpt>
      <trkpt lat="43.59629" lon="6.25268">
        <ele>442.700012</ele>
        <time>2013-02-03T13:47:10Z</time>
      </trkpt>
      <trkpt lat="43.59624" lon="6.25275">
        <ele>442</ele>
        <time>2013-02-03T13:47:18Z</time>
      </trkpt>
      <trkpt lat="43.59618" lon="6.25283">
        <ele>441.700012</ele>
        <time>2013-02-03T13:47:25Z</time>
      </trkpt>
      <trkpt lat="43.59613" lon="6.25293">
        <ele>441.5</ele>
        <time>2013-02-03T13:47:31Z</time>
      </trkpt>
      <trkpt lat="43.59609" lon="6.25303">
        <ele>441</ele>
        <time>2013-02-03T13:47:40Z</time>
      </trkpt>
      <trkpt lat="43.59605" lon="6.25314">
        <ele>440.700012</ele>
        <time>2013-02-03T13:47:48Z</time>
      </trkpt>
      <trkpt lat="43.59604" lon="6.25316">
        <ele>440.700012</ele>
        <time>2013-02-03T13:47:49Z</time>
      </trkpt>
      <trkpt lat="43.59594" lon="6.25329">
        <ele>438.799988</ele>
        <time>2013-02-03T13:48:03Z</time>
      </trkpt>
      <trkpt lat="43.59587" lon="6.25337">
        <ele>437.899994</ele>
        <time>2013-02-03T13:48:12Z</time>
      </trkpt>
      <trkpt lat="43.59582" lon="6.25345">
        <ele>437.600006</ele>
        <time>2013-02-03T13:48:19Z</time>
      </trkpt>
      <trkpt lat="43.59578" lon="6.25356">
        <ele>436.5</ele>
        <time>2013-02-03T13:48:26Z</time>
      </trkpt>
      <trkpt lat="43.59575" lon="6.25367">
        <ele>436.200012</ele>
        <time>2013-02-03T13:48:34Z</time>
      </trkpt>
      <trkpt lat="43.59572" lon="6.25378">
        <ele>435.5</ele>
        <time>2013-02-03T13:48:41Z</time>
      </trkpt>
      <trkpt lat="43.59568" lon="6.25387">
        <ele>436.299988</ele>
        <time>2013-02-03T13:48:48Z</time>
      </trkpt>
      <trkpt lat="43.59563" lon="6.25397">
        <ele>435.899994</ele>
        <time>2013-02-03T13:48:57Z</time>
      </trkpt>
      <trkpt lat="43.59562" lon="6.25398">
        <ele>435.799988</ele>
        <time>2013-02-03T13:48:58Z</time>
      </trkpt>
      <trkpt lat="43.5955" lon="6.25414">
        <ele>435.200012</ele>
        <time>2013-02-03T13:49:14Z</time>
      </trkpt>
      <trkpt lat="43.59545" lon="6.25423">
        <ele>434.100006</ele>
        <time>2013-02-03T13:49:20Z</time>
      </trkpt>
      <trkpt lat="43.59542" lon="6.25434">
        <ele>433.799988</ele>
        <time>2013-02-03T13:49:27Z</time>
      </trkpt>
      <trkpt lat="43.59537" lon="6.25442">
        <ele>434.200012</ele>
        <time>2013-02-03T13:49:35Z</time>
      </trkpt>
      <trkpt lat="43.5953" lon="6.25449">
        <ele>434.5</ele>
        <time>2013-02-03T13:49:41Z</time>
      </trkpt>
      <trkpt lat="43.59525" lon="6.25458">
        <ele>434.700012</ele>
        <time>2013-02-03T13:49:49Z</time>
      </trkpt>
      <trkpt lat="43.59518" lon="6.25465">
        <ele>434.899994</ele>
        <time>2013-02-03T13:49:56Z</time>
      </trkpt>
      <trkpt lat="43.59512" lon="6.25473">
        <ele>434.700012</ele>
        <time>2013-02-03T13:50:05Z</time>
      </trkpt>
      <trkpt lat="43.59512" lon="6.25475">
        <ele>434.799988</ele>
        <time>2013-02-03T13:50:06Z</time>
      </trkpt>
      <trkpt lat="43.59507" lon="6.25494">
        <ele>435.200012</ele>
        <time>2013-02-03T13:50:21Z</time>
      </trkpt>
      <trkpt lat="43.59505" lon="6.25505">
        <ele>434.799988</ele>
        <time>2013-02-03T13:50:27Z</time>
      </trkpt>
      <trkpt lat="43.59503" lon="6.25516">
        <ele>434.700012</ele>
        <time>2013-02-03T13:50:35Z</time>
      </trkpt>
      <trkpt lat="43.595" lon="6.25528">
        <ele>433.799988</ele>
        <time>2013-02-03T13:50:44Z</time>
      </trkpt>
      <trkpt lat="43.59499" lon="6.25539">
        <ele>433.399994</ele>
        <time>2013-02-03T13:50:52Z</time>
      </trkpt>
      <trkpt lat="43.59492" lon="6.25545">
        <ele>432</ele>
        <time>2013-02-03T13:51:02Z</time>
      </trkpt>
      <trkpt lat="43.59485" lon="6.25553">
        <ele>430.600006</ele>
        <time>2013-02-03T13:51:13Z</time>
      </trkpt>
      <trkpt lat="43.59485" lon="6.25553">
        <ele>430.299988</ele>
        <time>2013-02-03T13:51:14Z</time>
      </trkpt>
      <trkpt lat="43.59476" lon="6.2557">
        <ele>431.100006</ele>
        <time>2013-02-03T13:51:32Z</time>
      </trkpt>
      <trkpt lat="43.59472" lon="6.25581">
        <ele>430</ele>
        <time>2013-02-03T13:51:45Z</time>
      </trkpt>
      <trkpt lat="43.59474" lon="6.25592">
        <ele>428.700012</ele>
        <time>2013-02-03T13:52:43Z</time>
      </trkpt>
      <trkpt lat="43.59474" lon="6.25593">
        <ele>428.5</ele>
        <time>2013-02-03T13:52:44Z</time>
      </trkpt>
      <trkpt lat="43.59462" lon="6.25608">
        <ele>429.200012</ele>
        <time>2013-02-03T13:53:14Z</time>
      </trkpt>
      <trkpt lat="43.59455" lon="6.25615">
        <ele>428.799988</ele>
        <time>2013-02-03T13:53:25Z</time>
      </trkpt>
      <trkpt lat="43.59449" lon="6.25625">
        <ele>428.100006</ele>
        <time>2013-02-03T13:53:40Z</time>
      </trkpt>
      <trkpt lat="43.59444" lon="6.25634">
        <ele>429.799988</ele>
        <time>2013-02-03T13:53:51Z</time>
      </trkpt>
      <trkpt lat="43.59443" lon="6.25635">
        <ele>429.5</ele>
        <time>2013-02-03T13:53:52Z</time>
      </trkpt>
      <trkpt lat="43.59429" lon="6.25646">
        <ele>433.399994</ele>
        <time>2013-02-03T13:54:20Z</time>
      </trkpt>
      <trkpt lat="43.59421" lon="6.25647">
        <ele>433.5</ele>
        <time>2013-02-03T13:54:28Z</time>
      </trkpt>
      <trkpt lat="43.59413" lon="6.25652">
        <ele>433.899994</ele>
        <time>2013-02-03T13:54:37Z</time>
      </trkpt>
      <trkpt lat="43.59406" lon="6.25657">
        <ele>435.100006</ele>
        <time>2013-02-03T13:54:46Z</time>
      </trkpt>
      <trkpt lat="43.59398" lon="6.25662">
        <ele>435.5</ele>
        <time>2013-02-03T13:54:55Z</time>
      </trkpt>
      <trkpt lat="43.59397" lon="6.25663">
        <ele>435.799988</ele>
        <time>2013-02-03T13:54:56Z</time>
      </trkpt>
      <trkpt lat="43.59385" lon="6.25674">
        <ele>436.299988</ele>
        <time>2013-02-03T13:55:18Z</time>
      </trkpt>
      <trkpt lat="43.59378" lon="6.25678">
        <ele>436.100006</ele>
        <time>2013-02-03T13:55:25Z</time>
      </trkpt>
      <trkpt lat="43.59371" lon="6.25685">
        <ele>436.200012</ele>
        <time>2013-02-03T13:55:32Z</time>
      </trkpt>
      <trkpt lat="43.59364" lon="6.25692">
        <ele>436.299988</ele>
        <time>2013-02-03T13:55:39Z</time>
      </trkpt>
      <trkpt lat="43.59358" lon="6.25699">
        <ele>436.600006</ele>
        <time>2013-02-03T13:55:47Z</time>
      </trkpt>
      <trkpt lat="43.59351" lon="6.25703">
        <ele>436.399994</ele>
        <time>2013-02-03T13:55:54Z</time>
      </trkpt>
      <trkpt lat="43.59343" lon="6.25708">
        <ele>437.5</ele>
        <time>2013-02-03T13:56:01Z</time>
      </trkpt>
      <trkpt lat="43.59342" lon="6.25708">
        <ele>437.799988</ele>
        <time>2013-02-03T13:56:02Z</time>
      </trkpt>
      <trkpt lat="43.59329" lon="6.25719">
        <ele>437.5</ele>
        <time>2013-02-03T13:56:14Z</time>
      </trkpt>
      <trkpt lat="43.59324" lon="6.25727">
        <ele>437</ele>
        <time>2013-02-03T13:56:21Z</time>
      </trkpt>
      <trkpt lat="43.59318" lon="6.25736">
        <ele>436.600006</ele>
        <time>2013-02-03T13:56:29Z</time>
      </trkpt>
      <trkpt lat="43.59311" lon="6.25742">
        <ele>436.299988</ele>
        <time>2013-02-03T13:56:39Z</time>
      </trkpt>
      <trkpt lat="43.59305" lon="6.25751">
        <ele>436.399994</ele>
        <time>2013-02-03T13:56:46Z</time>
      </trkpt>
      <trkpt lat="43.59299" lon="6.25758">
        <ele>436.299988</ele>
        <time>2013-02-03T13:56:53Z</time>
      </trkpt>
      <trkpt lat="43.59292" lon="6.25765">
        <ele>437</ele>
        <time>2013-02-03T13:56:58Z</time>
      </trkpt>
      <trkpt lat="43.59286" lon="6.25772">
        <ele>437.299988</ele>
        <time>2013-02-03T13:57:06Z</time>
      </trkpt>
      <trkpt lat="43.59285" lon="6.25773">
        <ele>437.299988</ele>
        <time>2013-02-03T13:57:07Z</time>
      </trkpt>
      <trkpt lat="43.59273" lon="6.25788">
        <ele>438.700012</ele>
        <time>2013-02-03T13:57:22Z</time>
      </trkpt>
      <trkpt lat="43.59267" lon="6.25796">
        <ele>440</ele>
        <time>2013-02-03T13:57:31Z</time>
      </trkpt>
      <trkpt lat="43.59261" lon="6.25806">
        <ele>440.700012</ele>
        <time>2013-02-03T13:57:41Z</time>
      </trkpt>
      <trkpt lat="43.59255" lon="6.25813">
        <ele>442</ele>
        <time>2013-02-03T13:57:51Z</time>
      </trkpt>
      <trkpt lat="43.59248" lon="6.25819">
        <ele>442.799988</ele>
        <time>2013-02-03T13:57:59Z</time>
      </trkpt>
      <trkpt lat="43.59242" lon="6.25826">
        <ele>443</ele>
        <time>2013-02-03T13:58:05Z</time>
      </trkpt>
      <trkpt lat="43.59236" lon="6.25834">
        <ele>444</ele>
        <time>2013-02-03T13:58:13Z</time>
      </trkpt>
      <trkpt lat="43.59235" lon="6.25835">
        <ele>444</ele>
        <time>2013-02-03T13:58:14Z</time>
      </trkpt>
      <trkpt lat="43.59224" lon="6.2585">
        <ele>443.100006</ele>
        <time>2013-02-03T13:58:28Z</time>
      </trkpt>
      <trkpt lat="43.59217" lon="6.25857">
        <ele>442.899994</ele>
        <time>2013-02-03T13:58:34Z</time>
      </trkpt>
      <trkpt lat="43.59212" lon="6.25865">
        <ele>443.200012</ele>
        <time>2013-02-03T13:58:40Z</time>
      </trkpt>
      <trkpt lat="43.59207" lon="6.25873">
        <ele>442.899994</ele>
        <time>2013-02-03T13:58:47Z</time>
      </trkpt>
      <trkpt lat="43.59201" lon="6.25882">
        <ele>442.899994</ele>
        <time>2013-02-03T13:58:55Z</time>
      </trkpt>
      <trkpt lat="43.59196" lon="6.25892">
        <ele>442.799988</ele>
        <time>2013-02-03T13:59:06Z</time>
      </trkpt>
      <trkpt lat="43.5919" lon="6.259">
        <ele>443.600006</ele>
        <time>2013-02-03T13:59:12Z</time>
      </trkpt>
      <trkpt lat="43.59186" lon="6.25909">
        <ele>443.5</ele>
        <time>2013-02-03T13:59:18Z</time>
      </trkpt>
      <trkpt lat="43.59184" lon="6.2591">
        <ele>443.5</ele>
        <time>2013-02-03T13:59:19Z</time>
      </trkpt>
      <trkpt lat="43.59171" lon="6.2592">
        <ele>443.600006</ele>
        <time>2013-02-03T13:59:32Z</time>
      </trkpt>
      <trkpt lat="43.59163" lon="6.25926">
        <ele>444.799988</ele>
        <time>2013-02-03T13:59:41Z</time>
      </trkpt>
      <trkpt lat="43.59157" lon="6.25935">
        <ele>445.100006</ele>
        <time>2013-02-03T13:59:48Z</time>
      </trkpt>
      <trkpt lat="43.59153" lon="6.25945">
        <ele>444.799988</ele>
        <time>2013-02-03T13:59:57Z</time>
      </trkpt>
      <trkpt lat="43.59146" lon="6.25953">
        <ele>444.299988</ele>
        <time>2013-02-03T14:00:05Z</time>
      </trkpt>
      <trkpt lat="43.59139" lon="6.25959">
        <ele>444.200012</ele>
        <time>2013-02-03T14:00:14Z</time>
      </trkpt>
      <trkpt lat="43.59132" lon="6.25966">
        <ele>445.100006</ele>
        <time>2013-02-03T14:00:22Z</time>
      </trkpt>
      <trkpt lat="43.59131" lon="6.25968">
        <ele>445.399994</ele>
        <time>2013-02-03T14:00:23Z</time>
      </trkpt>
      <trkpt lat="43.59118" lon="6.25981">
        <ele>445.100006</ele>
        <time>2013-02-03T14:00:35Z</time>
      </trkpt>
      <trkpt lat="43.59113" lon="6.2599">
        <ele>445.600006</ele>
        <time>2013-02-03T14:00:42Z</time>
      </trkpt>
      <trkpt lat="43.59108" lon="6.25998">
        <ele>446.200012</ele>
        <time>2013-02-03T14:00:50Z</time>
      </trkpt>
      <trkpt lat="43.59101" lon="6.26006">
        <ele>447.100006</ele>
        <time>2013-02-03T14:00:58Z</time>
      </trkpt>
      <trkpt lat="43.59095" lon="6.26014">
        <ele>447.799988</ele>
        <time>2013-02-03T14:01:07Z</time>
      </trkpt>
      <trkpt lat="43.59089" lon="6.26022">
        <ele>448.700012</ele>
        <time>2013-02-03T14:01:15Z</time>
      </trkpt>
      <trkpt lat="43.59082" lon="6.26029">
        <ele>449.5</ele>
        <time>2013-02-03T14:01:24Z</time>
      </trkpt>
      <trkpt lat="43.59082" lon="6.2603">
        <ele>449.5</ele>
        <time>2013-02-03T14:01:25Z</time>
      </trkpt>
      <trkpt lat="43.59073" lon="6.26048">
        <ele>451.899994</ele>
        <time>2013-02-03T14:01:43Z</time>
      </trkpt>
      <trkpt lat="43.59066" lon="6.26056">
        <ele>452</ele>
        <time>2013-02-03T14:01:52Z</time>
      </trkpt>
      <trkpt lat="43.59059" lon="6.26062">
        <ele>453.600006</ele>
        <time>2013-02-03T14:02:00Z</time>
      </trkpt>
      <trkpt lat="43.59053" lon="6.2607">
        <ele>453.899994</ele>
        <time>2013-02-03T14:02:08Z</time>
      </trkpt>
      <trkpt lat="43.59046" lon="6.26079">
        <ele>454.299988</ele>
        <time>2013-02-03T14:02:19Z</time>
      </trkpt>
      <trkpt lat="43.5904" lon="6.26087">
        <ele>454.200012</ele>
        <time>2013-02-03T14:02:26Z</time>
      </trkpt>
      <trkpt lat="43.59039" lon="6.26089">
        <ele>454.5</ele>
        <time>2013-02-03T14:02:27Z</time>
      </trkpt>
      <trkpt lat="43.5903" lon="6.26106">
        <ele>454.399994</ele>
        <time>2013-02-03T14:02:42Z</time>
      </trkpt>
      <trkpt lat="43.59024" lon="6.26113">
        <ele>454.100006</ele>
        <time>2013-02-03T14:02:49Z</time>
      </trkpt>
      <trkpt lat="43.59017" lon="6.26119">
        <ele>453.600006</ele>
        <time>2013-02-03T14:02:57Z</time>
      </trkpt>
      <trkpt lat="43.59009" lon="6.26121">
        <ele>453.899994</ele>
        <time>2013-02-03T14:03:04Z</time>
      </trkpt>
      <trkpt lat="43.59" lon="6.2612">
        <ele>453.200012</ele>
        <time>2013-02-03T14:03:13Z</time>
      </trkpt>
      <trkpt lat="43.58991" lon="6.26122">
        <ele>452.700012</ele>
        <time>2013-02-03T14:04:46Z</time>
      </trkpt>
      <trkpt lat="43.58991" lon="6.26121">
        <ele>453.100006</ele>
        <time>2013-02-03T14:04:47Z</time>
      </trkpt>
      <trkpt lat="43.58977" lon="6.26107">
        <ele>453.200012</ele>
        <time>2013-02-03T14:05:02Z</time>
      </trkpt>
      <trkpt lat="43.5897" lon="6.261">
        <ele>453.200012</ele>
        <time>2013-02-03T14:05:09Z</time>
      </trkpt>
      <trkpt lat="43.58964" lon="6.26091">
        <ele>453.700012</ele>
        <time>2013-02-03T14:05:17Z</time>
      </trkpt>
      <trkpt lat="43.58961" lon="6.26081">
        <ele>453.700012</ele>
        <time>2013-02-03T14:05:24Z</time>
      </trkpt>
      <trkpt lat="43.58958" lon="6.2607">
        <ele>452.799988</ele>
        <time>2013-02-03T14:05:31Z</time>
      </trkpt>
      <trkpt lat="43.58959" lon="6.26059">
        <ele>452.299988</ele>
        <time>2013-02-03T14:05:40Z</time>
      </trkpt>
      <trkpt lat="43.58956" lon="6.26049">
        <ele>451.299988</ele>
        <time>2013-02-03T14:05:45Z</time>
      </trkpt>
      <trkpt lat="43.58952" lon="6.26038">
        <ele>450.799988</ele>
        <time>2013-02-03T14:05:53Z</time>
      </trkpt>
      <trkpt lat="43.58951" lon="6.26036">
        <ele>450.899994</ele>
        <time>2013-02-03T14:05:54Z</time>
      </trkpt>
      <trkpt lat="43.58939" lon="6.26026">
        <ele>449.399994</ele>
        <time>2013-02-03T14:06:09Z</time>
      </trkpt>
      <trkpt lat="43.58933" lon="6.26017">
        <ele>448.899994</ele>
        <time>2013-02-03T14:06:20Z</time>
      </trkpt>
      <trkpt lat="43.58925" lon="6.26013">
        <ele>448.100006</ele>
        <time>2013-02-03T14:06:27Z</time>
      </trkpt>
      <trkpt lat="43.58917" lon="6.26011">
        <ele>447.5</ele>
        <time>2013-02-03T14:06:33Z</time>
      </trkpt>
      <trkpt lat="43.58909" lon="6.26009">
        <ele>447.799988</ele>
        <time>2013-02-03T14:06:41Z</time>
      </trkpt>
      <trkpt lat="43.589" lon="6.26007">
        <ele>447.100006</ele>
        <time>2013-02-03T14:06:54Z</time>
      </trkpt>
      <trkpt lat="43.589" lon="6.26007">
        <ele>447.100006</ele>
        <time>2013-02-03T14:06:55Z</time>
      </trkpt>
      <trkpt lat="43.58887" lon="6.25995">
        <ele>446.600006</ele>
        <time>2013-02-03T14:07:18Z</time>
      </trkpt>
      <trkpt lat="43.58885" lon="6.25984">
        <ele>445.700012</ele>
        <time>2013-02-03T14:07:26Z</time>
      </trkpt>
      <trkpt lat="43.58885" lon="6.25971">
        <ele>445</ele>
        <time>2013-02-03T14:07:37Z</time>
      </trkpt>
      <trkpt lat="43.58878" lon="6.25967">
        <ele>444.899994</ele>
        <time>2013-02-03T14:07:53Z</time>
      </trkpt>
      <trkpt lat="43.58869" lon="6.25967">
        <ele>445</ele>
        <time>2013-02-03T14:08:03Z</time>
      </trkpt>
      <trkpt lat="43.58868" lon="6.25967">
        <ele>445.100006</ele>
        <time>2013-02-03T14:08:04Z</time>
      </trkpt>
      <trkpt lat="43.58853" lon="6.2597">
        <ele>444.200012</ele>
        <time>2013-02-03T14:08:24Z</time>
      </trkpt>
      <trkpt lat="43.58844" lon="6.25972">
        <ele>443.799988</ele>
        <time>2013-02-03T14:08:33Z</time>
      </trkpt>
      <trkpt lat="43.58835" lon="6.25975">
        <ele>443.5</ele>
        <time>2013-02-03T14:08:41Z</time>
      </trkpt>
      <trkpt lat="43.58828" lon="6.25971">
        <ele>443.399994</ele>
        <time>2013-02-03T14:08:49Z</time>
      </trkpt>
      <trkpt lat="43.58819" lon="6.25967">
        <ele>443.399994</ele>
        <time>2013-02-03T14:08:58Z</time>
      </trkpt>
      <trkpt lat="43.58811" lon="6.25968">
        <ele>443.600006</ele>
        <time>2013-02-03T14:09:04Z</time>
      </trkpt>
      <trkpt lat="43.58809" lon="6.25969">
        <ele>443.700012</ele>
        <time>2013-02-03T14:09:05Z</time>
      </trkpt>
      <trkpt lat="43.58796" lon="6.25964">
        <ele>442.100006</ele>
        <time>2013-02-03T14:09:42Z</time>
      </trkpt>
      <trkpt lat="43.58788" lon="6.25959">
        <ele>441.5</ele>
        <time>2013-02-03T14:09:49Z</time>
      </trkpt>
      <trkpt lat="43.5878" lon="6.25954">
        <ele>441.899994</ele>
        <time>2013-02-03T14:10:01Z</time>
      </trkpt>
      <trkpt lat="43.58772" lon="6.25951">
        <ele>441.799988</ele>
        <time>2013-02-03T14:10:10Z</time>
      </trkpt>
      <trkpt lat="43.58771" lon="6.25951">
        <ele>441.799988</ele>
        <time>2013-02-03T14:10:11Z</time>
      </trkpt>
      <trkpt lat="43.5876" lon="6.25936">
        <ele>442.5</ele>
        <time>2013-02-03T14:10:27Z</time>
      </trkpt>
      <trkpt lat="43.58756" lon="6.25927">
        <ele>443</ele>
        <time>2013-02-03T14:10:35Z</time>
      </trkpt>
      <trkpt lat="43.5875" lon="6.25918">
        <ele>443</ele>
        <time>2013-02-03T14:10:43Z</time>
      </trkpt>
      <trkpt lat="43.58745" lon="6.25909">
        <ele>442.899994</ele>
        <time>2013-02-03T14:10:51Z</time>
      </trkpt>
      <trkpt lat="43.58738" lon="6.25904">
        <ele>442.600006</ele>
        <time>2013-02-03T14:10:57Z</time>
      </trkpt>
      <trkpt lat="43.5873" lon="6.25901">
        <ele>442.299988</ele>
        <time>2013-02-03T14:11:02Z</time>
      </trkpt>
      <trkpt lat="43.58722" lon="6.25899">
        <ele>442.299988</ele>
        <time>2013-02-03T14:11:08Z</time>
      </trkpt>
      <trkpt lat="43.58715" lon="6.25894">
        <ele>442.200012</ele>
        <time>2013-02-03T14:11:15Z</time>
      </trkpt>
      <trkpt lat="43.58713" lon="6.25894">
        <ele>442.299988</ele>
        <time>2013-02-03T14:11:16Z</time>
      </trkpt>
      <trkpt lat="43.58702" lon="6.2588">
        <ele>441.600006</ele>
        <time>2013-02-03T14:11:33Z</time>
      </trkpt>
      <trkpt lat="43.58706" lon="6.25869">
        <ele>440.700012</ele>
        <time>2013-02-03T14:11:43Z</time>
      </trkpt>
      <trkpt lat="43.58709" lon="6.25858">
        <ele>440.299988</ele>
        <time>2013-02-03T14:11:52Z</time>
      </trkpt>
      <trkpt lat="43.58705" lon="6.25848">
        <ele>439.700012</ele>
        <time>2013-02-03T14:12:00Z</time>
      </trkpt>
      <trkpt lat="43.58699" lon="6.25839">
        <ele>439.200012</ele>
        <time>2013-02-03T14:12:09Z</time>
      </trkpt>
      <trkpt lat="43.58695" lon="6.25828">
        <ele>438.899994</ele>
        <time>2013-02-03T14:12:19Z</time>
      </trkpt>
      <trkpt lat="43.58695" lon="6.25826">
        <ele>439</ele>
        <time>2013-02-03T14:12:20Z</time>
      </trkpt>
      <trkpt lat="43.58691" lon="6.25805">
        <ele>438.600006</ele>
        <time>2013-02-03T14:12:33Z</time>
      </trkpt>
      <trkpt lat="43.5869" lon="6.25794">
        <ele>438.600006</ele>
        <time>2013-02-03T14:12:42Z</time>
      </trkpt>
      <trkpt lat="43.58687" lon="6.25784">
        <ele>439.899994</ele>
        <time>2013-02-03T14:12:50Z</time>
      </trkpt>
      <trkpt lat="43.58679" lon="6.25779">
        <ele>439.799988</ele>
        <time>2013-02-03T14:12:56Z</time>
      </trkpt>
      <trkpt lat="43.58673" lon="6.2577">
        <ele>440</ele>
        <time>2013-02-03T14:13:03Z</time>
      </trkpt>
      <trkpt lat="43.5867" lon="6.2576">
        <ele>440.899994</ele>
        <time>2013-02-03T14:13:11Z</time>
      </trkpt>
      <trkpt lat="43.58664" lon="6.25751">
        <ele>440.399994</ele>
        <time>2013-02-03T14:13:20Z</time>
      </trkpt>
      <trkpt lat="43.58658" lon="6.25743">
        <ele>440.200012</ele>
        <time>2013-02-03T14:13:28Z</time>
      </trkpt>
      <trkpt lat="43.58657" lon="6.25742">
        <ele>440.399994</ele>
        <time>2013-02-03T14:13:29Z</time>
      </trkpt>
      <trkpt lat="43.58643" lon="6.25733">
        <ele>440.799988</ele>
        <time>2013-02-03T14:13:42Z</time>
      </trkpt>
      <trkpt lat="43.58634" lon="6.25729">
        <ele>439.799988</ele>
        <time>2013-02-03T14:13:50Z</time>
      </trkpt>
      <trkpt lat="43.58631" lon="6.25718">
        <ele>439.799988</ele>
        <time>2013-02-03T14:13:58Z</time>
      </trkpt>
      <trkpt lat="43.58625" lon="6.25711">
        <ele>439.700012</ele>
        <time>2013-02-03T14:14:07Z</time>
      </trkpt>
      <trkpt lat="43.58619" lon="6.25702">
        <ele>439.700012</ele>
        <time>2013-02-03T14:14:16Z</time>
      </trkpt>
      <trkpt lat="43.58614" lon="6.25691">
        <ele>439.100006</ele>
        <time>2013-02-03T14:14:26Z</time>
      </trkpt>
      <trkpt lat="43.58611" lon="6.2568">
        <ele>438.899994</ele>
        <time>2013-02-03T14:14:34Z</time>
      </trkpt>
      <trkpt lat="43.58611" lon="6.25679">
        <ele>438.799988</ele>
        <time>2013-02-03T14:14:35Z</time>
      </trkpt>
      <trkpt lat="43.58614" lon="6.25657">
        <ele>438</ele>
        <time>2013-02-03T14:14:50Z</time>
      </trkpt>
      <trkpt lat="43.58612" lon="6.25645">
        <ele>437.700012</ele>
        <time>2013-02-03T14:15:00Z</time>
      </trkpt>
      <trkpt lat="43.58614" lon="6.25633">
        <ele>437.700012</ele>
        <time>2013-02-03T14:15:09Z</time>
      </trkpt>
      <trkpt lat="43.58614" lon="6.25621">
        <ele>437.899994</ele>
        <time>2013-02-03T14:15:18Z</time>
      </trkpt>
      <trkpt lat="43.58619" lon="6.25611">
        <ele>437.399994</ele>
        <time>2013-02-03T14:15:32Z</time>
      </trkpt>
      <trkpt lat="43.58626" lon="6.25604">
        <ele>438</ele>
        <time>2013-02-03T14:15:43Z</time>
      </trkpt>
      <trkpt lat="43.58627" lon="6.25603">
        <ele>437.799988</ele>
        <time>2013-02-03T14:15:44Z</time>
      </trkpt>
      <trkpt lat="43.58636" lon="6.25587">
        <ele>437.5</ele>
        <time>2013-02-03T14:15:57Z</time>
      </trkpt>
      <trkpt lat="43.58636" lon="6.25575">
        <ele>437.100006</ele>
        <time>2013-02-03T14:16:07Z</time>
      </trkpt>
      <trkpt lat="43.58639" lon="6.25563">
        <ele>436.799988</ele>
        <time>2013-02-03T14:16:31Z</time>
      </trkpt>
      <trkpt lat="43.58631" lon="6.25559">
        <ele>437.5</ele>
        <time>2013-02-03T14:17:46Z</time>
      </trkpt>
      <trkpt lat="43.58631" lon="6.25558">
        <ele>437.299988</ele>
        <time>2013-02-03T14:17:47Z</time>
      </trkpt>
      <trkpt lat="43.5863" lon="6.25546">
        <ele>437.5</ele>
        <time>2013-02-03T14:19:35Z</time>
      </trkpt>
      <trkpt lat="43.58633" lon="6.25524">
        <ele>437.899994</ele>
        <time>2013-02-03T14:19:53Z</time>
      </trkpt>
      <trkpt lat="43.58635" lon="6.25512">
        <ele>438.899994</ele>
        <time>2013-02-03T14:20:03Z</time>
      </trkpt>
      <trkpt lat="43.58631" lon="6.25501">
        <ele>438.600006</ele>
        <time>2013-02-03T14:20:13Z</time>
      </trkpt>
      <trkpt lat="43.5863" lon="6.2549">
        <ele>438.5</ele>
        <time>2013-02-03T14:20:19Z</time>
      </trkpt>
      <trkpt lat="43.58625" lon="6.2548">
        <ele>438.700012</ele>
        <time>2013-02-03T14:20:26Z</time>
      </trkpt>
      <trkpt lat="43.58622" lon="6.2547">
        <ele>438.899994</ele>
        <time>2013-02-03T14:20:34Z</time>
      </trkpt>
      <trkpt lat="43.58616" lon="6.25461">
        <ele>439.700012</ele>
        <time>2013-02-03T14:20:41Z</time>
      </trkpt>
      <trkpt lat="43.58615" lon="6.2546">
        <ele>439.200012</ele>
        <time>2013-02-03T14:20:42Z</time>
      </trkpt>
      <trkpt lat="43.58613" lon="6.25438">
        <ele>438.899994</ele>
        <time>2013-02-03T14:20:56Z</time>
      </trkpt>
      <trkpt lat="43.58611" lon="6.25427">
        <ele>438.5</ele>
        <time>2013-02-03T14:21:04Z</time>
      </trkpt>
      <trkpt lat="43.58616" lon="6.25419">
        <ele>438.5</ele>
        <time>2013-02-03T14:21:12Z</time>
      </trkpt>
      <trkpt lat="43.5862" lon="6.2541">
        <ele>438.100006</ele>
        <time>2013-02-03T14:21:18Z</time>
      </trkpt>
      <trkpt lat="43.58624" lon="6.254">
        <ele>437.399994</ele>
        <time>2013-02-03T14:21:25Z</time>
      </trkpt>
      <trkpt lat="43.58621" lon="6.25389">
        <ele>437.5</ele>
        <time>2013-02-03T14:21:30Z</time>
      </trkpt>
      <trkpt lat="43.58615" lon="6.25381">
        <ele>436.600006</ele>
        <time>2013-02-03T14:21:36Z</time>
      </trkpt>
      <trkpt lat="43.58608" lon="6.25373">
        <ele>436.299988</ele>
        <time>2013-02-03T14:21:43Z</time>
      </trkpt>
      <trkpt lat="43.58607" lon="6.25372">
        <ele>436.299988</ele>
        <time>2013-02-03T14:21:44Z</time>
      </trkpt>
      <trkpt lat="43.58599" lon="6.25353">
        <ele>435</ele>
        <time>2013-02-03T14:21:58Z</time>
      </trkpt>
      <trkpt lat="43.58596" lon="6.25343">
        <ele>434.200012</ele>
        <time>2013-02-03T14:22:05Z</time>
      </trkpt>
      <trkpt lat="43.5859" lon="6.25335">
        <ele>433.799988</ele>
        <time>2013-02-03T14:22:12Z</time>
      </trkpt>
      <trkpt lat="43.58582" lon="6.25333">
        <ele>433.600006</ele>
        <time>2013-02-03T14:22:18Z</time>
      </trkpt>
      <trkpt lat="43.58574" lon="6.25328">
        <ele>433.200012</ele>
        <time>2013-02-03T14:22:25Z</time>
      </trkpt>
      <trkpt lat="43.58566" lon="6.25322">
        <ele>432.799988</ele>
        <time>2013-02-03T14:22:32Z</time>
      </trkpt>
      <trkpt lat="43.58559" lon="6.25321">
        <ele>433.299988</ele>
        <time>2013-02-03T14:22:38Z</time>
      </trkpt>
      <trkpt lat="43.5855" lon="6.25319">
        <ele>432.799988</ele>
        <time>2013-02-03T14:22:43Z</time>
      </trkpt>
      <trkpt lat="43.58543" lon="6.25319">
        <ele>433.200012</ele>
        <time>2013-02-03T14:22:50Z</time>
      </trkpt>
      <trkpt lat="43.58541" lon="6.25318">
        <ele>433</ele>
        <time>2013-02-03T14:22:51Z</time>
      </trkpt>
      <trkpt lat="43.58542" lon="6.253">
        <ele>433.100006</ele>
        <time>2013-02-03T14:23:02Z</time>
      </trkpt>
      <trkpt lat="43.58541" lon="6.25288">
        <ele>433.100006</ele>
        <time>2013-02-03T14:23:09Z</time>
      </trkpt>
      <trkpt lat="43.58542" lon="6.25277">
        <ele>433.399994</ele>
        <time>2013-02-03T14:23:19Z</time>
      </trkpt>
      <trkpt lat="43.58541" lon="6.25266">
        <ele>434</ele>
        <time>2013-02-03T14:23:31Z</time>
      </trkpt>
      <trkpt lat="43.58535" lon="6.25257">
        <ele>435.299988</ele>
        <time>2013-02-03T14:23:38Z</time>
      </trkpt>
      <trkpt lat="43.58531" lon="6.25247">
        <ele>436.399994</ele>
        <time>2013-02-03T14:23:46Z</time>
      </trkpt>
      <trkpt lat="43.58527" lon="6.25236">
        <ele>436.299988</ele>
        <time>2013-02-03T14:23:53Z</time>
      </trkpt>
      <trkpt lat="43.58527" lon="6.25235">
        <ele>436.700012</ele>
        <time>2013-02-03T14:23:54Z</time>
      </trkpt>
      <trkpt lat="43.5853" lon="6.25212">
        <ele>437.5</ele>
        <time>2013-02-03T14:24:09Z</time>
      </trkpt>
      <trkpt lat="43.58527" lon="6.25201">
        <ele>437.200012</ele>
        <time>2013-02-03T14:24:19Z</time>
      </trkpt>
      <trkpt lat="43.58525" lon="6.2519">
        <ele>437.5</ele>
        <time>2013-02-03T14:24:27Z</time>
      </trkpt>
      <trkpt lat="43.58522" lon="6.25179">
        <ele>438.700012</ele>
        <time>2013-02-03T14:24:36Z</time>
      </trkpt>
      <trkpt lat="43.58519" lon="6.25168">
        <ele>439.299988</ele>
        <time>2013-02-03T14:24:43Z</time>
      </trkpt>
      <trkpt lat="43.58515" lon="6.25159">
        <ele>439.899994</ele>
        <time>2013-02-03T14:24:50Z</time>
      </trkpt>
      <trkpt lat="43.58511" lon="6.25149">
        <ele>440.899994</ele>
        <time>2013-02-03T14:24:57Z</time>
      </trkpt>
      <trkpt lat="43.58511" lon="6.25147">
        <ele>440.700012</ele>
        <time>2013-02-03T14:24:58Z</time>
      </trkpt>
      <trkpt lat="43.58504" lon="6.25129">
        <ele>441.399994</ele>
        <time>2013-02-03T14:25:10Z</time>
      </trkpt>
      <trkpt lat="43.585" lon="6.25118">
        <ele>440.5</ele>
        <time>2013-02-03T14:25:18Z</time>
      </trkpt>
      <trkpt lat="43.58498" lon="6.25108">
        <ele>440.899994</ele>
        <time>2013-02-03T14:25:25Z</time>
      </trkpt>
      <trkpt lat="43.58495" lon="6.25098">
        <ele>440.100006</ele>
        <time>2013-02-03T14:25:33Z</time>
      </trkpt>
      <trkpt lat="43.58488" lon="6.25092">
        <ele>439.899994</ele>
        <time>2013-02-03T14:25:38Z</time>
      </trkpt>
      <trkpt lat="43.5848" lon="6.2509">
        <ele>439.700012</ele>
        <time>2013-02-03T14:25:43Z</time>
      </trkpt>
      <trkpt lat="43.58471" lon="6.25089">
        <ele>439.200012</ele>
        <time>2013-02-03T14:25:50Z</time>
      </trkpt>
      <trkpt lat="43.58463" lon="6.25088">
        <ele>440.200012</ele>
        <time>2013-02-03T14:25:58Z</time>
      </trkpt>
      <trkpt lat="43.58462" lon="6.25087">
        <ele>440.399994</ele>
        <time>2013-02-03T14:25:59Z</time>
      </trkpt>
      <trkpt lat="43.58447" lon="6.2508">
        <ele>440.399994</ele>
        <time>2013-02-03T14:26:13Z</time>
      </trkpt>
      <trkpt lat="43.58439" lon="6.25074">
        <ele>440.700012</ele>
        <time>2013-02-03T14:26:21Z</time>
      </trkpt>
      <trkpt lat="43.58433" lon="6.25067">
        <ele>440.5</ele>
        <time>2013-02-03T14:26:28Z</time>
      </trkpt>
      <trkpt lat="43.58427" lon="6.25059">
        <ele>440.799988</ele>
        <time>2013-02-03T14:26:35Z</time>
      </trkpt>
      <trkpt lat="43.58421" lon="6.25051">
        <ele>440.600006</ele>
        <time>2013-02-03T14:26:43Z</time>
      </trkpt>
      <trkpt lat="43.58413" lon="6.25045">
        <ele>440</ele>
        <time>2013-02-03T14:26:50Z</time>
      </trkpt>
      <trkpt lat="43.58406" lon="6.25039">
        <ele>439.799988</ele>
        <time>2013-02-03T14:26:59Z</time>
      </trkpt>
      <trkpt lat="43.58405" lon="6.25039">
        <ele>439.700012</ele>
        <time>2013-02-03T14:27:00Z</time>
      </trkpt>
      <trkpt lat="43.58391" lon="6.25028">
        <ele>439.399994</ele>
        <time>2013-02-03T14:27:17Z</time>
      </trkpt>
      <trkpt lat="43.58383" lon="6.25022">
        <ele>439.299988</ele>
        <time>2013-02-03T14:27:25Z</time>
      </trkpt>
      <trkpt lat="43.58376" lon="6.25018">
        <ele>439.700012</ele>
        <time>2013-02-03T14:27:31Z</time>
      </trkpt>
      <trkpt lat="43.58367" lon="6.25015">
        <ele>439.899994</ele>
        <time>2013-02-03T14:27:37Z</time>
      </trkpt>
      <trkpt lat="43.58363" lon="6.25004">
        <ele>439.700012</ele>
        <time>2013-02-03T14:27:46Z</time>
      </trkpt>
      <trkpt lat="43.58357" lon="6.24996">
        <ele>439.600006</ele>
        <time>2013-02-03T14:27:56Z</time>
      </trkpt>
      <trkpt lat="43.58352" lon="6.24987">
        <ele>439.799988</ele>
        <time>2013-02-03T14:28:03Z</time>
      </trkpt>
      <trkpt lat="43.58351" lon="6.24985">
        <ele>439.899994</ele>
        <time>2013-02-03T14:28:04Z</time>
      </trkpt>
      <trkpt lat="43.58349" lon="6.24965">
        <ele>439.700012</ele>
        <time>2013-02-03T14:28:15Z</time>
      </trkpt>
      <trkpt lat="43.5835" lon="6.24953">
        <ele>440.100006</ele>
        <time>2013-02-03T14:28:23Z</time>
      </trkpt>
      <trkpt lat="43.58349" lon="6.24942">
        <ele>439.899994</ele>
        <time>2013-02-03T14:28:32Z</time>
      </trkpt>
      <trkpt lat="43.58347" lon="6.2493">
        <ele>440</ele>
        <time>2013-02-03T14:28:39Z</time>
      </trkpt>
      <trkpt lat="43.58347" lon="6.24919">
        <ele>440</ele>
        <time>2013-02-03T14:28:47Z</time>
      </trkpt>
      <trkpt lat="43.58346" lon="6.24907">
        <ele>440.700012</ele>
        <time>2013-02-03T14:28:55Z</time>
      </trkpt>
      <trkpt lat="43.58345" lon="6.24896">
        <ele>440.899994</ele>
        <time>2013-02-03T14:29:03Z</time>
      </trkpt>
      <trkpt lat="43.58348" lon="6.24885">
        <ele>441.600006</ele>
        <time>2013-02-03T14:29:10Z</time>
      </trkpt>
      <trkpt lat="43.58348" lon="6.24883">
        <ele>441.399994</ele>
        <time>2013-02-03T14:29:11Z</time>
      </trkpt>
      <trkpt lat="43.58357" lon="6.24867">
        <ele>441.5</ele>
        <time>2013-02-03T14:29:25Z</time>
      </trkpt>
      <trkpt lat="43.58359" lon="6.24856">
        <ele>442.399994</ele>
        <time>2013-02-03T14:29:31Z</time>
      </trkpt>
      <trkpt lat="43.58361" lon="6.24845">
        <ele>442.5</ele>
        <time>2013-02-03T14:29:38Z</time>
      </trkpt>
      <trkpt lat="43.58365" lon="6.24834">
        <ele>442.5</ele>
        <time>2013-02-03T14:29:44Z</time>
      </trkpt>
      <trkpt lat="43.58368" lon="6.24823">
        <ele>443.200012</ele>
        <time>2013-02-03T14:29:55Z</time>
      </trkpt>
      <trkpt lat="43.58372" lon="6.24814">
        <ele>443</ele>
        <time>2013-02-03T14:30:02Z</time>
      </trkpt>
      <trkpt lat="43.58378" lon="6.24805">
        <ele>443.299988</ele>
        <time>2013-02-03T14:30:09Z</time>
      </trkpt>
      <trkpt lat="43.58384" lon="6.248">
        <ele>443.399994</ele>
        <time>2013-02-03T14:30:16Z</time>
      </trkpt>
      <trkpt lat="43.58386" lon="6.24797">
        <ele>443.700012</ele>
        <time>2013-02-03T14:30:17Z</time>
      </trkpt>
      <trkpt lat="43.58392" lon="6.2478">
        <ele>444.5</ele>
        <time>2013-02-03T14:30:29Z</time>
      </trkpt>
      <trkpt lat="43.58395" lon="6.2477">
        <ele>444.299988</ele>
        <time>2013-02-03T14:30:35Z</time>
      </trkpt>
      <trkpt lat="43.58395" lon="6.24758">
        <ele>443.600006</ele>
        <time>2013-02-03T14:30:44Z</time>
      </trkpt>
      <trkpt lat="43.58399" lon="6.24748">
        <ele>444.100006</ele>
        <time>2013-02-03T14:30:51Z</time>
      </trkpt>
      <trkpt lat="43.58401" lon="6.24737">
        <ele>443.899994</ele>
        <time>2013-02-03T14:30:57Z</time>
      </trkpt>
      <trkpt lat="43.58402" lon="6.24724">
        <ele>443.700012</ele>
        <time>2013-02-03T14:31:06Z</time>
      </trkpt>
      <trkpt lat="43.58402" lon="6.24713">
        <ele>444.600006</ele>
        <time>2013-02-03T14:31:13Z</time>
      </trkpt>
      <trkpt lat="43.58397" lon="6.24703">
        <ele>443.799988</ele>
        <time>2013-02-03T14:31:20Z</time>
      </trkpt>
      <trkpt lat="43.58396" lon="6.24702">
        <ele>443.600006</ele>
        <time>2013-02-03T14:31:21Z</time>
      </trkpt>
      <trkpt lat="43.58386" lon="6.24685">
        <ele>443.399994</ele>
        <time>2013-02-03T14:31:34Z</time>
      </trkpt>
      <trkpt lat="43.58382" lon="6.24676">
        <ele>443.600006</ele>
        <time>2013-02-03T14:31:41Z</time>
      </trkpt>
      <trkpt lat="43.58377" lon="6.24668">
        <ele>443.200012</ele>
        <time>2013-02-03T14:31:51Z</time>
      </trkpt>
      <trkpt lat="43.58372" lon="6.2466">
        <ele>442.5</ele>
        <time>2013-02-03T14:31:59Z</time>
      </trkpt>
      <trkpt lat="43.58365" lon="6.24655">
        <ele>442.100006</ele>
        <time>2013-02-03T14:32:04Z</time>
      </trkpt>
      <trkpt lat="43.58358" lon="6.2465">
        <ele>441.899994</ele>
        <time>2013-02-03T14:32:11Z</time>
      </trkpt>
      <trkpt lat="43.5835" lon="6.24648">
        <ele>441.399994</ele>
        <time>2013-02-03T14:32:18Z</time>
      </trkpt>
      <trkpt lat="43.58341" lon="6.24649">
        <ele>440.600006</ele>
        <time>2013-02-03T14:32:25Z</time>
      </trkpt>
      <trkpt lat="43.5834" lon="6.24649">
        <ele>440.399994</ele>
        <time>2013-02-03T14:32:26Z</time>
      </trkpt>
      <trkpt lat="43.58324" lon="6.2465">
        <ele>438.700012</ele>
        <time>2013-02-03T14:32:41Z</time>
      </trkpt>
      <trkpt lat="43.58316" lon="6.2465">
        <ele>437.700012</ele>
        <time>2013-02-03T14:32:48Z</time>
      </trkpt>
      <trkpt lat="43.58308" lon="6.24652">
        <ele>437.799988</ele>
        <time>2013-02-03T14:32:54Z</time>
      </trkpt>
      <trkpt lat="43.58299" lon="6.24651">
        <ele>437</ele>
        <time>2013-02-03T14:33:00Z</time>
      </trkpt>
      <trkpt lat="43.58291" lon="6.24653">
        <ele>436.799988</ele>
        <time>2013-02-03T14:33:07Z</time>
      </trkpt>
      <trkpt lat="43.58282" lon="6.24654">
        <ele>435.799988</ele>
        <time>2013-02-03T14:33:16Z</time>
      </trkpt>
      <trkpt lat="43.58274" lon="6.24659">
        <ele>435.799988</ele>
        <time>2013-02-03T14:33:22Z</time>
      </trkpt>
      <trkpt lat="43.58266" lon="6.24658">
        <ele>435.399994</ele>
        <time>2013-02-03T14:33:28Z</time>
      </trkpt>
      <trkpt lat="43.58265" lon="6.24658">
        <ele>435.399994</ele>
        <time>2013-02-03T14:33:29Z</time>
      </trkpt>
      <trkpt lat="43.58249" lon="6.24661">
        <ele>434</ele>
        <time>2013-02-03T14:33:43Z</time>
      </trkpt>
      <trkpt lat="43.58241" lon="6.24659">
        <ele>433.899994</ele>
        <time>2013-02-03T14:33:49Z</time>
      </trkpt>
      <trkpt lat="43.58233" lon="6.24658">
        <ele>433.899994</ele>
        <time>2013-02-03T14:33:56Z</time>
      </trkpt>
      <trkpt lat="43.58225" lon="6.24661">
        <ele>434.399994</ele>
        <time>2013-02-03T14:34:03Z</time>
      </trkpt>
      <trkpt lat="43.58216" lon="6.24663">
        <ele>434.5</ele>
        <time>2013-02-03T14:34:10Z</time>
      </trkpt>
      <trkpt lat="43.58208" lon="6.24665">
        <ele>433.5</ele>
        <time>2013-02-03T14:34:18Z</time>
      </trkpt>
      <trkpt lat="43.58199" lon="6.24668">
        <ele>431.799988</ele>
        <time>2013-02-03T14:36:17Z</time>
      </trkpt>
      <trkpt lat="43.58199" lon="6.24668">
        <ele>431.700012</ele>
        <time>2013-02-03T14:36:18Z</time>
      </trkpt>
      <trkpt lat="43.58183" lon="6.24667">
        <ele>429.399994</ele>
        <time>2013-02-03T14:36:34Z</time>
      </trkpt>
      <trkpt lat="43.58175" lon="6.24672">
        <ele>428.100006</ele>
        <time>2013-02-03T14:36:43Z</time>
      </trkpt>
      <trkpt lat="43.58168" lon="6.24679">
        <ele>426.100006</ele>
        <time>2013-02-03T14:36:55Z</time>
      </trkpt>
      <trkpt lat="43.5816" lon="6.24686">
        <ele>423.700012</ele>
        <time>2013-02-03T14:37:10Z</time>
      </trkpt>
      <trkpt lat="43.58155" lon="6.24695">
        <ele>422.5</ele>
        <time>2013-02-03T14:37:21Z</time>
      </trkpt>
      <trkpt lat="43.58154" lon="6.24696">
        <ele>422.600006</ele>
        <time>2013-02-03T14:37:22Z</time>
      </trkpt>
      <trkpt lat="43.58144" lon="6.24713">
        <ele>417.700012</ele>
        <time>2013-02-03T14:37:47Z</time>
      </trkpt>
      <trkpt lat="43.58138" lon="6.24722">
        <ele>416</ele>
        <time>2013-02-03T14:37:56Z</time>
      </trkpt>
      <trkpt lat="43.58133" lon="6.24732">
        <ele>413.100006</ele>
        <time>2013-02-03T14:38:07Z</time>
      </trkpt>
      <trkpt lat="43.58125" lon="6.24737">
        <ele>410.5</ele>
        <time>2013-02-03T14:38:19Z</time>
      </trkpt>
      <trkpt lat="43.58118" lon="6.2474">
        <ele>409.299988</ele>
        <time>2013-02-03T14:38:29Z</time>
      </trkpt>
      <trkpt lat="43.58117" lon="6.24741">
        <ele>409.100006</ele>
        <time>2013-02-03T14:38:30Z</time>
      </trkpt>
      <trkpt lat="43.58101" lon="6.24748">
        <ele>406.700012</ele>
        <time>2013-02-03T14:38:48Z</time>
      </trkpt>
      <trkpt lat="43.58093" lon="6.24752">
        <ele>405.299988</ele>
        <time>2013-02-03T14:38:58Z</time>
      </trkpt>
      <trkpt lat="43.58085" lon="6.24755">
        <ele>403.299988</ele>
        <time>2013-02-03T14:39:10Z</time>
      </trkpt>
      <trkpt lat="43.58078" lon="6.24751">
        <ele>401.899994</ele>
        <time>2013-02-03T14:39:17Z</time>
      </trkpt>
      <trkpt lat="43.58069" lon="6.2475">
        <ele>399.200012</ele>
        <time>2013-02-03T14:39:25Z</time>
      </trkpt>
      <trkpt lat="43.58063" lon="6.24745">
        <ele>398.200012</ele>
        <time>2013-02-03T14:39:32Z</time>
      </trkpt>
      <trkpt lat="43.58061" lon="6.24745">
        <ele>397.899994</ele>
        <time>2013-02-03T14:39:33Z</time>
      </trkpt>
      <trkpt lat="43.58047" lon="6.24736">
        <ele>395.700012</ele>
        <time>2013-02-03T14:39:53Z</time>
      </trkpt>
      <trkpt lat="43.5804" lon="6.24728">
        <ele>392.899994</ele>
        <time>2013-02-03T14:40:06Z</time>
      </trkpt>
      <trkpt lat="43.58034" lon="6.24721">
        <ele>391.600006</ele>
        <time>2013-02-03T14:40:15Z</time>
      </trkpt>
      <trkpt lat="43.58026" lon="6.24715">
        <ele>389.200012</ele>
        <time>2013-02-03T14:40:26Z</time>
      </trkpt>
      <trkpt lat="43.5802" lon="6.24707">
        <ele>386.399994</ele>
        <time>2013-02-03T14:40:39Z</time>
      </trkpt>
      <trkpt lat="43.58019" lon="6.24706">
        <ele>386.100006</ele>
        <time>2013-02-03T14:40:40Z</time>
      </trkpt>
      <trkpt lat="43.58005" lon="6.24693">
        <ele>383.5</ele>
        <time>2013-02-03T14:40:59Z</time>
      </trkpt>
      <trkpt lat="43.57998" lon="6.247">
        <ele>380.899994</ele>
        <time>2013-02-03T14:41:13Z</time>
      </trkpt>
      <trkpt lat="43.57999" lon="6.24712">
        <ele>378.700012</ele>
        <time>2013-02-03T14:41:23Z</time>
      </trkpt>
      <trkpt lat="43.57997" lon="6.24723">
        <ele>376.700012</ele>
        <time>2013-02-03T14:41:33Z</time>
      </trkpt>
      <trkpt lat="43.57991" lon="6.24732">
        <ele>376.200012</ele>
        <time>2013-02-03T14:41:40Z</time>
      </trkpt>
      <trkpt lat="43.57987" lon="6.24742">
        <ele>372.899994</ele>
        <time>2013-02-03T14:41:55Z</time>
      </trkpt>
      <trkpt lat="43.57987" lon="6.24744">
        <ele>372.600006</ele>
        <time>2013-02-03T14:41:56Z</time>
      </trkpt>
      <trkpt lat="43.57977" lon="6.24748">
        <ele>368.200012</ele>
        <time>2013-02-03T14:42:27Z</time>
      </trkpt>
      <trkpt lat="43.57972" lon="6.24738">
        <ele>366.5</ele>
        <time>2013-02-03T14:42:36Z</time>
      </trkpt>
      <trkpt lat="43.57967" lon="6.24729">
        <ele>365.200012</ele>
        <time>2013-02-03T14:42:44Z</time>
      </trkpt>
      <trkpt lat="43.5796" lon="6.24722">
        <ele>364.200012</ele>
        <time>2013-02-03T14:42:52Z</time>
      </trkpt>
      <trkpt lat="43.57954" lon="6.24716">
        <ele>362.799988</ele>
        <time>2013-02-03T14:43:00Z</time>
      </trkpt>
      <trkpt lat="43.57953" lon="6.24714">
        <ele>362.799988</ele>
        <time>2013-02-03T14:43:01Z</time>
      </trkpt>
      <trkpt lat="43.5794" lon="6.24702">
        <ele>359.200012</ele>
        <time>2013-02-03T14:43:24Z</time>
      </trkpt>
      <trkpt lat="43.57939" lon="6.2469">
        <ele>358.399994</ele>
        <time>2013-02-03T14:43:37Z</time>
      </trkpt>
      <trkpt lat="43.57937" lon="6.24679">
        <ele>356.600006</ele>
        <time>2013-02-03T14:43:47Z</time>
      </trkpt>
      <trkpt lat="43.57931" lon="6.24671">
        <ele>356.299988</ele>
        <time>2013-02-03T14:43:55Z</time>
      </trkpt>
      <trkpt lat="43.57924" lon="6.24666">
        <ele>356.100006</ele>
        <time>2013-02-03T14:44:04Z</time>
      </trkpt>
      <trkpt lat="43.57923" lon="6.24665">
        <ele>356</ele>
        <time>2013-02-03T14:44:05Z</time>
      </trkpt>
      <trkpt lat="43.5791" lon="6.24655">
        <ele>354</ele>
        <time>2013-02-03T14:44:22Z</time>
      </trkpt>
      <trkpt lat="43.57905" lon="6.24645">
        <ele>352.399994</ele>
        <time>2013-02-03T14:44:32Z</time>
      </trkpt>
      <trkpt lat="43.57898" lon="6.2464">
        <ele>351.299988</ele>
        <time>2013-02-03T14:44:40Z</time>
      </trkpt>
      <trkpt lat="43.57896" lon="6.2463">
        <ele>350.700012</ele>
        <time>2013-02-03T14:44:47Z</time>
      </trkpt>
      <trkpt lat="43.57893" lon="6.24618">
        <ele>350.799988</ele>
        <time>2013-02-03T14:44:55Z</time>
      </trkpt>
      <trkpt lat="43.57887" lon="6.2461">
        <ele>350.299988</ele>
        <time>2013-02-03T14:45:01Z</time>
      </trkpt>
      <trkpt lat="43.57884" lon="6.24599">
        <ele>349.700012</ele>
        <time>2013-02-03T14:45:08Z</time>
      </trkpt>
      <trkpt lat="43.57884" lon="6.24598">
        <ele>349.799988</ele>
        <time>2013-02-03T14:45:09Z</time>
      </trkpt>
      <trkpt lat="43.57873" lon="6.2458">
        <ele>347.100006</ele>
        <time>2013-02-03T14:45:27Z</time>
      </trkpt>
      <trkpt lat="43.57866" lon="6.24579">
        <ele>345.600006</ele>
        <time>2013-02-03T14:45:33Z</time>
      </trkpt>
      <trkpt lat="43.57861" lon="6.2459">
        <ele>344.100006</ele>
        <time>2013-02-03T14:45:43Z</time>
      </trkpt>
      <trkpt lat="43.5786" lon="6.24602">
        <ele>341.799988</ele>
        <time>2013-02-03T14:45:54Z</time>
      </trkpt>
      <trkpt lat="43.57859" lon="6.24612">
        <ele>340</ele>
        <time>2013-02-03T14:46:02Z</time>
      </trkpt>
      <trkpt lat="43.57858" lon="6.24624">
        <ele>339.100006</ele>
        <time>2013-02-03T14:46:10Z</time>
      </trkpt>
      <trkpt lat="43.57859" lon="6.24626">
        <ele>338.899994</ele>
        <time>2013-02-03T14:46:11Z</time>
      </trkpt>
      <trkpt lat="43.57857" lon="6.24647">
        <ele>336.799988</ele>
        <time>2013-02-03T14:46:29Z</time>
      </trkpt>
      <trkpt lat="43.57851" lon="6.2464">
        <ele>334.399994</ele>
        <time>2013-02-03T14:46:43Z</time>
      </trkpt>
      <trkpt lat="43.57844" lon="6.24633">
        <ele>333.899994</ele>
        <time>2013-02-03T14:46:52Z</time>
      </trkpt>
      <trkpt lat="43.57839" lon="6.24624">
        <ele>333.5</ele>
        <time>2013-02-03T14:47:02Z</time>
      </trkpt>
      <trkpt lat="43.57834" lon="6.24614">
        <ele>333.5</ele>
        <time>2013-02-03T14:47:11Z</time>
      </trkpt>
      <trkpt lat="43.57833" lon="6.24613">
        <ele>333.5</ele>
        <time>2013-02-03T14:47:12Z</time>
      </trkpt>
      <trkpt lat="43.57828" lon="6.24596">
        <ele>333.100006</ele>
        <time>2013-02-03T14:47:24Z</time>
      </trkpt>
      <trkpt lat="43.57829" lon="6.24584">
        <ele>333</ele>
        <time>2013-02-03T14:47:30Z</time>
      </trkpt>
      <trkpt lat="43.57825" lon="6.24573">
        <ele>332.700012</ele>
        <time>2013-02-03T14:47:40Z</time>
      </trkpt>
      <trkpt lat="43.57824" lon="6.24561">
        <ele>332.299988</ele>
        <time>2013-02-03T14:47:57Z</time>
      </trkpt>
      <trkpt lat="43.57816" lon="6.24566">
        <ele>329.5</ele>
        <time>2013-02-03T14:49:29Z</time>
      </trkpt>
      <trkpt lat="43.57816" lon="6.24566">
        <ele>329.5</ele>
        <time>2013-02-03T14:49:30Z</time>
      </trkpt>
      <trkpt lat="43.57822" lon="6.24544">
        <ele>328.899994</ele>
        <time>2013-02-03T14:51:25Z</time>
      </trkpt>
      <trkpt lat="43.57822" lon="6.24544">
        <ele>328.700012</ele>
        <time>2013-02-03T14:51:26Z</time>
      </trkpt>
      <trkpt lat="43.57824" lon="6.24521">
        <ele>327.299988</ele>
        <time>2013-02-03T14:51:48Z</time>
      </trkpt>
      <trkpt lat="43.57828" lon="6.24512">
        <ele>324.5</ele>
        <time>2013-02-03T14:52:05Z</time>
      </trkpt>
      <trkpt lat="43.57836" lon="6.24507">
        <ele>322.5</ele>
        <time>2013-02-03T14:52:15Z</time>
      </trkpt>
      <trkpt lat="43.5784" lon="6.24497">
        <ele>321.100006</ele>
        <time>2013-02-03T14:52:30Z</time>
      </trkpt>
      <trkpt lat="43.57841" lon="6.24496">
        <ele>321.299988</ele>
        <time>2013-02-03T14:52:31Z</time>
      </trkpt>
      <trkpt lat="43.57834" lon="6.24478">
        <ele>317.899994</ele>
        <time>2013-02-03T14:52:52Z</time>
      </trkpt>
      <trkpt lat="43.57825" lon="6.24475">
        <ele>315.799988</ele>
        <time>2013-02-03T14:53:04Z</time>
      </trkpt>
      <trkpt lat="43.57818" lon="6.24468">
        <ele>313</ele>
        <time>2013-02-03T14:53:25Z</time>
      </trkpt>
      <trkpt lat="43.5781" lon="6.24471">
        <ele>311.799988</ele>
        <time>2013-02-03T14:53:31Z</time>
      </trkpt>
      <trkpt lat="43.57809" lon="6.24472">
        <ele>311.600006</ele>
        <time>2013-02-03T14:53:32Z</time>
      </trkpt>
      <trkpt lat="43.57795" lon="6.24471">
        <ele>309</ele>
        <time>2013-02-03T14:53:57Z</time>
      </trkpt>
      <trkpt lat="43.57787" lon="6.24464">
        <ele>306.899994</ele>
        <time>2013-02-03T14:54:13Z</time>
      </trkpt>
      <trkpt lat="43.57782" lon="6.24473">
        <ele>304.799988</ele>
        <time>2013-02-03T14:54:26Z</time>
      </trkpt>
      <trkpt lat="43.57778" lon="6.24483">
        <ele>303.200012</ele>
        <time>2013-02-03T14:54:38Z</time>
      </trkpt>
      <trkpt lat="43.57778" lon="6.24484">
        <ele>302.799988</ele>
        <time>2013-02-03T14:54:39Z</time>
      </trkpt>
      <trkpt lat="43.57765" lon="6.245">
        <ele>299.899994</ele>
        <time>2013-02-03T14:54:59Z</time>
      </trkpt>
      <trkpt lat="43.57761" lon="6.2451">
        <ele>298.399994</ele>
        <time>2013-02-03T14:55:05Z</time>
      </trkpt>
      <trkpt lat="43.57756" lon="6.2452">
        <ele>299.200012</ele>
        <time>2013-02-03T14:55:10Z</time>
      </trkpt>
      <trkpt lat="43.57761" lon="6.2453">
        <ele>300.399994</ele>
        <time>2013-02-03T14:55:20Z</time>
      </trkpt>
      <trkpt lat="43.57754" lon="6.24524">
        <ele>297</ele>
        <time>2013-02-03T14:55:44Z</time>
      </trkpt>
      <trkpt lat="43.57753" lon="6.24524">
        <ele>296.899994</ele>
        <time>2013-02-03T14:55:45Z</time>
      </trkpt>
      <trkpt lat="43.5774" lon="6.24535">
        <ele>293.899994</ele>
        <time>2013-02-03T14:56:29Z</time>
      </trkpt>
      <trkpt lat="43.57735" lon="6.24545">
        <ele>293.700012</ele>
        <time>2013-02-03T14:56:39Z</time>
      </trkpt>
      <trkpt lat="43.57729" lon="6.24553">
        <ele>294.5</ele>
        <time>2013-02-03T14:56:52Z</time>
      </trkpt>
      <trkpt lat="43.57728" lon="6.24555">
        <ele>294.5</ele>
        <time>2013-02-03T14:56:53Z</time>
      </trkpt>
      <trkpt lat="43.57732" lon="6.24575">
        <ele>293.600006</ele>
        <time>2013-02-03T14:57:15Z</time>
      </trkpt>
      <trkpt lat="43.57733" lon="6.24563">
        <ele>292.899994</ele>
        <time>2013-02-03T14:57:36Z</time>
      </trkpt>
      <trkpt lat="43.5773" lon="6.24551">
        <ele>291.100006</ele>
        <time>2013-02-03T14:57:49Z</time>
      </trkpt>
      <trkpt lat="43.57721" lon="6.24553">
        <ele>288.899994</ele>
        <time>2013-02-03T14:58:00Z</time>
      </trkpt>
      <trkpt lat="43.5772" lon="6.24555">
        <ele>288.799988</ele>
        <time>2013-02-03T14:58:01Z</time>
      </trkpt>
      <trkpt lat="43.57706" lon="6.24546">
        <ele>281.799988</ele>
        <time>2013-02-03T14:58:48Z</time>
      </trkpt>
      <trkpt lat="43.57697" lon="6.24546">
        <ele>280</ele>
        <time>2013-02-03T14:58:57Z</time>
      </trkpt>
      <trkpt lat="43.57692" lon="6.24538">
        <ele>278.700012</ele>
        <time>2013-02-03T14:59:07Z</time>
      </trkpt>
      <trkpt lat="43.57692" lon="6.24536">
        <ele>278.399994</ele>
        <time>2013-02-03T14:59:08Z</time>
      </trkpt>
      <trkpt lat="43.57681" lon="6.2453">
        <ele>277.299988</ele>
        <time>2013-02-03T14:59:35Z</time>
      </trkpt>
      <trkpt lat="43.57675" lon="6.24523">
        <ele>276</ele>
        <time>2013-02-03T15:01:40Z</time>
      </trkpt>
      <trkpt lat="43.57674" lon="6.24522">
        <ele>275.799988</ele>
        <time>2013-02-03T15:01:41Z</time>
      </trkpt>
      <trkpt lat="43.57659" lon="6.24518">
        <ele>273.5</ele>
        <time>2013-02-03T15:01:59Z</time>
      </trkpt>
      <trkpt lat="43.57651" lon="6.24519">
        <ele>272.700012</ele>
        <time>2013-02-03T15:02:07Z</time>
      </trkpt>
      <trkpt lat="43.57643" lon="6.24517">
        <ele>272.5</ele>
        <time>2013-02-03T15:02:15Z</time>
      </trkpt>
      <trkpt lat="43.57634" lon="6.24516">
        <ele>271.799988</ele>
        <time>2013-02-03T15:02:24Z</time>
      </trkpt>
      <trkpt lat="43.57626" lon="6.24517">
        <ele>271.399994</ele>
        <time>2013-02-03T15:02:32Z</time>
      </trkpt>
      <trkpt lat="43.57617" lon="6.24519">
        <ele>271.399994</ele>
        <time>2013-02-03T15:02:40Z</time>
      </trkpt>
      <trkpt lat="43.57609" lon="6.2452">
        <ele>270.100006</ele>
        <time>2013-02-03T15:02:48Z</time>
      </trkpt>
      <trkpt lat="43.57608" lon="6.2452">
        <ele>269.899994</ele>
        <time>2013-02-03T15:02:49Z</time>
      </trkpt>
      <trkpt lat="43.57593" lon="6.24523">
        <ele>269.200012</ele>
        <time>2013-02-03T15:06:43Z</time>
      </trkpt>
      <trkpt lat="43.57593" lon="6.24524">
        <ele>269.5</ele>
        <time>2013-02-03T15:06:44Z</time>
      </trkpt>
      <trkpt lat="43.57585" lon="6.24528">
        <ele>269.399994</ele>
        <time>2013-02-03T15:07:46Z</time>
      </trkpt>
    </trkseg>
  </trk>
</gpx>